[[{"header":{"parameterUnit":"m.s-1","parameterCategory":1,"la1":30.6,"la2":29.2853,"lo1":-89.7004,"lo2":-87.6739,"dx":0.0162,"dy":0.0183,"nx":112,"ny":82,"refTime":"2022-11-19T18:00:00:Z","depth":0,"parameterNumber":2,"parameterNumberName":"U-component_of_WINDS"},"data":[0.0,0.0,0.0,0.0,0.0,0.0,0.0,0.0,0.0,0.0,0.0,0.0,0.0,0.0,0.0,0.0,0.0,0.0,0.0,0.0,0.0,0.0,0.0,0.0,0.0,0.0,0.0,0.0,0.0,0.0,0.0,0.0,0.0,0.0,0.0,0.0,0.0,0.0,0.0,0.0,0.0,0.0,0.0,0.0,0.0,0.0,0.0,0.0,0.0,0.0,0.0,0.0,0.0,0.0,0.0,0.0,0.0,0.0,0.0,0.0,0.0,0.0,0.0,0.0,0.0,0.0,0.0,0.0,0.0,0.0,0.0,0.0,0.0,0.0,0.0,0.0,0.0,0.0,0.0,0.0,0.0,0.0,0.0,0.0,0.0,0.0,0.0,0.0,0.0,0.0,0.0,5.944,6.8931,7.436,7.2966,6.9896,6.2716,5.0198,0.0,0.0,0.0,0.0,0.0,0.0,0.0,0.0,0.0,0.0,0.0,0.0,0.0,0.0,0.0,0.0,0.0,0.0,0.0,0.0,0.0,0.0,0.0,0.0,0.0,0.0,0.0,0.0,0.0,0.0,0.0,0.0,0.0,0.0,0.0,0.0,0.0,0.0,0.0,0.0,0.0,0.0,0.0,0.0,0.0,0.0,0.0,0.0,0.0,0.0,0.0,0.0,0.0,0.0,0.0,0.0,0.0,0.0,0.0,0.0,0.0,0.0,0.0,0.0,0.0,0.0,0.0,0.0,0.0,0.0,0.0,0.0,0.0,0.0,0.0,0.0,0.0,0.0,0.0,0.0,0.0,0.0,0.0,0.0,0.0,0.0,0.0,0.0,0.0,0.0,0.0,0.0,0.0,0.0,0.0,0.0,0.0,0.0,0.0,0.0,0.0,0.0,0.0,0.0,5.7881,7.1705,7.4243,7.4793,7.4581,7.1578,6.4511,5.2271,0.0,0.0,0.0,0.0,0.0,0.0,0.0,0.0,0.0,0.0,0.0,0.0,0.0,0.0,0.0,0.0,0.0,0.0,0.0,0.0,0.0,0.0,0.0,0.0,0.0,0.0,0.0,0.0,0.0,0.0,0.0,0.0,0.0,0.0,0.0,0.0,0.0,0.0,0.0,0.0,0.0,0.0,0.0,0.0,0.0,0.0,0.0,0.0,0.0,0.0,0.0,0.0,0.0,0.0,0.0,0.0,0.0,0.0,0.0,0.0,0.0,0.0,0.0,0.0,0.0,0.0,0.0,0.0,0.0,0.0,0.0,0.0,0.0,0.0,0.0,0.0,0.0,0.0,0.0,0.0,0.0,0.0,0.0,0.0,0.0,0.0,0.0,0.0,0.0,0.0,0.0,0.0,0.0,0.0,0.0,0.0,0.0,0.0,0.0,0.0,0.0,0.0,0.0,5.3928,6.1826,7.4691,7.6195,7.6041,7.5608,7.2973,6.6133,5.368,4.7467,0.0,0.0,0.0,0.0,0.0,0.0,0.0,0.0,0.0,0.0,0.0,0.0,0.0,0.0,0.0,0.0,0.0,0.0,0.0,0.0,0.0,0.0,0.0,0.0,0.0,0.0,0.0,0.0,0.0,0.0,0.0,0.0,0.0,0.0,0.0,0.0,0.0,0.0,0.0,0.0,0.0,0.0,0.0,0.0,0.0,0.0,0.0,0.0,0.0,0.0,0.0,0.0,0.0,0.0,0.0,0.0,0.0,0.0,0.0,0.0,0.0,0.0,0.0,0.0,0.0,0.0,0.0,0.0,0.0,0.0,0.0,0.0,0.0,0.0,0.0,0.0,0.0,0.0,0.0,0.0,0.0,0.0,0.0,0.0,0.0,0.0,0.0,0.0,0.0,0.0,0.0,0.0,0.0,0.0,0.0,0.0,0.0,0.0,0.0,0.0,0.0,0.0,6.1269,6.7247,7.5535,7.6922,7.6995,7.6203,7.3927,6.7199,5.4662,4.8814,0.0,0.0,0.0,0.0,0.0,0.0,0.0,0.0,0.0,0.0,0.0,0.0,0.0,0.0,0.0,0.0,0.0,0.0,0.0,0.0,0.0,0.0,0.0,0.0,0.0,0.0,0.0,0.0,0.0,0.0,0.0,0.0,0.0,0.0,0.0,0.0,0.0,0.0,0.0,0.0,0.0,0.0,0.0,0.0,0.0,0.0,0.0,0.0,0.0,0.0,0.0,0.0,0.0,0.0,0.0,0.0,0.0,0.0,0.0,0.0,0.0,0.0,0.0,0.0,0.0,0.0,0.0,0.0,0.0,0.0,0.0,0.0,0.0,0.0,0.0,0.0,0.0,0.0,0.0,0.0,0.0,0.0,0.0,0.0,0.0,0.0,0.0,0.0,0.0,0.0,0.0,0.0,0.0,0.0,0.0,0.0,0.0,0.0,0.0,0.0,0.0,0.0,6.7611,7.5535,7.7069,7.7281,7.6995,7.6203,7.3927,6.7307,5.51,4.9025,0.0,0.0,0.0,0.0,0.0,0.0,0.0,0.0,0.0,0.0,0.0,0.0,0.0,0.0,0.0,0.0,0.0,0.0,0.0,0.0,0.0,0.0,0.0,0.0,0.0,0.0,0.0,0.0,0.0,0.0,0.0,0.0,0.0,0.0,0.0,0.0,0.0,0.0,0.0,0.0,0.0,0.0,0.0,0.0,0.0,0.0,0.0,0.0,0.0,0.0,0.0,0.0,0.0,0.0,0.0,0.0,0.0,0.0,0.0,0.0,0.0,0.0,0.0,0.0,0.0,0.0,0.0,0.0,0.0,0.0,0.0,0.0,0.0,0.0,0.0,0.0,0.0,0.0,0.0,0.0,0.0,0.0,0.0,0.0,0.0,0.0,0.0,0.0,0.0,0.0,0.0,0.0,0.0,0.0,0.0,0.0,0.0,0.0,0.0,0.0,0.0,0.0,6.5054,7.2532,0.0,7.7281,7.7215,7.6848,7.5087,6.8561,5.5946,0.0,0.0,0.0,0.0,0.0,0.0,0.0,0.0,0.0,0.0,0.0,0.0,0.0,0.0,0.0,0.0,0.0,0.0,0.0,0.0,0.0,0.0,0.0,0.0,0.0,0.0,0.0,0.0,0.0,0.0,0.0,0.0,0.0,0.0,0.0,0.0,0.0,0.0,0.0,0.0,0.0,0.0,0.0,0.0,0.0,0.0,0.0,0.0,0.0,0.0,0.0,0.0,0.0,0.0,0.0,0.0,0.0,0.0,0.0,0.0,0.0,0.0,0.0,0.0,0.0,0.0,0.0,0.0,0.0,0.0,0.0,0.0,0.0,0.0,0.0,0.0,0.0,0.0,0.0,0.0,0.0,0.0,0.0,0.0,0.0,0.0,0.0,0.0,0.0,0.0,0.0,0.0,0.0,0.0,0.0,0.0,0.0,0.0,0.0,0.0,0.0,0.0,5.6878,6.5705,7.2907,0.0,7.8104,7.7957,7.7729,7.5968,6.9369,5.6393,0.0,0.0,0.0,0.0,0.0,0.0,0.0,0.0,0.0,0.0,0.0,0.0,0.0,0.0,0.0,0.0,0.0,0.0,0.0,0.0,0.0,0.0,0.0,0.0,0.0,0.0,0.0,0.0,0.0,0.0,0.0,0.0,0.0,0.0,0.0,0.0,0.0,0.0,0.0,0.0,0.0,0.0,0.0,0.0,0.0,0.0,0.0,0.0,0.0,0.0,0.0,0.0,0.0,0.0,0.0,0.0,0.0,0.0,0.0,0.0,0.0,0.0,0.0,0.0,0.0,0.0,0.0,0.0,0.0,0.0,0.0,0.0,0.0,0.0,0.0,0.0,0.0,0.0,0.0,0.0,0.0,0.0,0.0,0.0,0.0,0.0,0.0,0.0,0.0,0.0,0.0,0.0,0.0,0.0,0.0,0.0,0.0,0.0,0.0,0.0,0.0,0.0,5.9715,7.1064,7.8927,7.9743,7.9816,7.9441,7.8707,7.6342,6.9369,0.0,0.0,0.0,0.0,0.0,0.0,0.0,0.0,0.0,0.0,0.0,0.0,0.0,0.0,0.0,0.0,0.0,0.0,0.0,0.0,0.0,0.0,0.0,0.0,0.0,0.0,0.0,0.0,0.0,0.0,0.0,0.0,0.0,0.0,0.0,0.0,0.0,0.0,0.0,0.0,0.0,0.0,0.0,0.0,0.0,0.0,0.0,0.0,0.0,0.0,0.0,0.0,0.0,0.0,0.0,0.0,0.0,0.0,0.0,0.0,0.0,0.0,0.0,0.0,0.0,0.0,0.0,0.0,0.0,0.0,0.0,0.0,0.0,0.0,0.0,0.0,0.0,0.0,0.0,0.0,0.0,0.0,0.0,0.0,0.0,0.0,0.0,0.0,0.0,0.0,0.0,0.0,0.0,0.0,0.0,0.0,0.0,0.0,0.0,0.0,0.0,0.0,0.0,5.9788,7.1064,7.8927,7.9743,7.9816,7.9441,7.8707,7.6864,6.9963,5.6466,0.0,0.0,0.0,0.0,0.0,0.0,0.0,0.0,0.0,0.0,0.0,0.0,0.0,0.0,0.0,0.0,0.0,0.0,0.0,0.0,0.0,0.0,0.0,0.0,0.0,0.0,0.0,0.0,0.0,0.0,0.0,0.0,0.0,0.0,0.0,0.0,0.0,0.0,0.0,0.0,0.0,0.0,0.0,0.0,0.0,0.0,0.0,0.0,0.0,0.0,0.0,0.0,0.0,0.0,0.0,0.0,0.0,0.0,0.0,0.0,0.0,0.0,0.0,0.0,0.0,0.0,0.0,0.0,0.0,0.0,0.0,0.0,0.0,0.0,0.0,0.0,0.0,0.0,0.0,0.0,0.0,0.0,0.0,0.0,0.0,0.0,0.0,0.0,0.0,0.0,0.0,0.0,0.0,0.0,0.0,0.0,0.0,0.0,0.0,0.0,0.0,0.0,6.1178,7.2239,8.0021,8.1122,8.0689,7.9746,7.852,7.6672,7.0591,5.9003,0.0,0.0,0.0,0.0,0.0,0.0,0.0,0.0,0.0,0.0,0.0,0.0,0.0,0.0,0.0,0.0,0.0,0.0,0.0,0.0,0.0,0.0,0.0,0.0,0.0,0.0,0.0,0.0,0.0,0.0,0.0,0.0,0.0,0.0,0.0,0.0,0.0,0.0,0.0,0.0,0.0,0.0,0.0,0.0,0.0,0.0,0.0,0.0,0.0,0.0,0.0,0.0,0.0,0.0,0.0,0.0,0.0,0.0,0.0,0.0,0.0,0.0,0.0,0.0,0.0,0.0,0.0,0.0,0.0,0.0,0.0,0.0,0.0,0.0,0.0,0.0,0.0,0.0,0.0,0.0,0.0,0.0,0.0,0.0,0.0,0.0,0.0,0.0,0.0,0.0,0.0,0.0,0.0,0.0,0.0,0.0,0.0,0.0,0.0,0.0,0.0,0.0,6.3142,7.4001,8.1701,8.3161,8.1921,8.024,7.8491,7.6105,7.1241,6.2895,0.0,0.0,0.0,0.0,0.0,0.0,0.0,0.0,0.0,0.0,0.0,0.0,0.0,0.0,0.0,0.0,0.0,0.0,0.0,0.0,0.0,0.0,0.0,0.0,0.0,0.0,0.0,0.0,0.0,0.0,0.0,0.0,0.0,0.0,0.0,0.0,0.0,0.0,0.0,0.0,0.0,0.0,0.0,0.0,0.0,0.0,0.0,0.0,0.0,0.0,0.0,0.0,0.0,0.0,0.0,0.0,0.0,0.0,0.0,0.0,4.354,0.0,0.0,0.0,0.0,0.0,0.0,0.0,0.0,0.0,0.0,0.0,0.0,0.0,0.0,0.0,0.0,0.0,0.0,0.0,0.0,0.0,0.0,0.0,0.0,0.0,0.0,0.0,0.0,0.0,0.0,0.0,0.0,0.0,0.0,0.0,0.0,0.0,0.0,0.0,0.0,0.0,6.2469,7.4147,8.2084,8.2443,8.1367,8.0269,7.9197,7.6738,7.1807,6.3674,0.0,0.0,0.0,0.0,0.0,0.0,0.0,0.0,0.0,0.0,0.0,0.0,0.0,0.0,0.0,0.0,0.0,0.0,0.0,0.0,0.0,0.0,0.0,0.0,0.0,0.0,0.0,0.0,0.0,0.0,0.0,0.0,0.0,0.0,0.0,0.0,0.0,0.0,0.0,0.0,0.0,0.0,0.0,0.0,0.0,0.0,0.0,0.0,0.0,0.0,0.0,0.0,0.0,0.0,0.0,0.0,0.0,0.0,0.0,0.0,0.0,4.6596,0.0,0.0,0.0,0.0,0.0,0.0,0.0,0.0,0.0,0.0,0.0,0.0,0.0,0.0,0.0,0.0,0.0,0.0,0.0,0.0,0.0,0.0,0.0,0.0,0.0,0.0,0.0,0.0,0.0,0.0,0.0,0.0,0.0,0.0,0.0,0.0,0.0,0.0,0.0,0.0,6.401,7.5241,8.2571,8.2074,8.0856,7.9454,7.7972,7.5604,7.2156,6.7502,6.2221,0.0,0.0,0.0,0.0,0.0,0.0,0.0,0.0,0.0,0.0,0.0,0.0,0.0,0.0,0.0,0.0,0.0,0.0,0.0,0.0,0.0,0.0,0.0,0.0,0.0,0.0,0.0,0.0,0.0,0.0,0.0,0.0,0.0,0.0,0.0,0.0,0.0,0.0,0.0,0.0,0.0,0.0,0.0,0.0,0.0,0.0,0.0,0.0,0.0,0.0,0.0,0.0,0.0,5.5894,5.6576,5.577,5.7091,6.0645,6.5274,5.8869,5.7423,5.8999,0.0,0.0,0.0,0.0,0.0,0.0,0.0,0.0,0.0,0.0,0.0,0.0,0.0,0.0,0.0,0.0,0.0,0.0,0.0,0.0,0.0,0.0,0.0,0.0,0.0,6.2829,6.3637,0.0,0.0,0.0,0.0,0.0,0.0,0.0,0.0,0.0,0.0,0.0,0.0,6.6804,7.6836,8.3013,8.1845,8.0341,7.8749,7.6955,7.466,7.2882,7.1966,6.5,6.0165,0.0,0.0,0.0,0.0,0.0,0.0,0.0,0.0,0.0,0.0,0.0,0.0,0.0,0.0,0.0,0.0,0.0,0.0,0.0,0.0,0.0,0.0,0.0,0.0,0.0,0.0,0.0,0.0,0.0,0.0,0.0,0.0,4.2244,4.2454,0.0,0.0,0.0,0.0,0.0,0.0,0.0,0.0,0.0,0.0,0.0,0.0,0.0,5.2154,5.3211,5.9409,6.2254,6.1764,6.8043,7.0982,7.0884,7.172,7.3009,7.4401,7.3322,0.0,6.3566,6.1187,0.0,0.0,0.0,0.0,0.0,0.0,0.0,0.0,0.0,0.0,0.0,0.0,0.0,0.0,0.0,0.0,0.0,0.0,0.0,0.0,0.0,0.0,7.0543,7.2973,7.45,7.494,0.0,6.2542,5.2627,5.0734,0.0,0.0,0.0,0.0,0.0,0.0,0.0,0.0,7.0493,7.8754,8.3282,8.148,8.0276,7.9486,7.9173,7.677,7.4994,7.4221,7.2063,6.8271,6.2541,5.939,0.0,0.0,0.0,0.0,0.0,0.0,0.0,0.0,0.0,0.0,0.0,0.0,0.0,0.0,0.0,0.0,0.0,0.0,0.0,0.0,0.0,0.0,0.0,0.0,0.0,0.0,0.0,0.0,0.0,3.9579,4.2685,4.3568,4.1196,3.7852,0.0,0.0,0.0,0.0,0.0,0.0,0.0,0.0,0.0,5.863,6.0097,6.2119,6.4881,6.8855,7.0706,7.0526,7.402,7.5717,7.5722,7.6077,7.6709,7.7451,7.7003,7.5111,7.2,6.6669,6.1268,5.5969,0.0,0.0,0.0,0.0,0.0,5.3507,5.9047,6.1145,0.0,0.0,0.0,0.0,0.0,0.0,0.0,0.0,0.0,0.0,0.0,0.0,0.0,7.5572,7.6477,7.6315,7.596,7.0593,6.4582,0.0,5.807,5.4506,4.7202,0.0,0.0,0.0,0.0,0.0,7.3471,7.9364,8.2403,8.0524,7.9859,7.9362,7.8754,7.7252,7.6048,7.5303,7.3935,7.167,6.8457,6.3717,5.8434,0.0,0.0,0.0,0.0,0.0,0.0,0.0,0.0,0.0,0.0,0.0,0.0,0.0,0.0,0.0,0.0,0.0,0.0,0.0,0.0,0.0,0.0,0.0,0.0,0.0,0.0,0.0,0.0,4.3251,4.6104,4.615,4.6297,4.3784,0.0,0.0,0.0,0.0,0.0,0.0,5.625,5.7868,6.1283,6.6954,6.8465,7.0901,7.4608,7.6058,7.6617,7.6416,7.7687,7.8127,7.7942,7.8073,7.8471,7.9043,7.8106,7.7918,7.7863,7.1331,6.7481,6.5092,5.9864,5.7697,5.7727,6.0215,6.1133,6.2,6.8461,7.0468,6.9603,6.6253,0.0,6.2334,5.7061,0.0,0.0,0.0,0.0,6.3079,7.0551,0.0,7.2303,7.6408,7.676,7.6177,7.6177,7.5379,7.3407,0.0,6.6873,6.307,5.4963,0.0,0.0,0.0,0.0,7.3988,7.7095,8.0575,8.2182,8.0534,8.0324,7.9957,7.9179,7.828,7.7468,7.686,7.5315,7.403,7.3274,6.8421,6.42,6.0846,0.0,0.0,0.0,0.0,0.0,0.0,0.0,0.0,0.0,0.0,0.0,0.0,0.0,0.0,0.0,0.0,0.0,0.0,0.0,0.0,0.0,0.0,0.0,0.0,0.0,0.0,0.0,0.0,0.0,5.3644,5.7231,0.0,0.0,0.0,0.0,5.2445,5.447,5.8445,6.4728,6.5833,6.9092,7.533,7.5549,7.6115,7.7127,7.8018,7.8092,7.7289,7.9674,8.0409,7.9703,8.0117,8.0369,8.0365,7.9192,7.8329,7.7685,7.7004,7.3971,6.9743,6.9428,6.6507,6.2997,6.7768,6.9482,7.0111,7.4298,7.622,7.6078,7.135,6.673,6.3409,6.6093,6.4738,0.0,0.0,7.0029,7.1875,7.7421,7.8278,7.7784,7.854,7.816,7.7614,7.7614,7.4627,7.2852,0.0,7.6621,7.516,7.0851,0.0,7.1253,7.3067,7.4466,7.7048,8.1909,8.34,8.3543,8.2356,8.2282,8.2269,8.2205,8.0851,8.004,7.9972,7.7942,7.6386,7.5574,7.3917,7.014,6.4118,6.0809,0.0,0.0,0.0,0.0,0.0,0.0,0.0,0.0,0.0,0.0,0.0,0.0,0.0,0.0,0.0,0.0,0.0,0.0,0.0,0.0,0.0,0.0,0.0,0.0,0.0,0.0,0.0,0.0,5.5857,5.9147,0.0,5.4105,5.7631,6.0746,6.1867,6.579,6.9385,7.227,7.2621,7.4072,7.6787,7.7453,7.8136,7.8919,7.9713,7.9965,7.9674,8.1092,8.1227,8.0298,8.0479,8.0219,7.9513,7.9118,7.8806,7.8522,7.8419,7.6863,7.4352,7.3344,7.2665,7.2439,7.4755,7.5543,7.586,7.7787,7.8312,7.7694,7.4872,7.2473,7.0778,7.1778,7.1922,7.216,7.373,7.512,7.6694,7.9096,7.9507,7.9169,7.8682,7.8436,7.8227,7.8227,7.7068,7.6786,7.9308,7.7493,7.4627,7.1757,7.6041,7.8439,7.4204,7.8059,8.1796,8.2801,8.3007,8.2866,8.2446,8.2395,8.2395,8.2395,8.1921,8.119,8.0242,7.9431,7.8483,7.721,7.5236,7.2971,7.0219,6.8274,6.1949,0.0,0.0,0.0,0.0,0.0,0.0,0.0,0.0,0.0,0.0,0.0,0.0,0.0,0.0,0.0,0.0,0.0,0.0,0.0,0.0,0.0,0.0,0.0,0.0,0.0,0.0,6.1971,5.8349,6.3202,6.4956,6.0041,6.4954,6.8974,7.0283,7.3738,7.6054,7.6888,7.6831,7.7149,7.7944,7.8592,7.9226,7.9875,8.1147,8.1636,8.1267,8.236,8.2361,8.1351,8.1123,8.0627,7.9958,7.9589,7.9252,7.901,7.8737,7.8349,7.772,7.6629,7.6962,7.8197,7.9357,7.9837,7.982,8.0146,7.9404,7.8313,7.7246,7.6512,7.5919,7.5484,7.6488,7.7872,7.7635,7.8786,8.0046,8.0523,8.0427,8.0028,7.9247,7.89,7.8821,7.9186,7.881,7.8922,8.0869,7.9122,7.6973,7.583,8.0499,8.2601,7.7119,8.0799,8.362,8.2243,8.247,8.2746,8.2746,8.2746,8.2746,8.2746,8.1177,8.0378,8.0919,7.9498,7.8686,7.8766,7.5845,7.368,7.2406,7.0548,6.4522,5.4198,0.0,0.0,0.0,0.0,0.0,0.0,0.0,0.0,0.0,0.0,0.0,0.0,0.0,0.0,0.0,0.0,0.0,0.0,0.0,0.0,0.0,0.0,0.0,5.7209,6.1984,6.4759,6.1793,7.0109,7.4035,6.8808,7.3046,7.6512,7.7362,7.7369,7.7704,7.8621,7.8377,7.8522,7.9414,7.9432,7.9677,8.0146,8.2239,8.2802,8.1668,8.3241,8.3613,8.2749,8.214,8.1791,8.1749,8.058,7.9741,7.9009,7.8267,7.8625,7.952,7.9419,7.9397,7.9667,8.1474,8.2152,8.2052,8.1268,7.9796,7.8272,7.8532,7.8443,7.8032,7.7225,7.8398,8.0015,7.9989,8.1116,8.221,8.1852,8.1285,8.0648,8.026,7.9634,7.9371,8.0501,7.9325,7.8692,8.083,8.2114,8.3117,8.3867,8.4093,8.3755,8.2584,8.2804,0.0,8.0487,8.2137,8.3422,8.3355,8.3355,8.3355,8.3355,7.8686,7.7671,8.2056,7.828,7.7198,8.0107,7.5924,7.2609,7.0375,6.7284,6.3702,5.9706,0.0,0.0,0.0,0.0,0.0,0.0,0.0,0.0,0.0,0.0,0.0,0.0,0.0,0.0,0.0,0.0,0.0,0.0,0.0,0.0,0.0,0.0,6.4782,6.2599,6.7954,7.1704,7.0868,7.3254,7.4802,7.4477,7.5983,7.7798,7.9858,7.8727,7.8574,7.9906,7.862,7.8484,7.9764,7.9851,8.0162,8.0886,8.1489,8.1651,8.1362,8.1812,8.1436,8.0473,8.0283,7.9777,7.9063,7.8745,7.8502,7.828,7.8089,7.8164,7.8454,7.8675,7.9572,8.078,8.1292,8.1471,8.1344,8.0569,7.9937,7.9393,7.8931,7.8722,7.8581,7.8119,7.9119,8.0396,8.0191,8.1246,8.22,8.1604,8.1313,8.0817,7.9709,7.9215,7.9179,7.9481,7.9137,7.9167,8.0283,8.1436,8.2167,8.2038,8.3432,8.3858,8.1526,8.2755,0.0,8.1245,8.2002,8.2056,8.05,8.0297,8.0297,8.0297,7.9012,7.916,8.1473,8.0458,7.9917,8.0175,7.7468,7.5168,7.3409,6.8148,6.4581,0.0,0.0,0.0,0.0,0.0,0.0,0.0,0.0,0.0,0.0,0.0,0.0,0.0,0.0,0.0,0.0,0.0,0.0,0.0,0.0,0.0,0.0,6.6486,7.0434,7.0232,7.3021,7.5131,7.5344,7.5388,7.5907,7.7142,7.7442,7.8274,8.0017,7.909,7.8988,8.0233,7.9159,7.8907,7.9818,7.983,7.998,8.0329,8.127,8.1637,8.1467,8.1497,8.116,8.0547,8.0092,7.9501,0.0,7.8933,7.8912,7.8939,7.8902,7.8951,0.0,0.0,0.0,0.0,0.0,8.1439,8.0992,8.0654,8.0243,7.9818,7.9812,7.9503,7.9117,7.8977,7.9647,8.0435,8.0247,8.1054,8.1866,8.1405,8.1067,8.0593,7.9769,7.9553,7.9716,8.0134,7.9883,7.9796,8.0773,0.0,0.0,8.0823,8.2351,8.2835,8.0615,8.1532,8.1914,8.0165,8.1122,8.146,8.0175,8.004,8.004,8.004,7.828,0.0,0.0,0.0,7.8619,7.7862,7.6318,0.0,0.0,0.0,0.0,0.0,0.0,0.0,0.0,6.1378,6.0892,0.0,0.0,0.0,0.0,0.0,0.0,0.0,0.0,0.0,0.0,0.0,0.0,0.0,0.0,0.0,0.0,7.2612,7.6487,7.7819,7.6841,7.6122,7.6525,7.6678,7.698,7.7808,7.7968,7.8382,7.9079,7.9038,7.9299,8.0034,0.0,0.0,0.0,0.0,7.9541,7.9217,8.1181,8.2023,8.1804,8.1817,8.1842,8.1893,8.0893,8.0441,8.0441,8.0441,8.0428,8.0335,8.0335,8.0335,8.0268,7.9816,8.0082,8.0881,8.1787,8.1533,8.0788,8.0986,0.0,0.0,8.0761,8.0474,7.9679,7.9673,7.9992,8.0355,8.0314,8.0864,8.1405,8.1338,8.0796,8.031,8.0242,8.0175,8.0501,8.1463,8.0951,8.0594,8.1625,8.1063,8.0445,8.0445,8.1153,8.1296,8.0064,8.0046,7.9769,7.8496,7.9984,8.1067,8.0796,0.0,0.0,8.0796,7.713,7.6657,8.0932,7.8077,7.5912,7.5156,7.4492,7.3544,7.218,7.1447,7.2406,7.5089,7.4424,7.5575,7.7996,6.5732,6.4224,0.0,0.0,0.0,0.0,0.0,0.0,0.0,0.0,0.0,0.0,0.0,0.0,0.0,0.0,0.0,6.991,7.4543,7.7689,7.7503,7.7222,7.7019,7.71,7.7159,7.7459,7.8267,7.9108,7.9887,8.0696,7.9931,7.9812,8.0496,7.9706,7.9451,8.0063,8.0063,8.0031,7.9967,8.0427,8.0909,8.1441,0.0,0.0,8.2322,8.2067,8.1974,8.1974,8.1974,8.1613,8.108,8.108,8.108,8.0986,8.0348,8.0175,8.0348,8.0534,8.0521,8.0335,8.0361,8.0255,8.0102,8.0328,8.0229,8.0069,8.005,8.0549,0.0,8.1122,8.1596,8.2069,8.1473,8.1202,8.0932,8.031,8.0175,8.025,8.0513,8.0838,8.1144,8.1341,8.1707,8.1989,8.1989,8.1203,8.0631,8.0903,8.0554,8.031,8.0593,8.0526,7.9701,7.7942,7.7739,7.7739,7.7739,7.6927,7.7604,8.0242,7.9701,7.9025,7.8268,7.8065,7.7862,7.7592,7.686,7.7075,7.82,7.8065,7.928,8.1488,7.6998,7.7433,0.0,0.0,0.0,0.0,0.0,0.0,0.0,0.0,0.0,0.0,0.0,5.6801,0.0,0.0,6.9199,7.4165,7.6865,7.8308,7.8453,7.8018,7.7501,7.7135,7.7123,7.742,7.814,7.8718,7.9325,8.0097,7.968,7.9679,8.0432,7.9902,7.9837,8.0175,8.0581,8.0771,8.0733,8.1096,8.1518,8.1836,8.1885,8.2024,8.2429,8.2433,8.2373,8.239,8.2427,8.1953,8.127,8.1304,8.1054,8.0778,8.1138,8.1274,8.1241,8.0441,8.0441,8.0707,8.0348,8.0175,8.0175,8.0175,8.0175,8.0297,8.0678,8.1029,8.1393,8.1734,8.2085,8.2327,8.1934,8.185,8.174,8.1405,8.1296,8.1321,8.1338,8.1596,8.1866,8.1866,8.2137,8.2395,8.2395,8.1786,8.146,8.1799,8.1528,8.146,8.1799,8.1528,8.0919,7.9756,7.9295,7.9228,7.9634,7.9295,7.9431,8.0175,8.0175,8.004,7.9701,7.9634,7.9634,7.9634,7.8957,7.8742,7.908,7.8754,7.9638,8.1614,8.1906,8.3598,0.0,0.0,0.0,0.0,0.0,0.0,0.0,5.0999,5.3025,5.763,5.9791,6.2725,6.9069,7.0152,7.2115,7.8248,7.8753,7.8692,7.9373,7.8789,7.801,7.7401,7.7333,7.7536,7.8157,7.836,7.8686,7.9283,7.9283,7.9634,8.0378,8.0416,8.0496,8.0619,8.1211,8.1431,8.1319,8.1869,8.2194,8.2171,8.2343,8.2408,8.2421,8.2571,8.2553,8.2365,8.2257,8.1845,8.128,8.1283,8.0933,8.0549,8.175,8.2397,8.2484,8.1135,8.0902,8.1241,8.078,8.0555,8.0462,8.0568,8.0648,8.0703,8.1341,8.1502,8.165,8.2251,8.2371,8.2395,8.2395,8.2392,8.2376,8.2421,8.2405,8.2376,8.2421,8.253,8.2598,8.2598,8.2733,8.28,8.28,8.28,8.28,8.2665,8.2462,8.2462,8.2598,8.2462,8.2395,8.2395,8.1866,8.1731,8.2327,8.1866,8.127,8.0648,8.0513,8.0378,8.0378,8.0242,8.0175,8.0175,7.9634,7.9283,7.9283,7.8889,7.9652,8.1639,8.3852,8.6055,4.4559,4.534,4.82,5.2756,5.3442,5.5923,0.0,6.6513,6.5033,6.9388,7.2053,7.4027,7.5361,7.6272,7.7524,8.0101,7.9379,7.8661,7.9111,7.9031,7.8945,7.8877,7.8877,7.8877,7.8945,7.9566,7.9972,8.004,8.0107,8.0378,8.1135,8.1152,8.1474,8.2143,8.2238,8.1974,8.1337,8.1374,8.1412,8.1412,8.2085,8.2428,8.2394,8.3079,8.3025,8.234,8.1685,8.1344,8.1275,8.1296,8.128,8.1176,8.1358,8.223,8.3266,8.2447,8.1753,8.1364,8.1985,8.175,8.1296,8.1937,8.2124,8.215,8.224,8.2269,8.2301,8.2386,8.2371,8.2395,8.2395,8.2408,8.2408,8.2395,8.2408,8.2408,8.2395,8.2881,8.3355,8.3355,8.3883,8.4343,8.4343,8.4343,8.4153,8.349,8.2813,8.2665,8.3287,8.2813,8.2395,8.2395,8.2327,8.2327,8.2395,8.2327,8.2259,8.2124,8.1541,8.1202,8.1202,8.0526,8.0175,8.0175,8.0107,8.0107,8.0107,8.0661,8.2098,8.433,8.4629,8.5798,5.6815,5.5901,5.57,6.1205,6.2022,6.2863,6.8539,6.8578,6.8734,7.328,7.4473,7.5162,7.6709,7.7146,7.7662,0.0,7.9343,7.9423,7.9154,7.9486,7.9769,7.9769,7.9769,7.9769,7.9769,8.039,8.0864,8.0864,8.0864,8.1135,8.1866,8.1131,8.0995,8.1731,8.177,8.1612,8.1312,8.2179,8.2553,8.2611,8.3363,8.3665,8.3725,8.4016,8.3955,8.361,8.2886,8.2581,8.2589,8.2589,8.2348,8.2027,8.2892,8.3326,8.3345,8.2206,8.2097,8.2558,8.2449,8.2199,8.2002,8.2304,8.2379,8.2498,8.2931,8.3011,8.3134,8.3573,8.3708,8.3667,8.3667,8.3667,8.3667,8.3667,8.3667,8.3667,8.3667,8.395,8.4153,8.4153,8.4411,8.4614,8.4614,8.4614,8.4492,8.4221,8.3883,8.3815,8.4086,8.3883,8.3545,8.3084,8.3409,8.3342,8.2462,8.2813,8.2881,8.2395,8.2137,8.1934,8.1934,8.165,8.1447,8.1447,8.1447,8.1447,8.1447,8.1799,8.2453,8.3424,8.4553,8.5527,6.2476,6.2261,6.2013,6.662,6.8494,6.9248,6.9853,7.0411,7.1748,7.4857,7.5173,7.5315,7.6894,7.7173,7.7536,7.8428,7.9363,7.9769,7.9418,7.9837,8.0175,8.0175,8.0378,8.0445,8.0242,8.0661,8.1067,8.127,8.1135,8.1338,8.2069,8.1071,8.0923,8.1853,8.1947,8.1892,8.1892,8.2963,8.3399,8.3195,8.3932,8.4216,8.4018,8.3986,8.4005,8.3978,8.3441,8.3185,8.3185,8.3185,8.2904,8.2543,8.3547,8.3803,8.3364,8.2285,8.2449,8.3146,8.2792,8.2579,8.2502,8.2885,8.3162,8.3389,8.3449,8.3811,8.4188,8.4532,8.4789,8.4978,8.5166,8.5072,8.4897,8.4897,8.4789,8.4614,8.4614,8.4614,8.4614,8.4614,8.4762,8.4965,8.4965,8.51,8.5222,8.5222,8.5222,8.5087,8.4681,8.4614,8.4424,8.3896,8.4289,8.4153,8.3071,8.3477,8.3558,8.3071,8.28,8.2665,8.2665,8.253,8.2395,8.2395,8.2395,8.2395,8.2395,8.2395,8.2589,8.2904,8.4301,8.4947,5.6073,6.0172,6.4606,6.7017,7.1582,7.5403,7.52,7.5723,7.6045,7.5164,7.6184,7.7168,7.6921,7.7493,7.8428,7.9904,7.9553,7.935,8.004,8.0175,8.0175,8.0175,8.0864,8.0999,0.0,8.0242,8.0513,8.127,8.0661,8.0593,8.127,8.1293,8.1953,8.3386,8.3407,8.3461,8.3461,8.3473,8.3163,8.2462,8.3182,8.3149,8.2449,8.25,8.2475,8.2489,8.2408,8.2408,8.2408,8.2408,8.2408,8.2408,8.2421,8.2864,8.3482,8.3456,8.2999,8.2543,8.32,8.2999,8.2636,8.4088,8.5085,8.545,8.3926,8.4546,8.5544,8.4802,8.5166,8.5964,8.6613,8.6329,8.5788,8.5788,8.5166,8.4614,8.4614,8.4614,8.4614,8.4614,8.5249,8.5736,8.5736,8.6332,8.6859,8.6859,8.6859,8.6318,8.4817,8.4614,8.4614,8.4546,8.4614,8.4546,8.4546,8.4546,8.4546,8.4546,8.3896,8.349,8.349,8.28,8.2395,8.2395,8.2395,8.2395,8.2395,8.2395,8.3006,8.402,8.4125,8.4149,6.1865,6.5114,6.8394,7.3362,7.5066,7.556,7.6035,7.5775,7.5708,7.6355,7.5625,7.5036,7.5916,7.6724,7.7401,7.7942,7.9025,7.9904,8.0175,8.0175,8.0175,8.0175,8.0445,0.0,0.0,0.0,0.0,8.1338,8.1067,8.1473,8.2691,8.1863,8.2008,8.348,8.3043,8.2777,8.2777,8.3233,8.3411,8.316,8.3844,8.4099,8.387,8.3872,8.3886,8.3886,8.3886,8.3886,8.3886,8.3886,8.3886,8.3886,8.3886,8.3994,8.4169,8.3711,8.3348,8.3267,8.395,8.4091,8.3913,8.4438,8.4802,8.4897,8.4357,8.4982,8.5724,8.5447,8.5953,8.6613,8.6847,8.6738,8.6508,8.6535,8.6304,8.6169,8.6142,8.6115,8.6115,8.6115,8.6318,8.6535,8.6535,8.6724,8.6927,8.6927,8.6927,8.6724,8.6183,8.6115,8.6115,8.6115,8.6115,8.6115,8.6115,8.6115,8.6115,8.6115,8.5912,8.552,8.506,8.4789,8.4437,8.387,8.3883,8.3883,8.3883,8.3883,8.4039,8.4412,8.4412,8.4698,6.5829,6.8522,7.0603,7.5745,7.6525,7.6084,7.6151,7.6134,7.6358,7.7377,7.557,7.4289,7.5506,7.6115,7.6589,7.686,7.8754,8.031,8.0593,8.0378,8.031,8.0581,8.0593,8.0661,0.0,0.0,0.0,8.1338,8.127,8.1702,8.2634,8.2075,8.2259,8.347,8.3075,8.2905,8.3174,8.3631,8.39,8.39,8.4357,8.4614,8.4614,8.4897,8.5059,8.5059,8.5059,8.5059,8.4991,8.4708,8.4614,8.4614,8.4614,8.4614,8.4533,8.4075,8.39,8.3912,8.4099,8.4185,8.4263,8.4519,8.4978,8.5342,8.4789,8.5522,8.6525,8.6277,8.6721,8.7377,8.7616,8.7494,8.7278,8.7293,8.7063,8.6928,8.6873,8.6927,8.6927,8.6927,8.713,8.7279,8.7279,8.7482,8.7685,8.7685,8.7685,8.7482,8.6995,8.6927,8.6927,8.6927,8.6927,8.6927,8.6927,8.6927,8.6927,8.6927,8.6927,8.667,8.6196,8.6196,8.5926,8.5425,8.5439,8.5439,8.5439,8.5439,8.5439,8.5439,8.5439,8.5709,6.7806,7.0327,7.1615,7.4522,7.6305,7.7077,7.6038,7.6939,7.7954,7.7819,7.598,7.4615,7.5168,7.5371,7.5777,7.6521,7.8686,8.0526,8.1202,8.0729,8.0526,0.0,0.0,0.0,0.0,0.0,0.0,8.1405,0.0,8.1347,8.1444,8.2105,8.2789,8.3504,8.3582,8.39,8.4614,8.4614,8.46,8.4641,8.4641,8.4668,8.4721,8.5518,8.5856,8.5883,8.5883,8.5842,8.5788,8.5059,8.4708,8.4708,8.4708,8.4708,8.4708,8.4708,8.4627,8.4533,8.3806,8.3536,8.3711,8.4452,8.5693,8.6586,8.5113,8.6262,8.7864,8.7138,8.7498,8.8234,8.8942,8.8588,8.8057,8.8057,8.7545,8.6992,8.7035,8.6995,8.6995,8.6995,8.755,8.8023,8.8023,8.8646,8.912,8.912,8.912,8.8578,8.7198,8.6995,8.6995,8.6995,8.6995,8.6995,8.6995,8.6995,8.6995,8.6995,8.6995,8.6995,8.6927,8.6927,8.6927,8.6927,8.6927,8.6927,8.6927,8.6927,8.6927,8.6927,8.6927,8.6927,7.0922,7.3754,7.6024,7.7962,7.8121,7.7788,7.7486,7.7751,7.7345,7.5112,7.3341,7.1503,6.9474,7.1379,7.3274,7.3477,7.7751,8.1067,8.127,8.1135,0.0,8.127,0.0,8.0593,8.0999,8.1338,0.0,0.0,8.2137,8.2353,8.2879,8.3105,8.3551,8.4297,8.4302,8.4438,8.4614,8.4614,8.4885,8.5512,8.5512,8.5802,8.6329,8.6518,8.6657,8.661,8.661,8.6656,8.6599,8.641,8.6329,8.6329,8.6329,8.6329,8.6247,8.5707,8.5518,8.5355,8.4614,8.4344,8.4533,8.5882,8.6234,8.6114,8.6288,8.7072,8.7928,8.7759,8.8234,8.8861,8.9038,8.8956,8.8847,8.8847,8.8658,8.8537,8.8564,8.8511,8.8511,8.8511,8.8714,8.8849,8.8849,8.8984,8.912,8.912,8.912,8.8984,8.8578,8.8511,8.8511,8.8511,8.8511,8.8511,8.8511,8.8511,8.8511,8.8511,8.8511,8.8294,8.7753,8.7753,8.7482,8.6927,8.6927,8.6927,8.6927,8.6927,8.6927,8.6927,8.6927,8.7198,7.3156,7.5571,7.7376,7.8576,7.8669,7.8077,7.6398,7.6263,7.5439,7.1797,6.962,6.785,6.6159,6.8876,7.1661,7.2259,7.7413,8.1541,8.215,8.1676,8.1405,0.0,8.1122,0.0,8.127,8.1879,8.2421,0.0,8.2881,8.3084,8.3462,8.3798,8.4192,8.4627,8.4978,8.5261,8.5612,8.5612,8.5871,8.6248,8.6267,8.6513,8.6887,8.724,8.7387,8.7416,0.0,8.7709,8.7403,8.7403,8.7403,8.7335,8.705,8.7131,8.7321,8.6521,8.6508,8.6776,8.6599,8.6599,8.6505,8.6058,8.6304,8.6778,8.6864,8.7607,8.8492,8.8492,8.8779,8.912,8.912,8.912,8.912,8.912,8.912,8.912,8.912,8.912,8.912,8.912,8.912,8.912,8.912,8.912,8.912,8.912,8.912,8.9187,8.9512,8.9323,8.9187,8.9512,8.9579,8.9715,9.0067,8.9796,8.9579,8.9579,8.9255,8.8917,8.8511,8.8511,8.8294,8.7888,8.7888,8.7888,8.7888,8.7888,8.7888,8.7888,8.7888,8.8091,7.4897,7.6521,7.7266,7.809,7.8754,7.8268,7.4492,7.4086,7.3059,6.8064,6.5493,6.4072,6.3666,6.6857,7.0172,7.1988,7.7278,8.1676,8.3287,8.2285,8.1744,8.2475,8.1799,8.1405,8.1541,8.2759,8.3558,8.3625,8.3761,8.3787,8.3623,8.4248,8.4627,8.4789,8.5492,8.6236,8.6873,8.6873,8.6954,8.7035,8.7086,8.713,8.7226,8.7866,8.8138,8.822,0.0,0.0,8.8309,8.8436,8.8411,8.8383,8.763,8.7753,8.8329,8.7498,8.7672,8.8366,8.8939,8.9171,8.8844,8.629,8.6751,8.821,8.7635,8.8397,8.9393,8.9393,8.9393,8.9393,8.9297,8.9229,8.9215,8.9134,8.912,8.912,8.912,8.912,8.912,8.912,8.912,8.912,8.912,8.912,8.912,8.9255,8.9255,8.9526,9.0256,8.9715,8.9526,9.0256,9.0324,9.0594,9.1271,9.0729,9.0324,9.0324,8.9729,8.939,8.939,8.939,8.9323,8.9255,8.9255,8.9187,8.912,8.912,8.912,8.912,8.912,8.912,7.7075,7.7684,7.8157,7.9498,7.9904,7.9025,7.5303,7.4018,7.1526,6.4005,6.211,6.1095,5.8583,6.2729,6.7601,7.0962,7.6521,8.1122,8.3219,8.2746,8.2475,8.3219,8.215,8.1744,8.303,8.3355,0.0,0.0,8.5046,8.5127,8.4437,8.4559,8.4897,8.5599,8.6289,8.6757,8.6933,8.6933,8.7219,8.7831,8.7773,8.8138,8.8697,8.8861,8.8942,8.8956,8.968,0.0,8.9849,9.0505,9.0747,9.0663,8.9918,9.0105,9.0569,8.9215,8.915,8.9724,8.9245,8.949,8.999,9.0103,8.9976,8.9893,9.0369,9.0747,9.0925,9.0925,9.0925,9.0761,9.0199,9.0022,8.9858,8.9229,8.912,8.912,8.912,8.912,8.912,8.912,8.912,8.912,8.912,8.912,8.9323,8.9918,8.9985,9.0256,9.1,9.0459,9.0324,9.1,9.1135,9.1135,9.1271,9.1203,9.1135,9.1135,9.1,9.0947,9.0947,9.0947,9.0594,9.0039,8.9985,8.9715,8.912,8.912,8.912,8.912,8.912,8.912,7.8145,7.8551,7.8822,7.9904,8.0513,7.9105,7.2597,7.0838,6.8142,5.9607,5.778,5.7509,5.6418,6.1095,6.6102,6.9068,7.5224,8.0242,8.2082,8.3003,8.3545,8.349,8.3219,8.3152,8.349,8.3828,8.4356,8.5182,8.5601,8.5669,8.5249,8.5559,8.6182,8.6941,8.73,8.7675,8.8042,8.8042,8.8234,8.8588,8.8588,8.8765,8.912,8.912,8.9311,8.968,9.0473,0.0,9.0819,9.1575,9.1874,9.1816,9.1062,9.0963,9.1225,9.0523,9.0433,9.0799,9.0772,9.1325,9.2032,9.2348,9.1721,9.0756,9.074,9.0982,9.1324,9.1324,9.1324,9.1228,9.0871,9.0804,9.0691,9.0341,9.027,9.027,9.027,9.027,9.027,9.027,9.027,9.027,9.027,9.027,9.0338,9.0729,9.0797,9.1068,9.1798,9.1595,9.1459,9.1798,9.1865,9.2015,9.2435,9.2083,9.1865,9.1865,9.1541,9.1271,9.1271,9.1271,9.1135,9.0797,9.0797,9.0594,9.027,9.027,9.027,9.027,8.985,8.9647,7.8877,7.935,7.9553,8.0445,8.0999,7.8969,7.0161,6.7793,6.4884,5.5962,5.4135,5.4406,5.5268,5.98,6.441,6.7658,7.3544,7.8551,8.0932,8.2949,8.4018,8.3761,8.4221,8.4343,8.3828,8.4424,0.0,8.5736,8.6088,8.6224,8.6075,8.6711,8.7403,8.7989,8.8315,8.8683,8.912,8.9229,8.9229,8.912,8.912,8.912,8.912,8.912,8.9407,9.0022,9.0714,0.0,0.0,9.2122,9.2495,9.2592,9.1861,9.1629,9.1792,9.159,9.1613,9.1876,9.2495,9.3048,9.3586,9.3586,9.2771,9.1683,9.1132,9.1325,9.1779,9.1779,9.1779,9.1765,9.1586,9.1551,9.1517,9.1367,9.1324,9.1271,9.1271,9.1271,9.1271,9.1271,9.1271,9.1271,9.1271,9.1271,9.1338,9.1541,9.1541,9.1812,9.2542,9.2677,9.2677,9.2677,9.2677,9.288,9.3518,9.303,9.2677,9.2677,9.2083,9.1812,9.1812,9.1812,9.1677,9.1541,9.1541,9.1474,9.1271,9.1271,9.1271,9.1271,9.0729,9.0459,7.9498,8.0107,8.0445,8.1866,8.1731,7.9172,7.0838,6.7398,6.3348,5.4423,5.2579,5.2976,5.4406,5.7374,6.1627,6.7929,7.1244,7.4965,8.0526,8.2069,8.3071,8.4343,8.4546,8.4546,8.4478,8.5249,8.5736,8.5804,8.7063,8.7537,8.6792,8.7525,8.7944,8.7975,8.9311,8.968,8.912,8.9762,8.9762,8.912,8.912,8.912,8.912,8.912,8.9134,8.9255,8.9971,0.0,0.0,9.2122,9.2854,9.3406,9.2592,9.2748,9.3282,9.2561,9.2743,9.3406,9.3489,9.3571,9.3586,9.3586,9.3489,9.3392,9.3309,9.3324,9.3406,9.3406,9.3406,9.3227,9.2495,9.2293,9.2149,9.1488,9.132,9.1271,9.1271,9.1271,9.1271,9.1271,9.1271,9.1271,9.1271,9.1271,9.1541,9.2203,9.2324,9.2609,9.3383,9.3518,9.3518,9.3518,9.3518,9.3518,9.3586,9.3518,9.3518,9.3518,9.3451,9.3383,9.3383,9.3383,9.303,9.2339,9.2324,9.2,9.1271,9.1271,9.1271,9.1271,9.1203,9.1203,8.012,8.0864,8.1135,8.2124,8.0851,7.7413,7.0026,6.5628,6.1028,5.3797,5.1961,5.2224,5.4203,5.6639,6.008,6.5493,6.9022,7.2541,7.6657,8.0581,8.2949,8.2678,8.4627,8.5777,8.5384,8.5601,8.6156,8.7063,8.8079,8.8539,8.8226,8.8949,8.9315,8.9325,9.0309,9.0725,9.0414,9.0273,9.0036,8.9762,8.9311,8.912,8.912,8.912,8.9325,8.9748,9.0064,0.0,0.0,9.229,9.2868,9.3586,9.3227,9.3033,9.2912,9.3045,9.3026,9.2951,9.3406,9.3586,9.3586,9.3586,9.3586,9.3586,9.3586,9.3586,9.3586,9.3586,9.3586,9.3503,9.3227,9.313,9.3062,9.2754,9.2662,9.2706,9.2706,9.2706,9.2706,9.2706,9.2706,9.2706,9.2706,9.2706,9.2759,9.3098,9.3098,9.3233,9.3586,9.3586,9.3586,9.3586,9.3586,9.3586,9.3586,9.3586,9.3586,9.3586,9.3586,9.3586,9.3586,9.3586,9.3451,9.3098,9.3098,9.2962,9.2706,9.2706,9.2706,9.2706,9.2218,9.1933,8.0052,8.127,8.1866,8.28,8.031,7.5992,6.9688,6.4265,5.9056,5.3441,5.1683,5.1818,5.3856,5.6097,5.8939,6.326,6.6721,7.024,7.4074,7.8606,8.1393,8.0999,8.3693,8.5384,8.4843,8.5574,8.6738,8.8228,8.8809,8.9215,8.9407,9.0118,9.0429,9.0227,9.094,9.1324,9.1325,9.1035,9.0643,9.0213,8.9666,8.9311,8.912,8.912,8.9489,9.0213,0.0,0.0,0.0,9.2382,9.2868,9.3586,9.3586,9.3227,9.2854,9.3406,9.3227,9.2854,9.3406,9.3586,9.3586,9.3586,9.3586,9.3586,9.3586,9.3586,9.3586,9.3586,9.3586,9.3586,9.3586,9.3586,9.3586,9.3586,9.3586,9.3586,9.3586,9.3586,9.3586,9.3586,9.3586,9.3586,9.3586,9.3586,9.3586,9.3586,9.3586,9.3586,9.3586,9.3586,9.3586,9.3586,9.3586,9.3586,9.3586,9.3586,9.3586,9.3586,9.3586,9.3586,9.3586,9.3586,9.3586,9.3586,9.3586,9.3586,9.3586,9.3586,9.3586,9.3586,9.303,9.2745,7.9025,8.1257,8.2733,8.4208,8.0703,7.5506,7.0297,6.3859,5.7762,5.3247,5.1683,5.1674,5.3247,5.5336,5.8051,6.1782,6.4285,6.7804,7.3736,7.598,7.7807,7.9972,8.1515,8.2462,8.2462,8.5166,8.7497,8.8998,8.912,0.0,9.0132,9.0925,9.094,9.0202,9.0901,9.1325,9.131,9.2055,9.1658,9.0213,9.0213,8.9844,8.912,8.912,8.9489,0.0,0.0,0.0,0.0,9.2382,9.2868,9.3586,9.3586,9.3586,9.3586,9.3586,9.3586,9.3586,9.3586,9.3586,9.3586,9.3586,9.3586,9.3586,9.3586,9.3586,9.3586,9.3586,9.3586,9.3586,9.3586,9.3586,9.3586,9.3586,9.3586,9.3586,9.3586,9.3586,9.3586,9.3586,9.3586,9.3586,9.3586,9.3586,9.3586,9.3586,9.3586,9.3586,9.3586,9.3586,9.3586,9.3586,9.3586,9.3586,9.3586,9.3586,9.3586,9.3586,9.3586,9.3586,9.3586,9.3586,9.3586,9.3586,9.3586,9.3586,9.3586,9.3586,9.3586,9.3586,9.3586,9.3586,7.395,7.598,7.6915,7.6374,7.3127,6.9011,6.5368,6.008,5.5277,5.2841,5.1683,5.1674,5.3239,5.4465,5.718,6.299,6.4894,6.7601,7.3071,7.7807,8.0568,8.0242,8.3761,8.64,8.6901,8.7823,8.8811,8.9776,8.9858,8.9748,8.9489,9.0177,9.0895,9.1707,9.2489,9.2592,9.2055,9.1779,9.1129,9.0187,8.9697,8.9311,8.912,8.912,0.0,0.0,0.0,0.0,0.0,9.2187,9.2868,9.3586,9.3586,9.3586,9.3586,9.3586,9.3586,9.3586,9.3586,9.3586,9.3586,9.3586,9.3586,9.3586,9.3586,9.3586,9.3586,9.3586,9.3586,9.3586,9.3586,9.3586,9.3586,9.3586,9.3586,9.3586,9.3586,9.3586,9.3586,9.3586,9.3586,9.3586,9.3586,9.3586,9.3586,9.3586,9.3586,9.3586,9.3586,9.3586,9.3586,9.3586,9.3586,9.3586,9.3586,9.3586,9.3586,9.3586,9.3586,9.3586,9.3586,9.3586,9.3586,9.3586,9.3586,9.3586,9.3586,9.3586,9.3586,9.3586,9.3586,9.3586,6.9079,7.1582,7.28,7.2124,6.873,6.5009,6.2864,5.8127,5.3923,5.2976,5.2156,5.2021,5.3239,5.4329,5.6562,6.1298,6.3406,6.6451,7.227,7.6792,7.9959,8.1257,8.4573,8.7213,8.8586,8.9195,8.9844,9.0569,9.0391,9.0237,9.0306,9.05,9.1289,9.2791,9.276,9.2771,9.2854,9.2421,9.1633,9.063,9.0177,8.9666,8.912,8.9393,0.0,0.0,0.0,0.0,0.0,9.2674,9.3145,9.3586,9.3586,9.3586,9.3586,9.3586,9.3586,9.3586,9.3586,9.3586,9.3586,9.3586,9.3765,9.4042,9.4319,9.4042,9.3586,9.3586,9.3586,9.3586,9.3586,9.3586,9.3586,9.3586,9.3586,9.3586,9.3586,9.3586,9.3586,9.3586,9.3586,9.3586,9.3586,9.3586,9.3586,9.3586,9.3586,9.3586,9.3586,9.3586,9.3586,9.3586,9.3586,9.3586,9.3586,9.3586,9.3586,9.3586,9.3586,9.3586,9.3586,9.3586,9.3586,9.3586,9.3586,9.3586,9.3586,9.3586,9.3586,9.3586,9.3586,9.3586,0.0,6.759,6.9631,7.015,6.6622,6.2844,6.2052,5.7509,0.0,5.3509,5.2833,5.257,5.3585,5.4794,5.6215,5.806,6.0767,6.4962,7.1718,7.4221,7.7456,8.3152,8.4492,8.5762,8.7971,8.9415,9.0499,9.1265,9.0649,9.0815,9.2187,9.1621,9.1993,9.3437,9.2097,9.2055,9.3489,9.3506,9.279,9.1279,9.1253,9.0487,8.9215,8.9844,0.0,0.0,0.0,0.0,0.0,9.3586,9.3586,9.3586,9.3586,9.3586,9.3586,9.3586,9.3586,9.3586,9.3586,9.3586,9.3586,9.3586,9.408,9.4741,9.5476,9.4785,9.3683,9.3683,9.3668,9.3586,9.3586,9.3586,9.3586,9.3586,9.3586,9.3586,9.3586,9.3586,9.3586,9.3586,9.3586,9.3586,9.3586,9.3586,9.3586,9.3586,9.3586,9.3586,9.3586,9.3586,9.3586,9.3586,9.3586,9.3586,9.3586,9.3586,9.3586,9.3586,9.3586,9.3586,9.3586,9.3586,9.3586,9.3586,9.3586,9.3586,9.3586,9.3586,9.3586,9.3586,9.3586,9.3586,5.5268,0.0,6.211,6.0622,5.9259,5.8051,0.0,5.4938,5.3509,5.3509,5.2833,5.3044,5.5539,5.5412,5.663,6.211,6.4082,6.7263,7.395,7.9701,8.4112,8.6602,8.7617,8.8497,8.9565,8.9968,9.0476,9.1252,9.1141,9.0934,9.0736,9.1074,9.1691,9.2668,9.2352,9.2316,9.2674,9.2662,9.2227,9.1319,9.0736,9.0295,8.994,8.957,0.0,0.0,0.0,0.0,9.2757,9.3324,9.3586,9.3586,9.3586,9.3586,9.3586,9.3586,9.3586,9.3586,9.3586,9.3586,9.3586,9.3586,9.3702,9.3967,9.477,9.4692,9.4402,9.4402,9.4042,9.3586,9.3586,9.3586,9.3586,9.3586,9.3586,9.3586,9.3586,9.3586,9.3586,9.3586,9.3586,9.3586,9.3586,9.3586,9.3586,9.3586,9.3586,9.3586,9.3586,9.3586,9.3586,9.3586,9.3586,9.3586,9.3586,9.3586,9.3586,9.3586,9.3586,9.3586,9.3586,9.3586,9.3586,9.3586,9.3586,9.3586,9.3586,9.3586,9.3586,9.3586,9.3586,9.3586,5.1683,5.5133,5.8321,5.7103,5.6553,5.6147,5.5683,5.3983,5.263,5.3374,5.2833,5.3044,5.5344,5.6833,5.8727,6.2042,6.6045,7.0984,7.7345,8.2624,8.6481,8.8308,8.8849,8.9675,0.0,9.1194,9.1357,9.1794,9.1504,9.1284,9.1217,9.1618,9.2137,9.2951,9.2951,9.2951,9.2951,9.2951,9.2577,9.1794,9.1426,9.1036,9.0665,9.0651,9.0822,0.0,0.0,0.0,9.2965,9.3406,9.3586,9.3586,9.3586,9.3586,9.3586,9.3586,9.3586,9.3586,9.3586,9.3586,9.3668,9.396,9.4114,9.4219,9.5007,9.4984,9.4707,9.4711,9.4139,9.3586,9.3586,9.3586,9.3586,9.3586,9.3586,9.3586,9.3586,9.3586,9.3586,9.3586,9.3586,9.3586,9.3586,9.3586,9.3586,9.3586,9.3586,9.3586,9.3586,9.3586,9.3586,9.3586,9.3586,9.3586,9.3586,9.3586,9.3586,9.3586,9.3586,9.3586,9.3586,9.3586,9.3586,9.3586,9.3586,9.3586,9.3586,9.3586,9.3586,9.3586,9.3586,9.3586,5.1412,5.4591,5.7442,5.6359,5.5877,5.58,5.6224,5.3847,5.1945,5.3239,5.3044,5.3382,5.5691,5.893,6.1501,6.2042,6.8605,7.5586,8.1202,8.4586,8.7157,8.9052,8.939,0.0,9.2064,9.23,9.2404,9.2419,9.18,9.1756,9.2331,9.2413,9.2771,9.3586,9.3586,9.3586,9.3586,9.3586,9.3227,9.2592,9.2495,9.2054,9.1509,9.1976,9.2319,0.0,0.0,0.0,9.3586,9.3586,9.3586,9.3586,9.3586,9.3586,9.3586,9.3586,9.3586,9.3586,9.3586,9.3586,9.3683,9.4304,9.4499,9.4664,9.5384,9.515,9.4553,9.469,9.4139,9.3586,9.3586,9.3586,9.3586,9.3586,9.3586,9.3586,9.3586,9.3586,9.3586,9.3586,9.3586,9.3586,9.3586,9.3586,9.3586,9.3586,9.3586,9.3586,9.3586,9.3586,9.3586,9.3586,9.3586,9.3586,9.3586,9.3586,9.3586,9.3586,9.3586,9.3586,9.3586,9.3586,9.3586,9.3586,9.3586,9.3586,9.3586,9.3586,9.3586,9.3586,9.3586,9.3586,5.3179,5.7721,6.0157,5.4397,5.4389,5.5395,5.4253,5.3577,5.3239,5.3441,5.3923,5.603,6.1975,6.211,6.3531,7.0308,7.5721,8.0445,8.4518,8.7685,8.9647,8.9985,9.0594,9.1125,9.1418,9.2034,9.2411,9.2406,9.2324,9.2315,9.2428,9.2413,9.2771,9.3586,9.3586,9.3586,9.3586,9.3586,9.3571,9.3406,9.2757,9.2322,9.2193,9.1724,9.1821,0.0,0.0,9.2951,9.3586,9.3586,9.3586,9.3586,9.3586,9.3586,9.3586,9.3586,9.3586,9.3586,9.3586,9.3586,9.3601,9.3751,9.3765,9.393,9.4664,9.4366,9.3918,9.4523,9.4139,9.3586,9.3586,9.3586,9.3586,9.3586,9.3586,9.3586,9.3586,9.3586,9.3586,9.3586,9.3586,9.3586,9.3586,9.3586,9.3586,9.3586,9.3586,9.3586,9.3586,9.3586,9.3586,9.3586,9.3586,9.3586,9.3586,9.3586,9.3586,9.3586,9.3586,9.3586,9.3586,9.3586,9.3586,9.3586,9.3586,9.3586,9.3586,9.3586,9.3586,9.3586,9.3586,9.3586,5.1082,5.4532,5.7442,5.6697,6.068,6.4671,6.4343,6.3057,6.1569,6.0361,6.0013,6.1163,6.5077,6.6914,7.0714,7.9363,8.1786,8.3612,8.6535,8.8497,8.9918,0.0,0.0,9.1638,9.244,9.2445,9.2386,9.2392,0.0,0.0,9.2413,9.2786,9.3227,9.3586,9.3586,9.3586,9.3586,9.3586,9.3586,9.3586,9.3227,9.3048,9.3048,9.2689,9.2757,9.3048,0.0,9.3227,9.3586,9.3586,9.3586,9.3586,9.3586,9.3586,9.3586,9.3586,9.3586,9.3586,9.3586,9.3586,9.3586,9.3586,9.3586,9.3668,9.4027,9.3863,9.3668,9.4027,9.3863,9.3586,9.3586,9.3586,9.3586,9.3586,9.3586,9.3586,9.3586,9.3924,9.4045,9.3654,9.3924,9.4045,9.3654,9.3586,9.3586,9.3586,9.3586,9.3586,9.3586,9.3924,9.418,9.418,9.418,9.418,9.418,9.3857,9.3586,9.3586,9.3586,9.3586,9.3586,9.3586,9.3586,9.3586,9.3586,9.3586,9.3586,9.3586,9.3586,9.3586,9.3586,9.3586,5.0533,5.3036,5.6418,6.0825,6.5358,6.9485,7.2338,7.0297,6.759,6.6924,6.6576,6.6914,6.8324,7.2462,7.7942,8.5168,8.5831,8.6278,8.8728,8.954,9.0352,9.1691,9.1826,9.23,9.3518,9.3048,9.2674,9.2674,0.0,0.0,9.2674,9.3309,9.3586,9.3586,9.3586,9.3586,9.3586,9.3586,9.3586,9.3586,9.3586,9.3586,9.3586,9.3586,9.3586,9.3586,9.3586,9.3586,9.3586,9.3586,9.3586,9.3586,9.3586,9.3586,9.3586,9.3586,9.3586,9.3586,9.3586,9.3586,9.3586,9.3586,9.3586,9.3586,9.3586,9.3586,9.3586,9.3586,9.3586,9.3586,9.3586,9.3586,9.3586,9.3586,9.3586,9.3586,9.3586,9.418,9.4518,9.3992,9.4451,9.4789,9.4195,9.4127,9.4127,9.4127,9.4127,9.4127,9.4127,9.4586,9.4992,9.4992,9.4992,9.4992,9.4992,9.4451,9.4127,9.4127,9.3789,9.3586,9.3586,9.3586,9.3586,9.3586,9.3586,9.3586,9.3586,9.3586,9.3586,9.3586,9.3586,9.3586,5.5141,5.8457,6.1772,6.6237,6.2584,6.0283,6.9406,6.7512,6.5009,6.9022,7.0917,7.2259,7.3803,7.8268,8.2395,8.4411,8.644,8.8789,9.171,0.0,9.2465,9.3315,9.3451,9.3451,9.3586,9.3571,9.3503,9.3503,0.0,0.0,9.3503,9.3586,9.3586,9.3586,9.3586,9.3586,9.3586,9.3586,9.3586,9.3586,9.3586,9.3586,9.3586,9.3586,9.3586,9.3586,9.3586,9.3586,9.3586,9.3586,9.3586,9.3586,9.3586,9.3586,9.3586,9.3586,9.3586,9.3586,9.3586,9.3586,9.3586,9.3586,9.3586,9.3586,9.3586,9.3586,9.3586,9.3586,9.3586,9.3586,9.3586,9.3586,9.3586,9.3586,9.3586,9.3586,9.3586,9.418,9.4706,9.4639,9.5195,9.5669,9.5669,9.5669,9.5669,9.5669,9.5669,9.5669,9.5669,9.5669,9.5736,9.5736,9.5736,9.5736,9.5736,9.5669,9.5669,9.5669,9.433,9.3586,9.3586,9.3586,9.3586,9.3586,9.3586,9.3586,9.3586,9.3586,9.3586,9.3586,9.3586,9.3586,5.2697,5.723,6.211,6.5639,6.5493,6.6643,7.4965,7.6386,7.6048,7.6318,7.7604,7.8686,7.8754,8.3422,8.713,8.6792,8.9001,9.1129,9.2247,9.2856,9.3262,9.3586,9.3586,9.3586,9.3586,9.3586,9.3586,0.0,0.0,0.0,9.3586,9.3586,9.3586,9.3586,9.3586,9.3586,9.3586,9.3586,9.3586,9.3586,9.3586,9.3586,9.3586,9.3586,9.3586,9.3586,9.3586,9.3586,9.3586,9.3586,9.3586,9.3586,9.3586,9.3586,9.3586,9.3586,9.3586,9.3586,9.3586,9.3586,9.3586,9.3586,9.3586,9.3586,9.3586,9.3586,9.3392,9.2234,9.2757,9.3586,9.3586,9.3586,9.3586,9.3586,9.3586,9.3721,9.418,9.4857,9.5398,9.5398,9.6007,9.636,9.5872,9.5804,9.5804,9.5804,9.5804,9.5804,9.5804,9.6225,9.6496,9.6496,9.6496,9.6293,9.5804,9.5804,9.5804,9.5804,9.5278,9.5007,9.5007,9.5007,9.5007,9.5007,9.5007,9.5007,9.5007,9.5007,9.5007,9.5007,9.5007,9.5007,5.46,5.866,6.3541,6.7263,6.8616,7.1041,7.8483,8.0851,8.1596,8.2205,8.2733,8.3071,8.3084,8.6399,8.8956,8.8429,9.0594,9.2489,9.2745,9.3233,9.3586,9.3586,9.3586,9.3586,9.3586,9.3586,9.3586,0.0,0.0,0.0,0.0,9.3586,9.3586,9.3586,9.3586,9.3586,9.3586,9.3586,9.3586,9.3586,9.3586,9.3586,9.3586,9.3586,9.3586,9.3586,9.3586,9.3586,9.3586,9.3586,9.3586,9.3586,9.3586,9.3586,9.3586,9.3586,9.3586,9.3586,9.3586,9.3586,9.3586,9.3586,9.3586,9.3586,9.3586,9.3212,9.2495,9.1243,9.1812,9.2758,9.2737,9.3145,9.3586,9.3586,9.3586,9.3789,9.4503,9.5263,9.5872,9.609,9.6766,9.7105,9.6548,9.648,9.648,9.648,9.648,9.648,9.648,9.6969,9.724,9.724,9.724,9.7022,9.6548,9.648,9.648,9.648,9.648,9.6277,9.5804,9.5804,9.5804,9.5804,9.5804,9.5804,9.5804,9.5804,9.5804,9.5804,9.5804,9.5669,6.2323,6.4015,6.7003,7.2135,7.1312,7.1176,7.8551,7.8551,7.8889,8.5506,8.5696,8.5087,8.6656,8.6927,8.7414,8.8849,9.0975,9.2682,9.3518,9.3586,9.3586,9.3586,9.3586,9.3586,9.3586,9.3586,9.3586,0.0,0.0,0.0,0.0,9.3586,9.3586,9.3586,9.3586,9.3586,9.3586,9.3586,9.3586,9.3586,9.3586,9.3586,9.3586,9.3586,9.3586,9.3586,9.3586,9.3586,9.3586,9.3586,9.3586,9.3586,9.3586,9.3586,9.3586,9.3586,9.3586,9.3586,9.3586,9.3601,9.3601,9.3601,9.3601,9.3586,9.3586,9.2316,9.0871,9.0879,9.0899,9.0939,9.088,9.2234,9.3586,9.3586,9.3586,9.3789,9.4586,9.5263,9.6007,9.6766,9.7495,9.8021,9.8021,9.8021,9.8021,9.8021,9.8021,9.8021,9.8021,9.8021,9.8021,9.8021,9.8021,9.8021,9.8021,9.8021,9.8021,9.8021,9.8021,9.736,9.5872,9.5804,9.5804,9.5804,9.5804,9.5804,9.5804,9.5804,9.5804,9.5804,9.5804,9.5398,5.6292,6.2719,6.9474,6.8933,7.4897,8.0999,8.1596,8.1663,8.2881,8.7482,8.7279,8.6521,8.7482,8.897,8.9985,8.9918,9.1759,9.333,9.3586,9.3586,9.3586,9.3586,9.3586,9.3586,9.3586,9.3586,0.0,0.0,0.0,0.0,0.0,9.3586,9.3586,9.3586,9.3586,9.3586,9.3586,9.3586,9.3586,9.3586,9.3586,9.3586,9.3586,9.3586,9.3586,9.3586,9.3586,9.3586,9.3586,9.3586,9.3586,9.3586,9.3586,9.3586,9.3586,9.3586,9.3945,9.4387,9.4387,9.4679,9.5121,9.5121,9.4761,9.4125,9.2868,9.1765,9.0399,8.783,8.9288,9.1408,9.0122,9.2431,9.4872,9.3857,9.3586,9.3924,9.5195,9.5669,9.6142,9.7428,9.7834,9.8021,9.8021,9.8021,9.8021,9.8021,9.8021,9.8021,9.8021,9.8021,9.8021,9.8021,9.8021,9.8021,9.8021,9.8021,9.8021,9.8021,9.8021,9.7834,9.736,9.736,9.736,9.736,9.736,9.736,9.736,9.736,9.736,9.736,9.736,9.7225,6.3994,6.9609,7.475,7.6171,8.031,8.418,8.4911,8.5182,8.5993,8.8578,8.8634,8.8337,8.8811,9.0437,9.1589,9.1168,9.2479,9.3586,9.3586,9.3586,9.3586,9.3586,9.3586,9.3586,9.3586,9.3586,0.0,0.0,0.0,0.0,0.0,9.3586,9.3586,9.3586,9.3586,9.3586,9.3586,9.3918,9.4008,9.4008,9.4353,9.4466,9.4466,9.3857,9.3586,9.3601,9.393,9.4207,9.4484,9.4484,9.4484,9.4484,9.4484,9.4484,9.4484,9.4484,9.4761,9.5145,9.5119,9.5428,9.5789,9.5789,9.4985,9.3785,9.2392,9.0853,8.8991,8.6539,8.8471,9.1045,8.9955,9.2711,9.5473,9.4315,9.4263,9.4736,9.5601,9.5421,9.5494,9.6648,9.6289,9.6031,9.6722,9.6916,9.7137,9.7861,9.8021,9.8021,9.8021,9.8021,9.8021,9.8021,9.8021,9.8021,9.8021,9.8021,9.8021,9.8021,9.8021,9.8021,9.8021,9.8021,9.8021,9.8021,9.8021,9.8021,9.8021,9.8021,9.8021,9.8021,9.8021,9.7834,7.7997,7.9959,8.1054,8.8429,8.6075,8.3165,8.8105,8.8714,8.8429,8.912,8.9802,9.0253,9.0389,9.1475,9.241,9.2478,9.3147,9.3586,9.3586,9.3586,9.3586,9.3586,9.3586,9.3586,9.3586,9.3586,0.0,0.0,0.0,0.0,0.0,9.3586,9.3586,9.3586,9.3668,9.3668,9.3586,9.4399,9.4752,9.4744,9.5428,9.5804,9.5736,9.4398,9.3804,9.3848,9.4493,9.5169,9.5792,9.5792,9.5792,9.5792,9.5792,9.5792,9.5792,9.5792,9.5875,9.5922,9.5905,9.596,9.5975,9.5975,9.468,9.2941,9.2185,8.9824,8.7272,8.6553,8.8368,9.048,9.0504,9.3269,9.587,9.5097,9.533,9.5759,9.569,9.4853,9.4289,9.4815,9.3577,9.3006,9.4863,9.5161,9.5818,9.7721,9.8021,9.8021,9.8021,9.8021,9.8021,9.8021,9.8021,9.8021,9.8021,9.8021,9.8021,9.8021,9.8021,9.8021,9.8021,9.8021,9.8021,9.8021,9.8021,9.8021,9.8021,9.8021,9.8021,9.8021,9.8021,9.7631,6.6373,7.3624,8.1135,8.2272,8.4573,8.7144,8.9444,8.985,8.9918,9.0662,9.0487,9.053,9.171,9.2198,9.259,9.3238,9.348,9.3586,9.3586,9.3586,9.3586,9.3586,9.3586,9.3586,9.3586,9.3586,0.0,0.0,0.0,0.0,9.3586,9.3586,9.3586,9.3586,9.4139,9.4207,9.3586,9.4921,9.5278,0.0,9.5418,9.5796,9.5804,9.5466,9.5359,9.534,9.5465,9.5657,9.5823,9.5823,9.5823,9.5823,9.5823,9.5823,9.5823,9.5823,9.6184,9.6629,9.6663,9.7046,9.7507,9.7507,9.5862,9.3576,9.1999,8.9616,8.7173,8.6159,8.8848,9.2021,9.1985,9.5173,9.8094,9.6751,9.609,9.5522,9.4649,9.4269,9.386,9.3172,9.2692,9.3006,9.4863,9.5161,9.5818,9.7721,9.8021,9.8021,9.8021,9.8021,9.8021,9.8021,9.8021,9.8021,9.8021,9.8021,9.8021,9.8021,9.8021,9.8021,9.8021,9.8021,9.8021,9.8021,9.8021,9.8021,9.8021,9.8021,9.8021,9.8021,9.8021,9.7901,7.0026,7.5789,8.0458,8.3639,8.6481,8.8835,8.9903,9.0174,9.0512,9.1595,9.1556,9.1503,9.2276,9.2735,9.3141,9.3518,9.3586,9.3586,9.3586,9.3586,9.3586,9.3586,9.3586,9.3586,9.3586,9.3586,0.0,0.0,0.0,9.3945,9.3601,9.429,9.4484,9.4125,9.4844,9.5065,9.4669,9.5771,9.6142,9.5779,9.6506,9.6825,9.6819,9.6135,9.6014,9.6359,9.6353,9.6502,9.6865,9.6865,9.6865,9.6865,9.6865,9.7046,9.7394,9.7394,9.7855,9.8483,9.8483,9.8748,9.8847,9.759,9.5681,9.3372,9.1172,8.9134,8.7437,8.6812,8.9934,9.3472,9.3409,9.6218,9.8682,9.7034,9.604,9.5253,9.4336,9.2922,9.1705,9.1168,9.0281,9.0262,9.2152,9.4022,9.5818,9.7721,9.8021,9.8021,9.8021,9.8021,9.8021,9.8021,9.8021,9.8021,9.8021,9.8021,9.8021,9.8021,9.8021,9.8021,9.8021,9.8021,9.8021,9.8021,9.8021,9.8021,9.8021,9.8021,9.8021,9.8021,9.8021,9.8021,7.5236,7.8686,8.012,8.7496,8.9187,8.9323,9.0188,9.0391,9.0783,9.2136,9.2368,9.2465,9.2614,9.3127,9.3586,9.3586,9.3586,9.3586,9.3586,9.3586,9.3586,9.3586,9.3586,9.3586,9.3586,9.3586,0.0,0.0,0.0,9.4411,9.3791,9.5101,9.555,9.4927,9.5582,9.5909,9.5779,9.6685,9.7047,9.6948,9.7673,9.8021,9.7969,9.6722,9.6527,9.7062,9.7106,9.7447,9.8021,9.8021,9.8021,9.8021,9.8021,9.8384,9.8915,9.9025,9.9494,10.0025,10.0207,9.9957,9.9311,9.7047,9.4878,9.2717,9.0394,8.8832,8.788,8.8002,9.1225,9.4699,9.4641,9.6828,9.8531,9.6896,9.5401,9.4225,9.3474,9.1326,8.9387,8.911,8.8025,8.7754,8.9544,9.2825,9.5818,9.7721,9.8021,9.8021,9.8021,9.8021,9.8021,9.8021,9.8021,9.8021,9.8021,9.8021,9.8021,9.8021,9.8021,9.8021,9.8021,9.8021,9.8021,9.8021,9.8021,9.8021,9.8021,9.8021,9.8021,9.8021,9.8021,9.8021,6.4488,7.2326,8.1528,8.8361,8.9579,8.9458,9.0865,9.1135,9.1406,9.2203,9.2406,9.2624,9.3315,9.3518,9.3586,9.3586,9.3586,9.3586,9.3586,9.3586,9.3586,9.3586,9.3586,9.3586,9.3586,9.3586,0.0,0.0,9.4304,9.4654,9.458,9.5367,9.5745,9.5662,9.6353,9.646,9.5779,9.717,9.7532,9.6948,9.7673,9.8021,9.7969,9.7781,9.7781,9.7864,9.7843,9.7895,9.8021,9.8021,9.8021,9.8021,9.8021,9.8037,9.8209,9.8853,9.9164,9.9347,9.9978,9.9081,9.7524,9.6616,9.4243,9.1577,9.0661,8.9519,8.8706,8.9232,9.2362,9.5445,9.5334,9.6869,9.8266,9.7402,9.4058,9.095,9.0262,8.9792,8.9035,8.7386,8.8199,8.9556,9.0944,9.3396,9.5818,9.7721,9.8021,9.8021,9.8021,9.8021,9.8021,9.8021,9.8021,9.8021,9.8021,9.8021,9.8021,9.8021,9.8021,9.8021,9.8021,9.8021,9.8021,9.8021,9.8021,9.8021,9.8021,9.8021,9.8021,9.8021,9.8021,9.8021,6.6586,7.4571,8.2218,8.8105,8.9323,8.9458,9.0932,9.1271,9.1609,9.2827,9.3098,9.3165,9.3518,9.3586,9.3586,9.3586,9.3586,9.3586,9.3586,9.3586,9.3586,9.3586,9.3586,9.3586,9.3586,9.3586,0.0,0.0,9.4927,9.5315,9.5298,9.6389,9.6813,9.6436,9.7111,9.7326,9.7046,9.7673,9.7855,9.7507,9.7855,9.8021,9.8021,9.8021,9.8021,9.8021,9.8021,9.8021,9.8021,9.8021,9.8021,9.8021,9.8021,9.8218,9.8702,9.9442,9.927,9.8773,9.9138,9.8226,9.6514,9.3929,9.2657,9.1785,9.004,8.9413,8.9413,9.004,9.2251,9.4441,9.4435,9.5564,9.6374,9.4971,9.2813,9.0686,8.936,8.8741,8.8244,8.7436,8.7589,8.846,9.0045,9.1266,9.2645,9.4562,9.5736,9.6434,9.6434,9.7326,9.8021,9.8021,9.8021,9.8021,9.8021,9.8021,9.8021,9.8021,9.8021,9.8021,9.8021,9.8021,9.8021,9.8021,9.8021,9.8021,9.8021,9.8021,9.7766,9.7375,9.7834,9.7766,6.7939,7.4368,7.924,8.6007,8.7834,8.8564,9.1,9.1406,9.1744,9.3248,9.3586,9.3586,9.3586,9.3586,9.3586,9.3586,9.3586,9.3586,9.3586,9.3586,9.3586,9.3586,9.3586,9.3586,9.3586,9.3765,0.0,0.0,9.5591,9.6112,9.6089,9.7311,9.7756,9.7212,9.7689,9.8021,9.8021,9.8021,9.8021,9.8021,9.8021,9.8021,9.8021,9.8021,9.8021,9.8021,9.8021,9.812,9.8301,9.8301,9.84,9.8566,9.8317,9.8582,9.9112,9.9195,9.8655,9.7883,9.7827,9.6785,9.509,9.2099,9.1557,9.1689,8.9597,8.9413,9.004,9.0466,9.2063,9.361,9.361,9.4257,9.4617,9.3153,9.1924,9.0591,8.9037,8.8334,8.7915,8.7736,8.7317,8.751,8.9205,8.9481,9.017,9.2127,9.3612,9.4646,9.5112,9.6434,9.7503,9.7923,9.8021,9.8021,9.8021,9.8021,9.8021,9.8021,9.8021,9.8021,9.8021,9.8021,9.8021,9.8021,9.8021,9.8021,9.8021,9.8021,9.7698,9.7172,9.7766,9.7698,6.2719,6.6294,7.015,8.1054,8.4289,8.6169,9.1174,9.1798,9.1744,9.3248,9.3586,9.3586,9.3586,9.3586,9.3586,9.3586,9.3586,9.3586,9.3586,9.3586,9.3586,9.3586,9.3586,9.3586,9.3586,9.4222,0.0,0.0,9.6044,9.6828,9.685,9.759,9.7953,9.7938,9.7953,9.8021,9.8021,9.8021,9.8021,9.8021,9.8021,9.8021,9.8021,9.8021,9.8021,9.8021,9.8021,9.84,9.9029,9.9029,9.9476,10.0007,9.9309,9.9044,9.8862,9.7129,9.6474,9.635,9.5896,9.4438,9.2796,9.2528,9.1653,9.0585,8.9884,9.0061,9.0546,9.0567,9.2063,9.361,9.361,9.3669,9.3666,9.3568,9.1655,8.9575,8.8854,8.8654,8.8454,8.7796,8.7676,8.8033,8.9266,8.9481,9.017,9.2127,9.2499,9.3197,9.4946,9.531,9.5997,9.7799,9.8021,9.8021,9.8021,9.8021,9.8021,9.8021,9.8021,9.8021,9.8021,9.8021,9.8021,9.8021,9.8021,9.8021,9.8021,9.8021,9.7953,9.7969,9.7953,9.7953,6.0757,6.4603,6.8662,7.6521,8.119,8.4762,8.8077,9.0512,9.2286,9.3383,9.3586,9.3586,9.3586,9.3586,9.3586,9.3586,9.3586,9.3586,9.3586,9.3586,9.3586,9.3586,9.3586,9.3586,9.3586,9.4264,0.0,0.0,0.0,9.7129,9.759,9.7855,9.8021,9.8021,9.8021,9.8021,9.8021,9.8021,9.8021,9.8021,9.8021,9.8021,9.8021,9.8021,9.8021,9.8037,9.8499,9.8847,9.9081,9.9138,9.9234,9.95,9.9218,9.8089,9.6601,9.6865,9.5388,9.3271,9.3566,9.2611,9.1149,9.0369,9.0348,9.0456,8.9909,9.0107,9.0567,9.0567,9.1145,9.1638,9.1638,9.1638,9.1638,9.1638,9.0925,9.0229,8.9989,8.9591,8.9252,8.9013,8.8654,8.8456,8.8913,8.8627,8.8558,8.9314,9.1127,9.2657,9.3336,9.5507,9.7247,9.7907,9.8021,9.7834,9.7292,9.7308,9.7308,9.7308,9.7308,9.7495,9.7953,9.8021,9.8021,9.8021,9.7563,9.7308,9.7308,9.7308,9.7022,9.6616,9.7089,9.7022,5.7983,6.1559,6.5889,7.2868,7.686,8.0648,8.6941,8.9498,9.1256,9.3857,9.4127,9.3992,9.3992,9.3789,9.3586,9.3586,9.3586,9.3586,9.3586,9.3586,9.3586,9.3586,9.3586,9.3683,9.3945,9.4653,0.0,0.0,0.0,0.0,9.7953,9.8021,9.8021,9.8021,9.8021,9.8021,9.8021,9.8021,9.8021,9.8021,9.8021,9.8021,9.8021,9.8021,9.8135,9.8384,9.8218,9.8665,9.9414,9.9023,9.8872,9.8821,9.8147,9.6703,9.4973,9.5277,9.3723,9.1496,9.1597,9.1009,9.0162,8.9535,8.9762,9.0233,8.9812,8.983,8.9989,9.0229,9.0289,9.0348,9.0567,9.0567,9.0567,9.0567,9.0567,9.0567,9.0567,9.0289,9.001,9.001,8.9492,8.9013,8.9013,8.8474,8.8035,8.8035,8.979,9.1552,9.2599,9.4904,9.6746,9.7507,9.7083,9.6435,9.5696,9.5629,9.5763,9.5965,9.6543,9.724,9.7969,9.8021,9.7886,9.7631,9.7172,9.6631,9.6157,9.6428,9.6428,9.6157,9.6428,9.5801,0.0,0.0,0.0,6.9823,7.1052,7.3691,8.7563,8.87,8.8483,9.4383,9.5127,9.4639,9.4706,9.4112,9.3654,9.3654,9.3586,9.3586,9.3586,9.3586,9.3586,9.3586,9.3586,9.3863,9.4649,9.5389,0.0,0.0,9.759,9.8021,9.8021,9.8021,9.8021,9.8021,9.8021,9.8021,9.8021,9.8021,9.8021,9.8021,9.8021,9.8021,9.8021,9.8021,9.8384,9.893,9.7098,9.7716,9.9984,9.8828,9.8378,9.8297,9.6179,9.5009,9.4206,9.2232,9.1497,9.1277,9.0141,8.9737,8.9838,9.0424,9.0175,8.9719,8.9714,8.9273,8.8854,8.9512,8.9692,8.9851,9.0468,9.0567,9.0567,9.0567,9.0567,9.0567,9.0567,9.0567,9.0567,9.0567,9.013,8.9731,8.9731,8.9193,8.8714,8.8714,8.8754,8.9869,9.2923,9.3281,9.4203,9.6539,9.5189,9.3777,9.3086,9.3053,9.3365,9.4123,9.5887,9.724,9.7969,9.8021,9.7631,9.6902,9.6902,9.6157,9.4706,9.5466,9.6157,9.6834,9.6097,9.4365,5.3856,0.0,0.0,0.0,0.0,0.0,7.6115,8.119,8.552,8.9376,9.2165,9.4045,9.4571,9.4518,9.4383,9.4383,9.3924,9.3586,9.3586,9.3586,9.3586,9.3586,9.3586,9.3863,9.4649,9.5345,0.0,0.0,9.7563,9.8021,9.8021,9.8021,9.8021,9.8021,9.8021,9.8021,9.8021,9.8021,9.8021,9.8021,9.8021,9.8021,9.8021,9.8021,9.7673,9.7083,9.8446,9.8182,9.6716,9.6335,9.7109,9.8234,9.6196,9.414,9.2297,9.2225,9.1386,9.0222,9.0344,9.0344,9.0364,9.0546,9.0509,9.0334,9.0382,8.9901,8.9479,8.966,8.9677,8.9851,9.0468,9.0289,9.007,9.0528,9.0567,9.0567,9.0567,9.0567,9.0567,9.0567,9.0468,9.0348,9.0348,8.983,8.9432,8.9432,9.0161,9.1317,9.3104,9.2933,9.3254,9.4775,9.2825,9.1169,9.0408,9.1583,9.2623,9.3365,9.5134,9.6683,9.7953,9.8021,9.7631,9.6902,9.636,9.5669,9.4706,9.5466,9.5872,9.6059,9.4539,9.3203,0.0,0.0,0.0,0.0,0.0,0.0,7.4559,7.9228,8.3558,9.0324,9.3451,9.5142,9.5533,9.5398,9.5195,9.5195,9.4789,9.4398,9.4112,9.3789,9.3683,9.4027,9.3765,9.4036,9.5088,9.5804,9.6587,9.7286,9.8326,9.8764,9.8483,9.8135,9.8021,9.8021,9.8021,9.8021,9.8021,9.8021,9.8021,9.8021,9.8021,9.8135,9.84,9.759,9.7212,9.7109,9.7043,9.6589,9.5759,9.4105,9.4445,9.581,9.4055,9.2326,9.077,9.1175,9.0648,8.9716,8.9757,9.0019,9.0242,9.0242,9.0242,9.0224,9.0195,8.9757,8.9318,8.9641,8.9879,9.019,9.0528,9.0348,9.019,9.0507,9.0567,9.0567,9.0567,9.0408,9.0289,9.0567,9.0567,9.0567,9.0567,9.0289,9.007,9.007,9.1667,9.2487,9.1697,9.2343,9.2778,9.2596,9.0338,8.8524,8.7768,8.9624,9.1203,9.1909,9.4695,9.6751,9.7953,9.7689,9.7185,9.6487,9.5713,9.515,9.4705,9.4834,9.4497,9.3732,9.2234,9.0685,0.0,0.0,0.0,0.0,0.0,0.0,7.6915,7.9147,8.138,9.2232,9.4872,9.5278,9.5413,9.5007,9.4654,9.4451,9.4924,9.5127,9.4774,9.418,9.4051,9.462,9.4163,9.4413,9.5796,9.6527,9.7272,9.8037,9.9331,9.9794,9.9029,9.8384,9.8021,9.8021,9.8021,9.8021,9.8021,9.8021,9.8021,9.8021,9.7772,9.8052,9.8748,9.6757,9.6569,9.7649,9.4377,9.4171,9.5912,9.2482,9.1662,9.2476,9.1053,9.0141,8.9615,8.9615,8.9579,8.9521,8.8916,8.9138,8.9703,8.9597,8.9636,8.9716,8.9716,8.9182,8.871,8.9419,8.9937,9.0328,9.0507,9.0567,9.0507,9.0567,9.0567,9.0507,9.0567,9.007,8.9791,9.0468,9.0567,9.0507,9.0567,9.0567,9.0567,9.0567,9.2604,9.3085,9.0104,9.154,9.2145,9.0203,8.7743,8.5987,8.5267,8.7693,8.9638,9.034,9.4496,9.7172,9.787,9.7046,9.6227,9.5411,9.4624,9.4204,9.396,9.3586,9.2577,9.1014,8.9604,8.7759,0.0,0.0,0.0,0.0,0.0,0.0,0.0,6.9755,7.4695,7.8213,8.2272,8.5384,8.6007,8.7022,8.736,8.6129,8.9444,9.2759,9.4436,9.506,9.521,9.4766,9.509,9.5706,9.6624,9.6843,9.7437,9.8802,9.9119,9.903,9.8218,9.8052,9.8021,9.8021,9.8021,9.8021,9.8021,9.8021,9.8021,9.7953,9.6487,9.6125,9.6736,9.4723,9.4069,9.4498,9.5281,9.479,9.3391,9.3708,9.3373,9.2395,9.0567,8.9433,8.8908,8.8908,8.8889,8.8877,8.8757,8.9158,8.9621,8.9102,8.9232,8.9716,8.9716,8.8843,8.803,8.8674,8.8575,8.8613,9.0208,9.0249,9.001,9.0468,9.0249,9.001,9.0528,8.969,8.9232,9.0408,9.019,9.001,9.0507,9.0567,9.0567,9.0567,9.1063,9.1658,9.2409,9.0498,8.8831,8.8174,8.582,8.4027,8.3382,8.7006,8.9614,9.0381,9.4476,9.6978,9.7145,9.5583,9.4092,9.2765,9.2028,9.0946,8.9498,9.1407,9.2169,9.1714,8.8556,8.6839,0.0,0.0,0.0,6.3067,0.0,0.0,0.0,0.0,7.2124,7.6927,7.9418,8.1177,8.2678,8.3287,8.3571,8.349,8.8226,9.1242,8.9391,9.2969,9.5804,9.5804,9.5804,9.6067,9.6843,9.7265,9.807,9.9561,9.9316,9.8958,9.8566,9.8218,9.8021,9.8021,9.8021,9.8021,9.8021,9.8021,9.7507,9.6601,9.596,9.5601,9.5275,9.3659,9.3133,9.3536,9.3535,9.2746,9.1622,9.2009,9.156,9.0629,9.0281,8.974,8.9136,8.8814,8.8697,8.8614,8.8314,8.8414,8.8696,8.8722,8.8944,8.9255,8.9602,8.9441,8.9227,8.953,8.9391,8.9391,9.0328,9.0408,9.0249,9.0507,9.013,8.9791,9.007,8.9112,8.8394,8.9152,8.9232,8.9471,9.0468,9.0567,9.0567,9.0567,9.0567,9.0924,9.1874,9.0124,8.8443,8.7276,8.5078,8.4097,8.51,8.8688,9.1121,9.1696,9.4453,9.5777,9.5008,9.2924,9.1271,9.0132,8.9716,8.9106,8.8209,8.8603,8.8761,8.8728,8.5994,8.5381,0.0,0.0,0.0,0.0,0.0,6.5087,0.0,0.0,0.0,0.0,7.7333,7.7253,7.908,7.893,7.8872,7.9803,8.495,8.7128,8.2081,8.7854,0.0,9.3796,9.5298,9.6051,9.5673,9.6391,9.7694,9.9665,9.8711,9.8286,9.8831,9.8483,9.8135,9.8021,9.8021,9.8021,9.8021,9.8021,9.7129,9.5387,9.5591,9.5116,9.4047,9.2649,9.2395,9.3107,9.1512,9.0849,9.0951,9.0216,8.9496,8.9005,8.9902,8.9779,8.9078,8.8657,8.8496,8.8414,8.7894,8.7856,8.8156,8.8547,8.8813,8.8978,8.9384,8.9921,9.0429,9.0408,9.0408,9.0468,9.0567,9.0567,9.0567,9.0567,9.007,8.9572,8.9671,8.8534,8.7676,8.8194,8.8514,8.9112,9.0408,9.0567,9.0507,9.0268,9.0447,9.0388,8.993,8.9404,8.8406,8.6538,8.5105,8.5269,8.7714,9.0588,9.2392,9.2542,9.4154,9.4272,9.2469,8.9956,8.8109,8.7164,8.7527,8.753,8.7169,8.6059,8.5468,8.5444,8.3752,8.4104,0.0,0.0,0.0,0.0,6.9,0.0,0.0,0.0,0.0,0.0,0.0,0.0,0.0,0.0,0.0,0.0,0.0,0.0,7.3523,7.7907,8.1792,8.2991,9.1822,9.597,0.0,9.2244,9.4511,9.8012,9.5773,9.5356,9.8006,9.8665,9.8665,9.8037,9.8021,9.8021,9.8021,9.8021,9.7326,9.6063,9.4432,9.3304,9.2685,9.0853,9.0668,9.1785,9.1556,9.1859,9.2287,9.1046,9.0137,8.9518,8.9115,8.8175,8.7086,8.7608,8.7791,8.7795,8.7715,8.8495,8.9386,8.8838,8.9116,8.9501,8.897,8.9301,8.9813,8.9812,8.9791,8.9911,9.0468,9.0567,9.0567,9.0567,8.969,8.8953,8.9552,8.8175,8.7337,8.9133,8.9073,8.9112,9.0408,9.0567,9.0229,8.9112,8.987,8.975,8.7457,8.7076,8.6478,8.507,8.5784,8.7054,8.8845,9.0583,9.1254,9.0732,9.297,9.2969,8.9865,8.7297,8.5136,8.345,8.496,8.5019,8.3427,8.4804,8.5468,8.5444,8.4209,8.3728,0.0,0.0,0.0,0.0,0.0,0.0,0.0,0.0,6.4806,0.0,0.0,0.0,0.0,0.0,0.0,0.0,0.0,0.0,0.0,0.0,7.8204,8.0577,0.0,0.0,0.0,0.0,0.0,0.0,9.6813,9.6853,9.8551,9.8547,9.8499,9.8665,9.8218,9.7492,9.6405,9.6405,9.5221,9.2868,9.247,9.1736,9.085,9.0445,9.0526,9.1053,9.1053,9.0972,9.085,8.9918,8.9334,8.9095,8.8814,8.8134,8.7301,8.7608,8.7936,8.8255,8.8274,8.8662,8.9053,8.8807,8.9166,8.9636,8.9333,8.9721,9.021,9.0249,9.0249,9.0289,9.0507,9.0567,9.0567,9.0567,8.963,8.8774,8.9073,8.7816,8.7038,8.8295,8.8334,8.8394,8.9352,8.969,8.967,8.9152,8.9092,8.8494,8.6918,8.6678,8.6479,8.5943,8.6002,8.7026,8.9222,9.03,9.0798,9.0394,8.957,8.8083,8.5603,8.4529,8.3608,8.2806,8.3529,8.3754,8.3317,8.3754,8.4146,8.446,8.3613,8.3997,7.6521,0.0,0.0,0.0,0.0,0.0,0.0,0.0,0.0,0.0,0.0,0.0,0.0,0.0,0.0,0.0,0.0,0.0,0.0,6.5802,0.0,0.0,0.0,0.0,0.0,0.0,0.0,0.0,0.0,9.7571,9.9309,9.8911,9.876,9.9112,9.8541,9.7368,9.55,9.5651,9.4155,9.1068,9.1538,9.1155,8.996,9.0567,9.077,9.0567,9.0567,9.0344,8.9879,8.9063,8.8796,8.8955,8.8757,8.851,8.8229,8.8216,8.8574,8.8956,8.8964,8.911,8.9211,8.9211,8.9535,8.9939,8.9939,9.0242,9.0567,9.0567,9.0567,9.0567,9.0567,9.0567,9.0567,9.0567,8.9771,8.8953,8.8774,8.7816,8.7157,8.7856,8.7856,8.7975,8.8833,8.9172,8.9191,8.8912,8.8194,8.7437,8.6798,8.6678,8.6678,8.6678,8.6259,8.7031,8.9533,9.0077,9.0097,8.9591,8.6521,8.4246,8.3065,8.2907,8.2986,8.3326,8.3128,8.3252,8.3678,8.3252,8.3209,8.347,8.3168,8.3977,0.0,0.0,0.0,7.4221,0.0,0.0,0.0,0.0,6.7387,0.0,0.0,0.0,0.0,0.0,0.0,0.0,0.0,0.0,0.0,0.0,0.0,0.0,0.0,0.0,0.0,0.0,0.0,0.0,0.0,0.0,9.9968,10.0138,9.9816,9.9112,9.9093,9.81,9.6208,9.6846,9.559,9.2468,9.2488,9.1785,9.0567,9.1256,9.1175,9.0567,9.0567,9.0567,9.0489,8.9199,8.9055,8.9618,8.8927,8.9071,8.9661,8.9641,8.9616,8.9659,8.967,9.004,9.0546,9.0546,9.0546,9.0567,9.0567,9.0567,9.0567,9.0567,9.0567,9.0567,9.0567,9.0567,9.0567,9.0567,9.013,8.9492,8.8833,8.8155,8.7856,8.8534,8.8155,8.8095,8.9432,8.9471,8.8972,8.7915,8.7217,8.6738,8.6678,8.6678,8.6678,8.6678,8.6678,8.7718,9.0232,8.9917,8.8998,8.775,8.465,8.3144,8.3671,8.3109,8.3386,8.4604,8.4008,8.3652,8.3711,8.3652,8.335,8.2866,8.3408,8.3405,0.0,0.0,8.8172,7.9701,0.0,0.0,0.0,0.0,0.0,0.0,0.0,0.0,0.0,0.0,0.0,0.0,0.0,0.0,0.0,0.0,0.0,0.0,0.0,0.0,0.0,0.0,0.0,0.0,0.0,0.0,0.0,10.0468,10.0062,9.9874,9.8156,9.6323,9.4332,9.3283,9.2102,9.0664,9.0654,9.0648,9.0627,9.085,9.0792,9.0607,9.0613,9.0358,8.9943,8.9537,8.9755,9.0239,9.0066,9.0648,9.142,8.9651,8.9574,9.0299,9.0289,9.0445,9.0528,9.0111,9.027,9.0507,9.013,9.0289,9.0567,9.0567,9.0567,9.0567,9.0567,9.0567,9.0567,9.0567,8.983,8.8953,8.8774,8.7816,8.7277,8.7915,8.7516,8.7317,8.8215,8.7915,8.7616,8.7676,8.7157,8.6678,8.6678,8.6678,8.6678,8.6678,8.6678,8.7074,8.7871,8.6946,8.5963,8.5054,8.3988,8.3288,8.3109,8.3726,8.4085,8.4066,8.4286,8.4386,8.4386,8.3908,8.3628,8.3427,8.3187,8.2967,8.9579,9.142,0.0,8.4099,8.3625,0.0,7.4424,0.0,0.0,0.0,0.0,0.0,0.0,0.0,0.0,0.0,0.0,0.0,0.0,0.0,0.0,0.0,0.0,0.0,0.0,0.0,0.0,0.0,0.0,0.0,0.0,0.0,10.0301,9.9559,9.7906,9.5715,9.3053,9.2304,9.1456,9.0364,9.0364,9.0567,9.0952,9.0952,9.0813,9.0628,9.0613,9.0418,9.0043,9.0031,9.0364,9.0991,9.1237,9.2003,9.2717,9.0497,9.0085,9.0567,9.0567,9.0567,9.0528,8.9892,9.0111,9.0528,8.9911,9.013,9.0627,9.0866,9.0746,9.0627,9.0866,9.0746,9.0567,9.0348,8.9651,8.8953,8.8454,8.7696,8.7197,8.7616,8.7157,8.6918,8.7556,8.7137,8.6858,8.7257,8.6978,8.6798,8.7038,8.7038,8.7038,8.7038,8.7038,8.6978,8.6738,8.5701,8.4963,8.4784,8.4305,8.4085,8.4183,8.4504,8.4724,8.4803,8.4724,8.4724,8.4724,8.4006,8.3587,8.3367,8.2967,8.2926]},{"header":{"parameterUnit":"m.s-1","parameterCategory":1,"la1":30.6,"la2":29.2853,"lo1":-89.7004,"lo2":-87.6739,"dx":0.0162,"dy":0.0183,"nx":112,"ny":82,"refTime":"2022-11-19T18:00:00:Z","depth":0,"parameterNumber":3,"parameterNumberName":"V-component_of_WINDS"},"data":[0.0,0.0,0.0,0.0,0.0,0.0,0.0,0.0,0.0,0.0,0.0,0.0,0.0,0.0,0.0,0.0,0.0,0.0,0.0,0.0,0.0,0.0,0.0,0.0,0.0,0.0,0.0,0.0,0.0,0.0,0.0,0.0,0.0,0.0,0.0,0.0,0.0,0.0,0.0,0.0,0.0,0.0,0.0,0.0,0.0,0.0,0.0,0.0,0.0,0.0,0.0,0.0,0.0,0.0,0.0,0.0,0.0,0.0,0.0,0.0,0.0,0.0,0.0,0.0,0.0,0.0,0.0,0.0,0.0,0.0,0.0,0.0,0.0,0.0,0.0,0.0,0.0,0.0,0.0,0.0,0.0,0.0,0.0,0.0,0.0,0.0,0.0,0.0,0.0,0.0,0.0,2.0304,2.4643,2.7088,2.658,2.5419,2.3215,1.9647,0.0,0.0,0.0,0.0,0.0,0.0,0.0,0.0,0.0,0.0,0.0,0.0,0.0,0.0,0.0,0.0,0.0,0.0,0.0,0.0,0.0,0.0,0.0,0.0,0.0,0.0,0.0,0.0,0.0,0.0,0.0,0.0,0.0,0.0,0.0,0.0,0.0,0.0,0.0,0.0,0.0,0.0,0.0,0.0,0.0,0.0,0.0,0.0,0.0,0.0,0.0,0.0,0.0,0.0,0.0,0.0,0.0,0.0,0.0,0.0,0.0,0.0,0.0,0.0,0.0,0.0,0.0,0.0,0.0,0.0,0.0,0.0,0.0,0.0,0.0,0.0,0.0,0.0,0.0,0.0,0.0,0.0,0.0,0.0,0.0,0.0,0.0,0.0,0.0,0.0,0.0,0.0,0.0,0.0,0.0,0.0,0.0,0.0,0.0,0.0,0.0,0.0,0.0,0.0,1.8807,2.5701,2.6953,2.7269,2.7168,2.6052,2.354,1.9251,0.0,0.0,0.0,0.0,0.0,0.0,0.0,0.0,0.0,0.0,0.0,0.0,0.0,0.0,0.0,0.0,0.0,0.0,0.0,0.0,0.0,0.0,0.0,0.0,0.0,0.0,0.0,0.0,0.0,0.0,0.0,0.0,0.0,0.0,0.0,0.0,0.0,0.0,0.0,0.0,0.0,0.0,0.0,0.0,0.0,0.0,0.0,0.0,0.0,0.0,0.0,0.0,0.0,0.0,0.0,0.0,0.0,0.0,0.0,0.0,0.0,0.0,0.0,0.0,0.0,0.0,0.0,0.0,0.0,0.0,0.0,0.0,0.0,0.0,0.0,0.0,0.0,0.0,0.0,0.0,0.0,0.0,0.0,0.0,0.0,0.0,0.0,0.0,0.0,0.0,0.0,0.0,0.0,0.0,0.0,0.0,0.0,0.0,0.0,0.0,0.0,0.0,0.0,1.7571,2.1534,2.7093,2.7756,2.7724,2.7542,2.656,2.4336,2.0388,1.76,0.0,0.0,0.0,0.0,0.0,0.0,0.0,0.0,0.0,0.0,0.0,0.0,0.0,0.0,0.0,0.0,0.0,0.0,0.0,0.0,0.0,0.0,0.0,0.0,0.0,0.0,0.0,0.0,0.0,0.0,0.0,0.0,0.0,0.0,0.0,0.0,0.0,0.0,0.0,0.0,0.0,0.0,0.0,0.0,0.0,0.0,0.0,0.0,0.0,0.0,0.0,0.0,0.0,0.0,0.0,0.0,0.0,0.0,0.0,0.0,0.0,0.0,0.0,0.0,0.0,0.0,0.0,0.0,0.0,0.0,0.0,0.0,0.0,0.0,0.0,0.0,0.0,0.0,0.0,0.0,0.0,0.0,0.0,0.0,0.0,0.0,0.0,0.0,0.0,0.0,0.0,0.0,0.0,0.0,0.0,0.0,0.0,0.0,0.0,0.0,0.0,0.0,2.1471,2.4476,2.7516,2.8045,2.8072,2.7736,2.6907,2.4833,2.1102,1.8236,0.0,0.0,0.0,0.0,0.0,0.0,0.0,0.0,0.0,0.0,0.0,0.0,0.0,0.0,0.0,0.0,0.0,0.0,0.0,0.0,0.0,0.0,0.0,0.0,0.0,0.0,0.0,0.0,0.0,0.0,0.0,0.0,0.0,0.0,0.0,0.0,0.0,0.0,0.0,0.0,0.0,0.0,0.0,0.0,0.0,0.0,0.0,0.0,0.0,0.0,0.0,0.0,0.0,0.0,0.0,0.0,0.0,0.0,0.0,0.0,0.0,0.0,0.0,0.0,0.0,0.0,0.0,0.0,0.0,0.0,0.0,0.0,0.0,0.0,0.0,0.0,0.0,0.0,0.0,0.0,0.0,0.0,0.0,0.0,0.0,0.0,0.0,0.0,0.0,0.0,0.0,0.0,0.0,0.0,0.0,0.0,0.0,0.0,0.0,0.0,0.0,0.0,2.3922,2.7516,2.8098,2.82,2.8072,2.7736,2.6907,2.4539,2.0157,1.7889,0.0,0.0,0.0,0.0,0.0,0.0,0.0,0.0,0.0,0.0,0.0,0.0,0.0,0.0,0.0,0.0,0.0,0.0,0.0,0.0,0.0,0.0,0.0,0.0,0.0,0.0,0.0,0.0,0.0,0.0,0.0,0.0,0.0,0.0,0.0,0.0,0.0,0.0,0.0,0.0,0.0,0.0,0.0,0.0,0.0,0.0,0.0,0.0,0.0,0.0,0.0,0.0,0.0,0.0,0.0,0.0,0.0,0.0,0.0,0.0,0.0,0.0,0.0,0.0,0.0,0.0,0.0,0.0,0.0,0.0,0.0,0.0,0.0,0.0,0.0,0.0,0.0,0.0,0.0,0.0,0.0,0.0,0.0,0.0,0.0,0.0,0.0,0.0,0.0,0.0,0.0,0.0,0.0,0.0,0.0,0.0,0.0,0.0,0.0,0.0,0.0,0.0,2.3417,2.64,0.0,2.82,2.8152,2.8018,2.7376,2.4975,2.0346,0.0,0.0,0.0,0.0,0.0,0.0,0.0,0.0,0.0,0.0,0.0,0.0,0.0,0.0,0.0,0.0,0.0,0.0,0.0,0.0,0.0,0.0,0.0,0.0,0.0,0.0,0.0,0.0,0.0,0.0,0.0,0.0,0.0,0.0,0.0,0.0,0.0,0.0,0.0,0.0,0.0,0.0,0.0,0.0,0.0,0.0,0.0,0.0,0.0,0.0,0.0,0.0,0.0,0.0,0.0,0.0,0.0,0.0,0.0,0.0,0.0,0.0,0.0,0.0,0.0,0.0,0.0,0.0,0.0,0.0,0.0,0.0,0.0,0.0,0.0,0.0,0.0,0.0,0.0,0.0,0.0,0.0,0.0,0.0,0.0,0.0,0.0,0.0,0.0,0.0,0.0,0.0,0.0,0.0,0.0,0.0,0.0,0.0,0.0,0.0,0.0,0.0,2.0526,2.3915,2.6513,0.0,2.8452,2.8398,2.8339,2.7697,2.527,2.049,0.0,0.0,0.0,0.0,0.0,0.0,0.0,0.0,0.0,0.0,0.0,0.0,0.0,0.0,0.0,0.0,0.0,0.0,0.0,0.0,0.0,0.0,0.0,0.0,0.0,0.0,0.0,0.0,0.0,0.0,0.0,0.0,0.0,0.0,0.0,0.0,0.0,0.0,0.0,0.0,0.0,0.0,0.0,0.0,0.0,0.0,0.0,0.0,0.0,0.0,0.0,0.0,0.0,0.0,0.0,0.0,0.0,0.0,0.0,0.0,0.0,0.0,0.0,0.0,0.0,0.0,0.0,0.0,0.0,0.0,0.0,0.0,0.0,0.0,0.0,0.0,0.0,0.0,0.0,0.0,0.0,0.0,0.0,0.0,0.0,0.0,0.0,0.0,0.0,0.0,0.0,0.0,0.0,0.0,0.0,0.0,0.0,0.0,0.0,0.0,0.0,0.0,2.1642,2.5865,2.8703,2.8975,2.9001,2.889,2.8623,2.781,2.527,0.0,0.0,0.0,0.0,0.0,0.0,0.0,0.0,0.0,0.0,0.0,0.0,0.0,0.0,0.0,0.0,0.0,0.0,0.0,0.0,0.0,0.0,0.0,0.0,0.0,0.0,0.0,0.0,0.0,0.0,0.0,0.0,0.0,0.0,0.0,0.0,0.0,0.0,0.0,0.0,0.0,0.0,0.0,0.0,0.0,0.0,0.0,0.0,0.0,0.0,0.0,0.0,0.0,0.0,0.0,0.0,0.0,0.0,0.0,0.0,0.0,0.0,0.0,0.0,0.0,0.0,0.0,0.0,0.0,0.0,0.0,0.0,0.0,0.0,0.0,0.0,0.0,0.0,0.0,0.0,0.0,0.0,0.0,0.0,0.0,0.0,0.0,0.0,0.0,0.0,0.0,0.0,0.0,0.0,0.0,0.0,0.0,0.0,0.0,0.0,0.0,0.0,0.0,2.1669,2.5865,2.8703,2.8975,2.9001,2.889,2.8623,2.7976,2.5464,2.0517,0.0,0.0,0.0,0.0,0.0,0.0,0.0,0.0,0.0,0.0,0.0,0.0,0.0,0.0,0.0,0.0,0.0,0.0,0.0,0.0,0.0,0.0,0.0,0.0,0.0,0.0,0.0,0.0,0.0,0.0,0.0,0.0,0.0,0.0,0.0,0.0,0.0,0.0,0.0,0.0,0.0,0.0,0.0,0.0,0.0,0.0,0.0,0.0,0.0,0.0,0.0,0.0,0.0,0.0,0.0,0.0,0.0,0.0,0.0,0.0,0.0,0.0,0.0,0.0,0.0,0.0,0.0,0.0,0.0,0.0,0.0,0.0,0.0,0.0,0.0,0.0,0.0,0.0,0.0,0.0,0.0,0.0,0.0,0.0,0.0,0.0,0.0,0.0,0.0,0.0,0.0,0.0,0.0,0.0,0.0,0.0,0.0,0.0,0.0,0.0,0.0,0.0,2.2191,2.6293,2.9125,2.9526,2.9344,2.942,3.0018,2.9383,2.7562,2.4345,0.0,0.0,0.0,0.0,0.0,0.0,0.0,0.0,0.0,0.0,0.0,0.0,0.0,0.0,0.0,0.0,0.0,0.0,0.0,0.0,0.0,0.0,0.0,0.0,0.0,0.0,0.0,0.0,0.0,0.0,0.0,0.0,0.0,0.0,0.0,0.0,0.0,0.0,0.0,0.0,0.0,0.0,0.0,0.0,0.0,0.0,0.0,0.0,0.0,0.0,0.0,0.0,0.0,0.0,0.0,0.0,0.0,0.0,0.0,0.0,0.0,0.0,0.0,0.0,0.0,0.0,0.0,0.0,0.0,0.0,0.0,0.0,0.0,0.0,0.0,0.0,0.0,0.0,0.0,0.0,0.0,0.0,0.0,0.0,0.0,0.0,0.0,0.0,0.0,0.0,0.0,0.0,0.0,0.0,0.0,0.0,0.0,0.0,0.0,0.0,0.0,0.0,2.2962,2.6934,2.9762,3.0319,3.007,3.055,3.2212,3.1645,3.0907,3.0189,0.0,0.0,0.0,0.0,0.0,0.0,0.0,0.0,0.0,0.0,0.0,0.0,0.0,0.0,0.0,0.0,0.0,0.0,0.0,0.0,0.0,0.0,0.0,0.0,0.0,0.0,0.0,0.0,0.0,0.0,0.0,0.0,0.0,0.0,0.0,0.0,0.0,0.0,0.0,0.0,0.0,0.0,0.0,0.0,0.0,0.0,0.0,0.0,0.0,0.0,0.0,0.0,0.0,0.0,0.0,0.0,0.0,0.0,0.0,0.0,2.013,0.0,0.0,0.0,0.0,0.0,0.0,0.0,0.0,0.0,0.0,0.0,0.0,0.0,0.0,0.0,0.0,0.0,0.0,0.0,0.0,0.0,0.0,0.0,0.0,0.0,0.0,0.0,0.0,0.0,0.0,0.0,0.0,0.0,0.0,0.0,0.0,0.0,0.0,0.0,0.0,0.0,2.2756,2.6987,2.9851,3.0007,3.154,3.2609,3.2754,3.374,3.327,3.0734,0.0,0.0,0.0,0.0,0.0,0.0,0.0,0.0,0.0,0.0,0.0,0.0,0.0,0.0,0.0,0.0,0.0,0.0,0.0,0.0,0.0,0.0,0.0,0.0,0.0,0.0,0.0,0.0,0.0,0.0,0.0,0.0,0.0,0.0,0.0,0.0,0.0,0.0,0.0,0.0,0.0,0.0,0.0,0.0,0.0,0.0,0.0,0.0,0.0,0.0,0.0,0.0,0.0,0.0,0.0,0.0,0.0,0.0,0.0,0.0,0.0,2.3153,0.0,0.0,0.0,0.0,0.0,0.0,0.0,0.0,0.0,0.0,0.0,0.0,0.0,0.0,0.0,0.0,0.0,0.0,0.0,0.0,0.0,0.0,0.0,0.0,0.0,0.0,0.0,0.0,0.0,0.0,0.0,0.0,0.0,0.0,0.0,0.0,0.0,0.0,0.0,0.0,2.3318,2.7409,3.0565,3.1659,3.2617,3.3957,3.5946,3.6391,3.632,3.5797,3.1383,0.0,0.0,0.0,0.0,0.0,0.0,0.0,0.0,0.0,0.0,0.0,0.0,0.0,0.0,0.0,0.0,0.0,0.0,0.0,0.0,0.0,0.0,0.0,0.0,0.0,0.0,0.0,0.0,0.0,0.0,0.0,0.0,0.0,0.0,0.0,0.0,0.0,0.0,0.0,0.0,0.0,0.0,0.0,0.0,0.0,0.0,0.0,0.0,0.0,0.0,0.0,0.0,0.0,2.3277,2.367,2.6619,2.6565,2.6862,2.7372,2.7373,2.6777,2.5558,0.0,0.0,0.0,0.0,0.0,0.0,0.0,0.0,0.0,0.0,0.0,0.0,0.0,0.0,0.0,0.0,0.0,0.0,0.0,0.0,0.0,0.0,0.0,0.0,0.0,2.2907,2.3201,0.0,0.0,0.0,0.0,0.0,0.0,0.0,0.0,0.0,0.0,0.0,0.0,2.4998,2.8728,3.2048,3.4321,3.4465,3.594,3.9635,3.9306,3.9649,4.1445,3.6308,3.2944,0.0,0.0,0.0,0.0,0.0,0.0,0.0,0.0,0.0,0.0,0.0,0.0,0.0,0.0,0.0,0.0,0.0,0.0,0.0,0.0,0.0,0.0,0.0,0.0,0.0,0.0,0.0,0.0,0.0,0.0,0.0,0.0,1.7646,1.6496,0.0,0.0,0.0,0.0,0.0,0.0,0.0,0.0,0.0,0.0,0.0,0.0,0.0,2.3459,2.5451,2.6373,2.6887,2.7036,2.6354,2.6539,2.7454,2.7239,2.7365,2.7656,2.7642,0.0,2.6798,2.3067,0.0,0.0,0.0,0.0,0.0,0.0,0.0,0.0,0.0,0.0,0.0,0.0,0.0,0.0,0.0,0.0,0.0,0.0,0.0,0.0,0.0,0.0,2.5697,2.656,2.7162,2.7322,0.0,2.2783,1.9187,1.845,0.0,0.0,0.0,0.0,0.0,0.0,0.0,0.0,2.9064,3.2395,3.5137,3.7294,3.9289,4.0692,4.1297,4.2308,4.2917,4.2851,3.9356,3.6348,3.4134,3.0057,0.0,0.0,0.0,0.0,0.0,0.0,0.0,0.0,0.0,0.0,0.0,0.0,0.0,0.0,0.0,0.0,0.0,0.0,0.0,0.0,0.0,0.0,0.0,0.0,0.0,0.0,0.0,0.0,0.0,1.8825,1.9933,2.0071,2.0148,1.9326,0.0,0.0,0.0,0.0,0.0,0.0,0.0,0.0,0.0,2.4831,2.5374,2.6009,2.6895,2.7492,2.7696,2.7515,2.756,2.7699,2.7912,2.7854,2.7944,2.819,2.8051,2.7989,2.7819,2.5134,2.285,2.0961,0.0,0.0,0.0,0.0,0.0,1.4619,1.8229,2.2956,0.0,0.0,0.0,0.0,0.0,0.0,0.0,0.0,0.0,0.0,0.0,0.0,0.0,2.9412,3.0101,3.0085,2.9921,2.7985,2.5338,0.0,2.1136,1.9503,1.5765,0.0,0.0,0.0,0.0,0.0,3.0856,3.456,3.7716,3.9847,4.0992,4.2114,4.3402,4.3846,4.3906,4.3476,4.1618,3.9906,3.8608,3.4259,3.0379,0.0,0.0,0.0,0.0,0.0,0.0,0.0,0.0,0.0,0.0,0.0,0.0,0.0,0.0,0.0,0.0,0.0,0.0,0.0,0.0,0.0,0.0,0.0,0.0,0.0,0.0,0.0,0.0,2.0745,2.2022,2.2821,2.3051,2.1964,0.0,0.0,0.0,0.0,0.0,0.0,2.0196,2.2123,2.4333,2.6775,2.6991,2.7194,2.7547,2.813,2.8194,2.7837,2.8228,2.8388,2.8441,2.9433,2.9486,2.8842,3.0007,3.0276,2.9767,2.7381,2.5419,2.3772,2.2811,2.1018,1.8774,1.732,1.6042,1.6124,2.4096,2.7448,2.8144,2.7867,0.0,2.4221,2.2047,0.0,0.0,0.0,0.0,2.3134,2.6576,0.0,2.8117,3.2335,3.3103,3.2876,3.2876,3.2556,3.0806,0.0,2.436,2.2703,1.8909,0.0,0.0,0.0,0.0,3.1836,3.4476,3.776,4.0723,4.2905,4.3131,4.3809,4.5513,4.5195,4.4726,4.4375,4.3456,4.2714,4.2305,3.8514,3.5495,3.3489,0.0,0.0,0.0,0.0,0.0,0.0,0.0,0.0,0.0,0.0,0.0,0.0,0.0,0.0,0.0,0.0,0.0,0.0,0.0,0.0,0.0,0.0,0.0,0.0,0.0,0.0,0.0,0.0,0.0,2.3569,2.3724,0.0,0.0,0.0,0.0,2.542,2.6438,2.6232,2.4745,2.5354,2.6457,2.8071,2.8599,2.8648,2.8167,2.8686,2.8713,2.8179,2.8704,2.8969,2.9083,3.2777,3.2573,2.9549,3.4562,3.5542,3.3326,2.9607,2.7015,2.5384,2.5334,2.3531,2.1002,2.1489,1.9862,1.8459,2.5628,2.8143,2.8302,2.8827,2.7534,2.5539,2.467,2.3603,0.0,0.0,2.551,2.6828,3.1526,3.2524,3.3093,3.6207,3.6654,3.6347,3.6347,3.5171,3.2865,0.0,2.7959,2.7403,2.5766,0.0,2.6929,3.0405,3.1513,3.4581,4.196,4.3329,4.4567,4.704,4.7326,4.7349,4.7461,4.668,4.6211,4.6172,4.5,4.4101,4.3633,4.2596,3.9759,3.4995,3.3231,0.0,0.0,0.0,0.0,0.0,0.0,0.0,0.0,0.0,0.0,0.0,0.0,0.0,0.0,0.0,0.0,0.0,0.0,0.0,0.0,0.0,0.0,0.0,0.0,0.0,0.0,0.0,0.0,2.436,2.4405,0.0,2.349,2.3982,2.524,2.7383,2.7757,2.7638,2.711,2.7062,2.7419,2.8186,2.8862,2.9044,2.8724,2.9284,2.9278,2.8704,2.8916,3.0369,3.2953,3.4343,3.4154,3.2808,3.5692,3.7299,3.7532,3.3793,3.1446,2.9946,2.7582,2.5799,2.4546,2.4764,2.5116,2.5889,2.8408,2.8794,2.8206,2.818,2.7457,2.6859,2.8387,2.9287,3.0144,3.1844,3.2761,3.3646,3.5552,3.5972,3.6523,3.8989,3.9481,3.9376,3.9376,3.8898,3.7711,3.5077,3.2173,2.9255,2.6472,2.7724,2.9571,3.0926,3.4423,3.8469,4.2788,4.5069,4.6615,4.7511,4.76,4.76,4.76,4.7327,4.6875,4.6328,4.5859,4.5312,4.4549,4.3437,4.1891,3.9778,3.7166,3.2593,0.0,0.0,0.0,0.0,0.0,0.0,0.0,0.0,0.0,0.0,0.0,0.0,0.0,0.0,0.0,0.0,0.0,0.0,0.0,0.0,0.0,0.0,0.0,0.0,0.0,0.0,2.5136,2.5485,2.5635,2.5669,2.5505,2.6305,2.7191,2.8129,2.8305,2.8365,2.8365,2.8965,2.9446,2.9774,3.0267,3.014,2.9294,2.9685,2.9713,2.9353,3.3067,3.4907,3.5083,3.7694,3.765,3.573,3.8738,4.0463,4.1103,3.923,3.7712,3.5932,3.0354,2.7703,2.7021,2.7011,2.8247,2.9893,2.9915,2.922,2.8334,2.8068,2.7801,2.8055,3.0689,3.3531,3.5977,3.6486,3.7158,3.7966,3.9138,3.9336,3.9792,4.2164,4.2645,4.2297,4.1442,4.1821,4.1441,3.86,3.4918,3.1589,2.9394,3.0749,3.2459,3.3257,3.765,4.1692,4.4017,4.6363,4.7773,4.7773,4.7773,4.7773,4.7773,4.6897,4.6406,4.6719,4.5898,4.543,4.5447,4.3789,4.2539,4.1777,3.903,3.4578,2.8364,0.0,0.0,0.0,0.0,0.0,0.0,0.0,0.0,0.0,0.0,0.0,0.0,0.0,0.0,0.0,0.0,0.0,0.0,0.0,0.0,0.0,0.0,0.0,2.4579,2.5517,2.637,2.6969,2.7506,2.752,2.6758,2.7265,2.7801,2.8205,2.8639,2.8859,2.8859,3.1244,3.2751,3.3047,3.3003,3.199,2.9915,2.9882,2.9933,3.0078,4.105,4.2402,3.5392,4.2873,4.3203,3.8202,4.3808,4.5317,4.3908,4.553,4.5223,4.2812,3.3839,2.9463,2.8261,2.8302,2.8966,2.994,3.0259,2.9735,2.89,2.8875,2.889,2.9321,3.1593,3.6142,4.0167,3.8448,3.8446,3.9598,4.2241,4.2653,4.3023,4.5669,4.5976,4.502,4.2634,4.366,4.3676,3.9042,3.6265,3.4721,3.4953,3.5021,3.5822,3.8072,4.1228,0.0,4.606,4.7422,4.8164,4.8125,4.8125,4.8125,4.8125,4.543,4.4844,4.7405,4.5195,4.457,4.625,4.3807,4.1894,4.0606,3.8773,3.6224,3.2968,0.0,0.0,0.0,0.0,0.0,0.0,0.0,0.0,0.0,0.0,0.0,0.0,0.0,0.0,0.0,0.0,0.0,0.0,0.0,0.0,0.0,0.0,2.5682,2.5252,2.7844,2.9815,2.9991,3.0156,3.0293,3.0469,2.9215,2.8605,2.9115,3.121,3.2421,3.2259,3.4312,3.5767,3.635,3.5006,3.2872,2.9941,2.9886,3.035,3.1334,4.1461,4.517,4.3183,4.4673,4.4136,4.2177,4.4382,4.5437,4.5508,4.4745,4.4139,4.346,4.0901,3.5636,2.9551,3.0419,3.0385,3.0945,3.8322,3.7648,3.37,3.4576,3.4076,3.3812,3.747,4.1737,4.511,4.4194,4.4544,4.5242,4.5671,4.5712,4.5637,4.5846,4.5764,4.5513,4.4825,4.5116,4.5219,4.4188,4.2026,3.9688,3.7576,3.772,3.8853,4.0814,4.2536,0.0,4.6465,4.7344,4.7405,4.6506,4.6389,4.6389,4.6389,4.5646,4.5703,4.7009,4.6423,4.6111,4.6289,4.4726,4.3398,4.2383,3.836,3.5775,0.0,0.0,0.0,0.0,0.0,0.0,0.0,0.0,0.0,0.0,0.0,0.0,0.0,0.0,0.0,0.0,0.0,0.0,0.0,0.0,0.0,0.0,2.7306,2.8591,2.8465,3.0107,3.1746,3.3029,3.3122,3.3301,3.3793,3.2698,3.2123,3.2608,3.421,3.5219,3.5303,3.7466,3.8886,3.9335,3.8238,3.7189,3.6238,3.5074,3.5603,3.7881,4.3589,4.6299,4.627,4.5805,4.5266,0.0,4.5314,4.5819,4.6238,4.5211,4.481,0.0,0.0,0.0,0.0,0.0,3.7383,3.7606,4.3507,4.3116,3.9687,3.8095,3.747,3.7737,3.997,4.3724,4.7085,4.6477,4.6797,4.7266,4.697,4.6775,4.6501,4.6055,4.5959,4.5677,4.4619,4.5225,4.5694,4.4917,0.0,0.0,4.185,4.1087,4.099,4.1742,4.3523,4.5114,4.5992,4.6836,4.7031,4.6289,4.6211,4.6211,4.6211,4.5195,0.0,0.0,0.0,4.5391,4.4982,4.4062,0.0,0.0,0.0,0.0,0.0,0.0,0.0,0.0,2.6748,2.4679,0.0,0.0,0.0,0.0,0.0,0.0,0.0,0.0,0.0,0.0,0.0,0.0,0.0,0.0,0.0,0.0,2.9868,3.2147,3.3409,3.2914,3.3395,3.6092,3.6317,3.6409,3.6852,3.6694,3.6732,3.7086,3.7356,3.7718,3.8174,0.0,0.0,0.0,0.0,4.3103,4.5133,4.2683,4.3097,4.643,4.6408,4.6363,4.6274,4.6293,4.6297,4.6297,4.6297,4.6318,4.6323,4.6323,4.6323,4.6284,4.6285,4.6294,4.6315,4.6302,4.6276,4.632,4.6288,0.0,0.0,4.0597,4.0123,4.134,4.0842,4.3744,4.7067,4.6516,4.6658,4.697,4.6931,4.6618,4.6367,4.6328,4.6289,4.5719,4.3486,4.4757,4.5714,4.3515,4.4876,4.6445,4.6445,4.4551,4.28,4.2123,4.4456,4.6055,4.5291,4.615,4.6775,4.6618,0.0,0.0,4.6618,4.4531,4.4258,4.6697,4.5078,4.3828,4.3419,4.3008,4.2461,4.1699,4.125,4.1777,4.338,4.2969,4.0581,3.6267,2.9459,2.6234,0.0,0.0,0.0,0.0,0.0,0.0,0.0,0.0,0.0,0.0,0.0,0.0,0.0,0.0,0.0,3.083,3.193,3.3906,3.8378,3.8765,3.8821,3.9523,3.958,3.968,3.9987,3.8477,3.7571,3.7871,3.9635,4.0913,4.1292,4.3615,4.5037,4.5384,4.5384,4.5597,4.6024,4.5533,4.5951,4.7376,0.0,0.0,4.6309,4.6284,4.629,4.629,4.629,4.6292,4.6282,4.6282,4.6282,4.6288,4.6301,4.6289,4.6301,4.6292,4.6314,4.6323,4.6279,4.6306,4.6102,4.5072,4.493,4.5214,4.5089,4.595,0.0,4.6836,4.7109,4.7383,4.7009,4.6853,4.6697,4.6367,4.6289,4.6158,4.5697,4.6232,4.6642,4.6138,4.6759,4.7366,4.7366,4.6382,4.5648,4.5802,4.6099,4.6367,4.6501,4.6462,4.6016,4.5,4.4883,4.4883,4.4883,4.4414,4.4805,4.6328,4.6016,4.5625,4.5217,4.5099,4.4982,4.4826,4.4375,4.4471,4.5177,4.5099,4.2599,3.7836,3.5446,3.2719,0.0,0.0,0.0,0.0,0.0,0.0,0.0,0.0,0.0,0.0,0.0,2.6261,0.0,0.0,3.165,3.4313,3.5919,3.7798,4.065,4.1976,4.2601,4.2455,4.2476,4.2584,4.2897,4.1993,4.1514,4.1891,4.301,4.3827,4.4241,4.535,4.6094,4.6289,4.6523,4.6663,4.6729,4.688,4.7243,4.7785,4.7545,4.7148,4.6755,4.6906,4.6694,4.6347,4.723,4.7584,4.7514,4.6675,4.6797,4.7582,4.7585,4.7042,4.6315,4.6297,4.6297,4.6303,4.6301,4.6289,4.6289,4.6289,4.6289,4.6389,4.6667,4.6841,4.6992,4.7338,4.7511,4.7561,4.7305,4.7137,4.7015,4.697,4.6847,4.6803,4.6931,4.7109,4.7266,4.7266,4.7422,4.76,4.76,4.7249,4.7031,4.7226,4.707,4.7031,4.7226,4.707,4.6719,4.6076,4.5781,4.5742,4.5976,4.5781,4.5859,4.6289,4.6289,4.6211,4.6016,4.5976,4.5976,4.5976,4.5586,4.549,4.5686,4.5469,4.3578,4.0109,3.8602,3.5593,0.0,0.0,0.0,0.0,0.0,0.0,0.0,2.3545,2.4375,2.4984,2.7426,3.0002,3.1933,3.4026,3.6053,3.7742,3.9721,4.1374,4.2259,4.3983,4.5039,4.4687,4.4648,4.4766,4.5096,4.5213,4.543,4.5803,4.5803,4.5976,4.6406,4.634,4.6357,4.6457,4.6681,4.6925,4.7275,4.7416,4.7634,4.7831,4.769,4.7578,4.7556,4.7763,4.7482,4.6867,4.8302,4.8693,4.8267,4.687,4.7317,4.8878,4.8546,4.7752,4.6816,4.6814,4.6591,4.6315,4.6491,4.6567,4.6572,4.6545,4.6562,4.6623,4.7081,4.7115,4.7171,4.7847,4.7797,4.76,4.76,4.7449,4.732,4.7556,4.7427,4.732,4.7556,4.7679,4.7718,4.7718,4.7796,4.7835,4.7835,4.7835,4.7835,4.7757,4.764,4.764,4.7718,4.764,4.76,4.76,4.7266,4.7187,4.7561,4.7266,4.6892,4.6562,4.6484,4.6406,4.6406,4.6328,4.6289,4.6289,4.5976,4.5803,4.5803,4.5547,4.4038,4.1457,3.9967,3.7,2.5002,2.406,2.3071,2.3644,2.3446,2.3612,0.0,2.5761,2.6316,2.8875,3.0399,3.214,3.4892,3.5896,3.7445,4.1034,4.124,4.1935,4.4844,4.5457,4.5607,4.5568,4.5568,4.5568,4.5607,4.5937,4.6172,4.6211,4.625,4.6406,4.6814,4.647,4.6537,4.7097,4.6617,4.6763,4.7554,4.7337,4.727,4.727,4.7511,4.801,4.8685,4.8754,4.8692,4.8623,4.8809,4.8005,4.657,4.6376,4.7342,4.8745,4.7209,4.7416,4.859,4.8595,4.7617,4.6415,4.7215,4.7466,4.747,4.7455,4.7444,4.7399,4.7242,4.7349,4.7606,4.7926,4.7797,4.76,4.76,4.7578,4.7578,4.76,4.7578,4.7578,4.76,4.7851,4.8125,4.8125,4.846,4.8757,4.8757,4.8757,4.8617,4.8203,4.7812,4.7757,4.8086,4.7812,4.76,4.76,4.7561,4.7561,4.76,4.7561,4.7522,4.7444,4.7048,4.6853,4.6853,4.6462,4.6289,4.6289,4.625,4.625,4.625,4.654,4.4286,3.9688,3.9604,3.8172,2.6418,2.5974,2.5476,2.5763,2.5631,2.5638,2.6589,2.7969,2.942,3.0705,3.345,3.6228,3.822,3.9946,4.1648,0.0,4.3952,4.445,4.5556,4.592,4.6055,4.6055,4.6055,4.6055,4.6055,4.6384,4.6658,4.6658,4.6658,4.6814,4.7266,4.6664,4.6586,4.7187,4.7121,4.7237,4.7598,4.7506,4.7482,4.7695,4.7797,4.8213,4.8888,4.8385,4.7863,4.7364,4.7373,4.696,4.6311,4.6311,4.6739,4.7299,4.657,4.6754,4.7515,4.8544,4.8419,4.7785,4.7662,4.7937,4.8273,4.7758,4.7472,4.7421,4.7609,4.7625,4.7726,4.8372,4.8451,4.8366,4.8366,4.8366,4.8366,4.8366,4.8366,4.8366,4.8366,4.8499,4.8617,4.8617,4.8796,4.8913,4.8913,4.8913,4.8812,4.8656,4.846,4.8421,4.8578,4.846,4.8265,4.7969,4.8187,4.8148,4.764,4.7812,4.7851,4.76,4.7422,4.7305,4.7305,4.7171,4.7053,4.7053,4.7053,4.7053,4.7053,4.7226,4.6235,4.4124,4.2966,4.1888,2.7551,2.7457,2.763,2.8,2.8174,2.8396,2.918,3.105,3.2839,3.3549,3.6563,3.9572,4.1263,4.3191,4.4766,4.5252,4.582,4.6055,4.5881,4.6094,4.6289,4.6289,4.6406,4.6445,4.6328,4.654,4.6775,4.6892,4.6814,4.6931,4.7383,4.6924,4.6868,4.7288,4.7282,4.7221,4.7221,4.7237,4.7576,4.8245,4.8062,4.8194,4.8538,4.8124,4.7618,4.703,4.7028,4.7004,4.7004,4.7004,4.7024,4.7028,4.6998,4.7022,4.7165,4.8409,4.89,4.8794,4.8162,4.837,4.881,4.8156,4.7833,4.7751,4.8118,4.8115,4.8087,4.8743,4.8922,4.8908,4.8893,4.89,4.8892,4.8892,4.8922,4.8913,4.8913,4.8913,4.8913,4.8913,4.8968,4.9086,4.9086,4.9164,4.9265,4.9265,4.9265,4.9187,4.8952,4.8913,4.8773,4.8437,4.8695,4.8617,4.7991,4.8226,4.8242,4.7991,4.7835,4.7757,4.7757,4.7679,4.76,4.76,4.76,4.76,4.76,4.76,4.7263,4.6548,4.4971,4.425,2.8822,2.864,2.9294,3.0409,3.1102,3.2104,3.4494,3.5411,3.6374,3.8505,3.9765,4.1247,4.3797,4.4684,4.5252,4.6133,4.5959,4.5842,4.6211,4.6289,4.6289,4.6289,4.6658,4.6736,0.0,4.6328,4.6484,4.6892,4.654,4.6501,4.6892,4.732,4.7584,4.7599,4.677,4.6352,4.6352,4.633,4.7201,4.8877,4.8267,4.7855,4.7662,4.8505,4.8855,4.8832,4.8815,4.8815,4.8815,4.8815,4.8815,4.8815,4.8792,4.8811,4.8838,4.8884,4.889,4.8895,4.8856,4.889,4.8889,4.8885,4.8877,4.887,4.8852,4.8874,4.8862,4.8899,4.8893,4.8915,4.8878,4.8905,4.8908,4.8908,4.8893,4.8913,4.8913,4.8913,4.8913,4.8913,4.9219,4.9469,4.9469,4.9844,5.018,5.018,5.018,4.9867,4.9031,4.8913,4.8913,4.8874,4.8913,4.8874,4.8874,4.8874,4.8874,4.8874,4.8437,4.8203,4.8203,4.7835,4.76,4.76,4.76,4.76,4.76,4.76,4.6367,4.4,4.3968,4.3922,2.9446,3.0061,3.0967,3.1709,3.3079,3.446,3.5481,3.6933,3.8471,3.9774,4.0981,4.221,4.3665,4.4297,4.4687,4.5,4.5625,4.6133,4.6289,4.6289,4.6289,4.6289,4.6445,0.0,0.0,0.0,0.0,4.6931,4.6775,4.7009,4.7712,4.7115,4.702,4.7592,4.7884,4.8032,4.8032,4.8024,4.834,4.8924,4.8682,4.8555,4.8483,4.879,4.8921,4.8921,4.8921,4.8921,4.8921,4.8921,4.8921,4.8921,4.8921,4.8892,4.8901,4.8911,4.8912,4.8743,4.7557,4.794,4.8875,4.8904,4.8899,4.8892,4.8888,4.8111,4.7426,4.8559,4.9719,5.0448,4.9889,4.9764,4.9694,4.949,4.9421,4.95,4.9703,4.975,4.975,4.975,4.9867,4.9961,4.9961,5.0102,5.0219,5.0219,5.0219,5.0102,4.9789,4.975,4.975,4.975,4.975,4.975,4.975,4.975,4.975,4.975,4.9633,4.9375,4.9078,4.8922,4.875,4.8483,4.846,4.846,4.846,4.846,4.8032,4.7213,4.7213,4.7342,3.1841,3.2729,3.3629,3.4619,3.6092,3.7546,3.8461,4.0029,4.1432,4.2012,4.2376,4.2891,4.3594,4.3945,4.4219,4.4375,4.5469,4.6367,4.6501,4.6406,4.6367,4.6523,4.6501,4.654,0.0,0.0,0.0,4.6931,4.6892,4.7082,4.7498,4.7059,4.6896,4.7135,4.8296,4.8896,4.8901,4.8894,4.8898,4.8898,4.8888,4.8913,4.8913,4.8892,4.8923,4.8923,4.8923,4.8923,4.8884,4.8906,4.8913,4.8913,4.8913,4.8913,4.8897,4.8908,4.8898,4.8722,4.7611,4.7933,4.8895,4.892,4.8908,4.8901,4.8922,4.8109,4.7592,4.9311,5.0574,5.1309,5.0744,5.0642,5.0549,5.0367,5.0139,5.0061,5.0156,5.0219,5.0219,5.0219,5.0336,5.0391,5.0391,5.0508,5.0625,5.0625,5.0625,5.0508,5.0258,5.0219,5.0219,5.0219,5.0219,5.0219,5.0219,5.0219,5.0219,5.0219,5.0219,5.0039,4.9766,4.9766,4.9609,4.9382,4.9359,4.9359,4.9359,4.9359,4.9359,4.9359,4.9359,4.9515,3.5722,3.6464,3.7206,3.8897,4.004,4.1252,4.3294,4.4393,4.4979,4.4901,4.3867,4.3106,4.3398,4.3516,4.375,4.418,4.543,4.6462,4.6853,4.6579,4.6462,0.0,0.0,0.0,0.0,0.0,0.0,4.697,0.0,4.6759,4.6431,4.7165,4.7228,4.6436,4.8044,4.8898,4.8913,4.8913,4.8936,4.9022,4.9022,4.8975,4.8883,4.8908,4.8946,4.9055,4.9055,4.897,4.8908,4.8923,4.8906,4.8906,4.8906,4.8906,4.8906,4.8906,4.889,4.8897,4.8905,4.89,4.8911,4.8881,4.8916,4.8926,4.8985,4.9022,4.9364,5.0945,5.1412,5.1392,5.1416,5.1404,5.1385,5.1385,5.1022,5.0574,5.0345,5.0258,5.0258,5.0258,5.0547,5.082,5.082,5.1148,5.1421,5.1421,5.1421,5.1109,5.0375,5.0258,5.0258,5.0258,5.0258,5.0258,5.0258,5.0258,5.0258,5.0258,5.0258,5.0258,5.0219,5.0219,5.0219,5.0219,5.0219,5.0219,5.0219,5.0219,5.0219,5.0219,5.0219,5.0219,3.6846,3.8343,3.9734,4.0747,4.2444,4.401,4.454,4.4862,4.4627,4.3339,4.2344,4.1308,4.0136,4.1211,4.2305,4.2422,4.4862,4.6775,4.6892,4.6814,0.0,4.6892,0.0,4.6501,4.6736,4.6931,0.0,0.0,4.7422,4.7516,4.7699,4.7619,4.7784,4.821,4.8672,4.8904,4.8913,4.8913,4.9535,5.078,5.078,5.0133,4.8905,4.8887,4.9591,5.0763,5.0763,5.0063,4.8902,4.892,4.8905,4.8905,4.8905,4.8905,4.889,4.8892,4.8908,4.8877,4.8913,4.8911,4.8897,4.89,4.8913,4.9125,5.0385,5.0747,5.0829,5.1276,5.1392,5.1401,5.1406,5.1391,5.1425,5.1425,5.1283,5.1181,5.1133,5.1069,5.1069,5.1069,5.1187,5.1265,5.1265,5.1343,5.1421,5.1421,5.1421,5.1343,5.1109,5.1069,5.1069,5.1069,5.1069,5.1069,5.1069,5.1069,5.1069,5.1069,5.1069,5.0976,5.0664,5.0664,5.0508,5.0219,5.0219,5.0219,5.0219,5.0219,5.0219,5.0219,5.0219,5.0375,3.9798,4.1245,4.234,4.2914,4.4198,4.5078,4.4081,4.4003,4.3555,4.1426,4.0195,3.9198,3.8221,3.9766,4.1348,4.1719,4.4666,4.7048,4.7399,4.7126,4.697,0.0,4.6836,0.0,4.6892,4.7243,4.7556,0.0,4.7851,4.7969,4.8096,4.8137,4.8394,4.889,4.8908,4.8885,4.89,4.89,4.9391,5.0299,5.1037,5.0928,4.9975,4.9988,5.0516,5.1396,0.0,5.0894,5.0018,5.0018,5.0018,4.9979,5.0005,5.0021,5.0003,4.9984,4.9537,4.8908,4.8902,4.8902,4.8911,4.8906,4.9421,5.0164,5.1103,5.138,5.1413,5.1413,5.1386,5.1421,5.1421,5.1421,5.1421,5.1421,5.1421,5.1421,5.1421,5.1421,5.1421,5.1421,5.1421,5.1421,5.1421,5.1421,5.1421,5.1421,5.1421,5.146,5.168,5.1538,5.146,5.168,5.1719,5.1797,5.1968,5.1811,5.1719,5.1719,5.1499,5.1304,5.1069,5.1069,5.0976,5.0742,5.0742,5.0742,5.0742,5.0742,5.0742,5.0742,5.0742,5.0859,4.3242,4.418,4.4609,4.5057,4.5469,4.5217,4.3008,4.2773,4.2207,3.9297,3.7812,3.6992,3.6758,3.8575,4.0489,4.1562,4.4588,4.7126,4.8086,4.7477,4.7165,4.7617,4.7226,4.697,4.7048,4.7751,4.8242,4.8281,4.8359,4.8314,4.8128,4.861,4.889,4.8922,4.911,4.9226,4.9213,4.9213,4.9227,4.9242,5.0723,5.142,5.1412,5.1402,5.1401,5.1416,0.0,0.0,5.1727,5.151,5.1398,5.1446,5.165,5.1594,5.1383,5.1412,5.049,4.9266,4.9522,4.9587,4.9532,4.9288,5.0054,5.1121,5.1332,5.1422,5.1416,5.1416,5.1416,5.1416,5.1426,5.1387,5.1411,5.1397,5.1421,5.1421,5.1421,5.1421,5.1421,5.1421,5.1421,5.1421,5.1421,5.1421,5.1421,5.1499,5.1499,5.1655,5.2109,5.1797,5.1655,5.2109,5.2148,5.2305,5.2695,5.2383,5.2148,5.2148,5.1772,5.1577,5.1577,5.1577,5.1538,5.1499,5.1499,5.146,5.1421,5.1421,5.1421,5.1421,5.1421,5.1421,4.4471,4.4822,4.5096,4.5898,4.6133,4.5625,4.3476,4.2734,4.1269,3.6953,3.5859,3.5273,3.3844,3.6194,3.9005,4.0996,4.418,4.6836,4.8047,4.7773,4.7617,4.8047,4.7399,4.7165,4.7907,4.8125,0.0,0.0,4.9101,4.9117,4.875,4.8851,4.8892,4.8924,5.0228,5.0976,5.0984,5.0984,5.096,5.0997,5.1252,5.1401,5.1371,5.1401,5.1416,5.1391,5.1386,0.0,5.3421,5.199,5.1408,5.1556,5.2999,5.268,5.1405,5.1411,5.1212,5.1152,5.2602,5.3109,5.2876,5.1433,5.0228,4.9573,5.0966,5.1408,5.141,5.141,5.141,5.1383,5.1423,5.1419,5.1391,5.1387,5.1421,5.1421,5.1421,5.1421,5.1421,5.1421,5.1421,5.1421,5.1421,5.1421,5.1538,5.1914,5.1953,5.2109,5.2539,5.2226,5.2148,5.2539,5.2617,5.2617,5.2695,5.2656,5.2617,5.2617,5.2539,5.2475,5.2475,5.2475,5.2305,5.2017,5.1953,5.1797,5.1421,5.1421,5.1421,5.1421,5.1421,5.1421,4.5117,4.5351,4.5508,4.6133,4.6484,4.5642,4.1914,4.0898,3.9317,3.4414,3.3359,3.3203,3.2593,3.5273,3.8164,3.9902,4.3458,4.6328,4.736,4.7952,4.8265,4.8203,4.8047,4.8008,4.8203,4.8398,4.8734,4.918,4.9391,4.943,4.9219,4.8994,4.932,5.0195,5.0976,5.1419,5.1409,5.1409,5.1392,5.1404,5.1404,5.141,5.1421,5.1421,5.1402,5.1386,5.1416,0.0,5.3931,5.3104,5.2743,5.2843,5.3673,5.2915,5.1514,5.2428,5.2739,5.2886,5.3703,5.3996,5.3873,5.3016,5.2224,5.1708,5.2521,5.2727,5.2759,5.2759,5.2759,5.277,5.2762,5.2096,5.1507,5.1962,5.2085,5.2085,5.2085,5.2085,5.2085,5.2085,5.2085,5.2085,5.2085,5.2085,5.2124,5.2383,5.2422,5.2578,5.3033,5.2915,5.2837,5.3033,5.3072,5.3125,5.3334,5.3164,5.3072,5.3072,5.2851,5.2695,5.2695,5.2695,5.2617,5.2422,5.2422,5.2305,5.2085,5.2085,5.2085,5.2085,5.1875,5.1758,4.5568,4.5842,4.5959,4.6445,4.6736,4.5564,4.0508,3.9141,3.7461,3.2289,3.1235,3.1391,3.1929,3.4547,3.7187,3.9062,4.2461,4.5351,4.6697,4.7891,4.8538,4.8359,4.8656,4.8757,4.8398,4.8773,0.0,4.9469,4.964,4.9718,4.9664,4.934,4.986,5.1346,5.1407,5.1395,5.1421,5.1387,5.1387,5.1421,5.1421,5.1421,5.1421,5.1421,5.1392,5.1419,5.1782,0.0,0.0,5.4028,5.4009,5.3998,5.4009,5.3169,5.2099,5.308,5.3661,5.3984,5.4009,5.3992,5.3998,5.3998,5.4001,5.4005,5.4016,5.3996,5.3995,5.3995,5.3995,5.402,5.4015,5.299,5.2108,5.2684,5.2759,5.2695,5.2695,5.2695,5.2695,5.2695,5.2695,5.2695,5.2695,5.2695,5.2734,5.2851,5.2851,5.3008,5.3463,5.3541,5.3541,5.3541,5.3541,5.3658,5.3959,5.3711,5.3541,5.3541,5.3164,5.3008,5.3008,5.3008,5.293,5.2851,5.2851,5.2812,5.2695,5.2695,5.2695,5.2695,5.2383,5.2226,4.5898,4.625,4.6445,4.7266,4.7187,4.5681,4.0898,3.8888,3.6528,3.1362,3.0337,3.0586,3.1391,3.3125,3.5603,3.9219,4.1133,4.3281,4.6462,4.7383,4.7991,4.8757,4.8874,4.8874,4.8835,4.9219,4.9469,4.9508,5.0139,5.0412,5.0141,5.012,5.0487,5.137,5.1402,5.1386,5.1421,5.1401,5.1401,5.1421,5.1421,5.1421,5.1421,5.1421,5.1397,5.1499,5.3063,0.0,0.0,5.4028,5.4015,5.3996,5.3998,5.3886,5.3586,5.2168,5.2639,5.3996,5.401,5.4023,5.3998,5.3998,5.401,5.4022,5.4008,5.3982,5.3996,5.3996,5.3996,5.3994,5.4009,5.3891,5.3672,5.3254,5.2923,5.2695,5.2695,5.2695,5.2695,5.2695,5.2695,5.2695,5.2695,5.2695,5.2851,5.3267,5.3371,5.3502,5.3881,5.3959,5.3959,5.3959,5.3959,5.3959,5.3998,5.3959,5.3959,5.3959,5.392,5.3881,5.3881,5.3881,5.3711,5.3345,5.3371,5.315,5.2695,5.2695,5.2695,5.2695,5.2656,5.2656,4.6228,4.6658,4.6814,4.7444,4.668,4.4666,4.043,3.7891,3.5234,3.104,3.0,3.017,3.1274,3.268,3.4687,3.7812,3.9825,4.1855,4.4258,4.6523,4.7891,4.7734,4.889,4.9555,4.9297,4.9391,4.9679,5.0139,5.0724,5.1021,5.0937,5.0935,5.108,5.1377,5.1388,5.1919,5.2926,5.1923,5.1394,5.1401,5.1402,5.1421,5.1421,5.1421,5.1377,5.1425,5.2129,0.0,0.0,5.3586,5.399,5.3998,5.3994,5.4017,5.3914,5.3213,5.3405,5.4004,5.3996,5.3998,5.3998,5.3998,5.3998,5.3998,5.3998,5.3998,5.3998,5.3998,5.3998,5.3984,5.3994,5.4006,5.3967,5.372,5.3566,5.349,5.349,5.349,5.349,5.349,5.349,5.349,5.349,5.349,5.3555,5.375,5.375,5.3828,5.3998,5.3998,5.3998,5.3998,5.3998,5.3998,5.3998,5.3998,5.3998,5.3998,5.3998,5.3998,5.3998,5.3998,5.392,5.375,5.375,5.3672,5.349,5.349,5.349,5.349,5.3242,5.3111,4.6189,4.6892,4.7266,4.7835,4.6367,4.3846,4.0234,3.7127,3.4118,3.0874,2.9858,2.9936,3.1094,3.2367,3.4007,3.6523,3.8497,4.0528,4.2794,4.5412,4.6992,4.6736,4.832,4.9297,4.8984,4.9282,4.9921,5.0778,5.1177,5.1411,5.1392,5.1409,5.1652,5.2158,5.2174,5.2759,5.3996,5.2791,5.1905,5.1398,5.1411,5.1402,5.1421,5.1421,5.1406,5.1398,0.0,0.0,0.0,5.327,5.399,5.3998,5.3998,5.3994,5.4015,5.3996,5.3994,5.4015,5.3996,5.3998,5.3998,5.3998,5.3998,5.3998,5.3998,5.3998,5.3998,5.3998,5.3998,5.3998,5.3998,5.3998,5.3998,5.3998,5.3998,5.3998,5.3998,5.3998,5.3998,5.3998,5.3998,5.3998,5.3998,5.3998,5.3998,5.3998,5.3998,5.3998,5.3998,5.3998,5.3998,5.3998,5.3998,5.3998,5.3998,5.3998,5.3998,5.3998,5.3998,5.3998,5.3998,5.3998,5.3998,5.3998,5.3998,5.3998,5.3998,5.3998,5.3998,5.3998,5.3711,5.358,4.5625,4.6914,4.7796,4.8679,4.6623,4.3594,4.0586,3.6892,3.3391,3.0742,2.9858,2.9872,3.0742,3.1968,3.3516,3.5647,3.7092,3.9122,4.2598,4.3867,4.4922,4.6172,4.7092,4.764,4.764,4.8893,5.0167,5.1319,5.1421,0.0,5.1384,5.141,5.2174,5.3898,5.3946,5.3996,5.4021,5.3988,5.3119,5.1398,5.1398,5.1415,5.1421,5.1421,5.1406,0.0,0.0,0.0,0.0,5.327,5.399,5.3998,5.3998,5.3998,5.3998,5.3998,5.3998,5.3998,5.3998,5.3998,5.3998,5.3998,5.3998,5.3998,5.3998,5.3998,5.3998,5.3998,5.3998,5.3998,5.3998,5.3998,5.3998,5.3998,5.3998,5.3998,5.3998,5.3998,5.3998,5.3998,5.3998,5.3998,5.3998,5.3998,5.3998,5.3998,5.3998,5.3998,5.3998,5.3998,5.3998,5.3998,5.3998,5.3998,5.3998,5.3998,5.3998,5.3998,5.3998,5.3998,5.3998,5.3998,5.3998,5.3998,5.3998,5.3998,5.3998,5.3998,5.3998,5.3998,5.3998,5.3998,4.2695,4.3867,4.4435,4.4122,4.2246,3.9844,3.7716,3.4687,3.1914,3.0508,2.9858,2.9872,3.0757,3.1445,3.2992,3.6367,3.7443,3.9005,4.2187,4.4922,4.6545,4.6328,4.8359,4.9726,4.9637,5.0386,5.1017,5.1376,5.1391,5.1425,5.1406,5.2557,5.2876,5.2249,5.3398,5.3998,5.3988,5.3995,5.3713,5.3157,5.1983,5.1402,5.1421,5.1421,0.0,0.0,0.0,0.0,0.0,5.3762,5.399,5.3998,5.3998,5.3998,5.3998,5.3998,5.3998,5.3998,5.3998,5.3998,5.3998,5.3998,5.3998,5.3998,5.3998,5.3998,5.3998,5.3998,5.3998,5.3998,5.3998,5.3998,5.3998,5.3998,5.3998,5.3998,5.3998,5.3998,5.3998,5.3998,5.3998,5.3998,5.3998,5.3998,5.3998,5.3998,5.3998,5.3998,5.3998,5.3998,5.3998,5.3998,5.3998,5.3998,5.3998,5.3998,5.3998,5.3998,5.3998,5.3998,5.3998,5.3998,5.3998,5.3998,5.3998,5.3998,5.3998,5.3998,5.3998,5.3998,5.3998,5.3998,3.9883,4.1328,4.2031,4.1641,3.9706,3.7557,3.6272,3.3539,3.1133,3.0586,3.0131,3.0053,3.0757,3.1367,3.2656,3.5391,3.6584,3.8341,4.1699,4.4336,4.6194,4.6914,4.8828,5.0036,4.9992,5.0818,5.1415,5.1405,5.1402,5.1672,5.2335,5.2778,5.2507,5.1435,5.3084,5.4001,5.4015,5.3359,5.3005,5.302,5.1933,5.1411,5.1421,5.1416,0.0,0.0,0.0,0.0,0.0,5.4012,5.398,5.3998,5.3998,5.3998,5.3998,5.3998,5.3998,5.3998,5.3998,5.3998,5.3998,5.3998,5.3999,5.3988,5.3976,5.3988,5.3998,5.3998,5.3998,5.3998,5.3998,5.3998,5.3998,5.3998,5.3998,5.3998,5.3998,5.3998,5.3998,5.3998,5.3998,5.3998,5.3998,5.3998,5.3998,5.3998,5.3998,5.3998,5.3998,5.3998,5.3998,5.3998,5.3998,5.3998,5.3998,5.3998,5.3998,5.3998,5.3998,5.3998,5.3998,5.3998,5.3998,5.3998,5.3998,5.3998,5.3998,5.3998,5.3998,5.3998,5.3998,5.3998,0.0,3.9023,4.0176,4.0527,3.8513,3.6306,3.5803,3.3203,0.0,3.0913,3.0522,3.0351,3.0937,3.1655,3.2476,3.35,3.5061,3.7482,4.1406,4.2851,4.4748,4.8008,4.8812,4.911,4.9172,5.0589,5.1528,5.1603,5.1581,5.2234,5.3762,5.2399,5.1584,5.156,5.3139,5.3988,5.401,5.2399,5.16,5.1578,5.1465,5.1391,5.1411,5.1415,0.0,0.0,0.0,0.0,0.0,5.3998,5.3998,5.3998,5.3998,5.3998,5.3998,5.3998,5.3998,5.3998,5.3998,5.3998,5.3998,5.3998,5.4078,5.4183,5.4155,5.4106,5.3986,5.3986,5.4011,5.3998,5.3998,5.3998,5.3998,5.3998,5.3998,5.3998,5.3998,5.3998,5.3998,5.3998,5.3998,5.3998,5.3998,5.3998,5.3998,5.3998,5.3998,5.3998,5.3998,5.3998,5.3998,5.3998,5.3998,5.3998,5.3998,5.3998,5.3998,5.3998,5.3998,5.3998,5.3998,5.3998,5.3998,5.3998,5.3998,5.3998,5.3998,5.3998,5.3998,5.3998,5.3998,5.3998,3.1929,0.0,3.5859,3.5,3.4235,3.3516,0.0,3.1719,3.0913,3.0913,3.0522,3.0625,3.2085,3.1992,3.2695,3.5859,3.6975,3.881,4.2695,4.6016,4.8532,5.0,5.0586,5.1094,5.1743,5.2139,5.2665,5.335,5.3385,5.2965,5.2057,5.288,5.3372,5.3401,5.379,5.4006,5.4012,5.3566,5.3382,5.3389,5.2057,5.1412,5.1405,5.1421,0.0,0.0,0.0,0.0,5.4026,5.3982,5.3998,5.3998,5.3998,5.3998,5.3998,5.3998,5.3998,5.3998,5.3998,5.3998,5.3998,5.3998,5.4886,5.5974,5.5998,5.505,5.3989,5.3989,5.3988,5.3998,5.3998,5.3998,5.3998,5.3998,5.3998,5.3998,5.3998,5.3998,5.3998,5.3998,5.3998,5.3998,5.3998,5.3998,5.3998,5.3998,5.3998,5.3998,5.3998,5.3998,5.3998,5.3998,5.3998,5.3998,5.3998,5.3998,5.3998,5.3998,5.3998,5.3998,5.3998,5.3998,5.3998,5.3998,5.3998,5.3998,5.3998,5.3998,5.3998,5.3998,5.3998,5.3998,2.9858,3.1851,3.3672,3.2969,3.2672,3.2437,3.2148,3.1187,3.0405,3.0835,3.0522,3.0625,3.1953,3.2812,3.3906,3.582,3.8107,4.0957,4.4627,4.7673,4.9898,5.0952,5.1265,5.1709,0.0,5.2983,5.3479,5.397,5.4001,5.3603,5.2631,5.3497,5.4003,5.4004,5.4004,5.4004,5.4004,5.4004,5.4023,5.397,5.3051,5.2163,5.1394,5.1419,5.1909,0.0,0.0,0.0,5.3978,5.3996,5.3998,5.3998,5.3998,5.3998,5.3998,5.3998,5.3998,5.3998,5.3998,5.3998,5.4011,5.3975,5.4645,5.5395,5.5441,5.5324,5.5024,5.4235,5.3976,5.3998,5.3998,5.3998,5.3998,5.3998,5.3998,5.3998,5.3998,5.3998,5.3998,5.3998,5.3998,5.3998,5.3998,5.3998,5.3998,5.3998,5.3998,5.3998,5.3998,5.3998,5.3998,5.3998,5.3998,5.3998,5.3998,5.3998,5.3998,5.3998,5.3998,5.3998,5.3998,5.3998,5.3998,5.3998,5.3998,5.3998,5.3998,5.3998,5.3998,5.3998,5.3998,5.3998,2.9701,3.1538,3.3164,3.2539,3.2281,3.2257,3.2461,3.1108,3.0028,3.0757,3.0625,3.082,3.2133,3.4023,3.5508,3.582,3.9609,4.3612,4.6853,4.8805,5.0289,5.1382,5.1577,0.0,5.2253,5.3256,5.3855,5.383,5.3805,5.388,5.3981,5.3995,5.4001,5.3998,5.3998,5.3998,5.3998,5.3998,5.3994,5.3998,5.4009,5.3214,5.1806,5.1773,5.1801,0.0,0.0,0.0,5.3998,5.3998,5.3998,5.3998,5.3998,5.3998,5.3998,5.3998,5.3998,5.3998,5.3998,5.3998,5.3986,5.4002,5.3976,5.4002,5.4,5.5039,5.5905,5.4429,5.3976,5.3998,5.3998,5.3998,5.3998,5.3998,5.3998,5.3998,5.3998,5.3998,5.3998,5.3998,5.3998,5.3998,5.3998,5.3998,5.3998,5.3998,5.3998,5.3998,5.3998,5.3998,5.3998,5.3998,5.3998,5.3998,5.3998,5.3998,5.3998,5.3998,5.3998,5.3998,5.3998,5.3998,5.3998,5.3998,5.3998,5.3998,5.3998,5.3998,5.3998,5.3998,5.3998,5.3998,3.0703,3.3304,3.471,3.1406,3.1421,3.2022,3.1343,3.0952,3.0757,3.0874,3.1133,3.2328,3.5781,3.5859,3.668,4.0567,4.369,4.6445,4.8766,5.0625,5.1758,5.1953,5.2305,5.2479,5.2283,5.2935,5.3219,5.2915,5.2901,5.3231,5.397,5.3995,5.4001,5.3998,5.3998,5.3998,5.3998,5.3998,5.4023,5.3996,5.4026,5.3841,5.3597,5.3626,5.3615,0.0,0.0,5.4004,5.3998,5.3998,5.3998,5.3998,5.3998,5.3998,5.3998,5.3998,5.3998,5.3998,5.3998,5.3998,5.3972,5.4025,5.3999,5.4026,5.4002,5.4208,5.436,5.4093,5.3976,5.3998,5.3998,5.3998,5.3998,5.3998,5.3998,5.3998,5.3998,5.3998,5.3998,5.3998,5.3998,5.3998,5.3998,5.3998,5.3998,5.3998,5.3998,5.3998,5.3998,5.3998,5.3998,5.3998,5.3998,5.3998,5.3998,5.3998,5.3998,5.3998,5.3998,5.3998,5.3998,5.3998,5.3998,5.3998,5.3998,5.3998,5.3998,5.3998,5.3998,5.3998,5.3998,5.3998,2.9492,3.1484,3.3164,3.2734,3.5056,3.7361,3.7148,3.6406,3.5547,3.4827,3.4648,3.5312,3.7596,3.8633,4.0801,4.582,4.7249,4.8304,4.9961,5.1094,5.1914,0.0,0.0,5.2841,5.3169,5.3474,5.3575,5.341,0.0,0.0,5.3995,5.3976,5.3994,5.3998,5.3998,5.3998,5.3998,5.3998,5.3998,5.3998,5.3994,5.3992,5.3992,5.3987,5.4026,5.3992,0.0,5.3994,5.3998,5.3998,5.3998,5.3998,5.3998,5.3998,5.3998,5.3998,5.3998,5.3998,5.3998,5.3998,5.3998,5.3998,5.3998,5.4011,5.4014,5.3987,5.4011,5.4014,5.3987,5.3998,5.3998,5.3998,5.3998,5.3998,5.3998,5.3998,5.3998,5.4193,5.4297,5.4037,5.4193,5.4297,5.4037,5.3998,5.3998,5.3998,5.3998,5.3998,5.3998,5.4193,5.4375,5.4375,5.4375,5.4375,5.4375,5.4154,5.3998,5.3998,5.3998,5.3998,5.3998,5.3998,5.3998,5.3998,5.3998,5.3998,5.3998,5.3998,5.3998,5.3998,5.3998,5.3998,2.9193,3.0639,3.2593,3.5117,3.7734,4.0117,4.1738,4.0586,3.9023,3.8614,3.8437,3.8633,3.9472,4.1836,4.5,4.9203,4.9461,4.9624,5.1162,5.1631,5.2099,5.2905,5.2983,5.3256,5.3959,5.3992,5.4012,5.4012,0.0,0.0,5.4012,5.4008,5.3998,5.3998,5.3998,5.3998,5.3998,5.3998,5.3998,5.3998,5.3998,5.3998,5.3998,5.3998,5.3998,5.3998,5.3998,5.3998,5.3998,5.3998,5.3998,5.3998,5.3998,5.3998,5.3998,5.3998,5.3998,5.3998,5.3998,5.3998,5.3998,5.3998,5.3998,5.3998,5.3998,5.3998,5.3998,5.3998,5.3998,5.3998,5.3998,5.3998,5.3998,5.3998,5.3998,5.3998,5.3998,5.4375,5.457,5.4232,5.4531,5.4726,5.4349,5.431,5.431,5.431,5.431,5.431,5.431,5.4609,5.4844,5.4844,5.4844,5.4844,5.4844,5.4531,5.431,5.431,5.4115,5.3998,5.3998,5.3998,5.3998,5.3998,5.3998,5.3998,5.3998,5.3998,5.3998,5.3998,5.3998,5.3998,3.1836,3.375,3.5664,3.8242,3.6133,3.4805,4.0097,3.9003,3.7557,3.9825,4.0918,4.1719,4.2637,4.5217,4.76,4.8796,4.9342,5.0426,5.2716,0.0,5.3284,5.3842,5.392,5.392,5.3998,5.4023,5.3984,5.3984,0.0,0.0,5.3984,5.3998,5.3998,5.3998,5.3998,5.3998,5.3998,5.3998,5.3998,5.3998,5.3998,5.3998,5.3998,5.3998,5.3998,5.3998,5.3998,5.3998,5.3998,5.3998,5.3998,5.3998,5.3998,5.3998,5.3998,5.3998,5.3998,5.3998,5.3998,5.3998,5.3998,5.3998,5.3998,5.3998,5.3998,5.3998,5.3998,5.3998,5.3998,5.3998,5.3998,5.3998,5.3998,5.3998,5.3998,5.3998,5.3998,5.4375,5.4713,5.4674,5.4961,5.5234,5.5234,5.5234,5.5234,5.5234,5.5234,5.5234,5.5234,5.5234,5.5273,5.5273,5.5273,5.5273,5.5273,5.5234,5.5234,5.5234,5.4427,5.3998,5.3998,5.3998,5.3998,5.3998,5.3998,5.3998,5.3998,5.3998,5.3998,5.3998,5.3998,5.3998,3.0444,3.3062,3.5859,3.7873,3.7812,3.8476,4.3281,4.4101,4.3906,4.4062,4.4805,4.543,4.5469,4.8164,5.0336,5.0141,5.1158,5.2315,5.3192,5.3543,5.3777,5.3998,5.3998,5.3998,5.3998,5.3998,5.3998,0.0,0.0,0.0,5.3998,5.3998,5.3998,5.3998,5.3998,5.3998,5.3998,5.3998,5.3998,5.3998,5.3998,5.3998,5.3998,5.3998,5.3998,5.3998,5.3998,5.3998,5.3998,5.3998,5.3998,5.3998,5.3998,5.3998,5.3998,5.3998,5.3998,5.3998,5.3998,5.3998,5.3998,5.3998,5.3998,5.3998,5.3998,5.3998,5.4022,5.3992,5.4026,5.3998,5.3998,5.3998,5.3998,5.3998,5.3998,5.4076,5.4375,5.4765,5.5078,5.5078,5.543,5.5599,5.5351,5.5312,5.5312,5.5312,5.5312,5.5312,5.5312,5.5521,5.5677,5.5677,5.5677,5.556,5.5312,5.5312,5.5312,5.5312,5.4974,5.4818,5.4818,5.4818,5.4818,5.4818,5.4818,5.4818,5.4818,5.4818,5.4818,5.4818,5.4818,5.4818,3.1523,3.3867,3.6662,3.881,3.9591,4.1016,4.5312,4.668,4.7109,4.7461,4.7796,4.7991,4.7969,4.9883,5.1391,5.1055,5.2305,5.3398,5.358,5.3828,5.3998,5.3998,5.3998,5.3998,5.3998,5.3998,5.3998,0.0,0.0,0.0,0.0,5.3998,5.3998,5.3998,5.3998,5.3998,5.3998,5.3998,5.3998,5.3998,5.3998,5.3998,5.3998,5.3998,5.3998,5.3998,5.3998,5.3998,5.3998,5.3998,5.3998,5.3998,5.3998,5.3998,5.3998,5.3998,5.3998,5.3998,5.3998,5.3998,5.3998,5.3998,5.3998,5.3998,5.3998,5.402,5.4009,5.3981,5.6366,5.8102,5.4831,5.398,5.3998,5.3998,5.3998,5.4115,5.4596,5.5,5.5351,5.5442,5.5833,5.6028,5.5742,5.5703,5.5703,5.5703,5.5703,5.5703,5.5703,5.595,5.6106,5.6106,5.6106,5.6015,5.5742,5.5703,5.5703,5.5703,5.5703,5.5586,5.5312,5.5312,5.5312,5.5312,5.5312,5.5312,5.5312,5.5312,5.5312,5.5312,5.5312,5.5234,3.5959,3.6936,3.8635,4.1621,4.1172,4.1094,4.5351,4.5351,4.5547,4.9398,4.9539,4.9187,5.0063,5.0219,5.0469,5.1265,5.2425,5.3375,5.3959,5.3998,5.3998,5.3998,5.3998,5.3998,5.3998,5.3998,5.3998,0.0,0.0,0.0,0.0,5.3998,5.3998,5.3998,5.3998,5.3998,5.3998,5.3998,5.3998,5.3998,5.3998,5.3998,5.3998,5.3998,5.3998,5.3998,5.3998,5.3998,5.3998,5.3998,5.3998,5.3998,5.3998,5.3998,5.3998,5.3998,5.3998,5.3998,5.3998,5.3972,5.3972,5.3972,5.3972,5.3998,5.3998,5.4006,5.3996,5.4135,6.1529,6.7023,5.6685,5.3992,5.3998,5.3998,5.3998,5.4115,5.4609,5.5,5.543,5.5833,5.6289,5.6628,5.6628,5.6628,5.6628,5.6628,5.6628,5.6628,5.6628,5.6628,5.6628,5.6628,5.6628,5.6628,5.6628,5.6628,5.6628,5.6628,5.6628,5.6211,5.5351,5.5312,5.5312,5.5312,5.5312,5.5312,5.5312,5.5312,5.5312,5.5312,5.5312,5.5078,3.25,3.6211,4.0136,3.9823,4.3242,4.6736,4.7109,4.7148,4.7851,5.0508,5.0391,4.9984,5.0508,5.1367,5.1953,5.1914,5.2944,5.3816,5.3998,5.3998,5.3998,5.3998,5.3998,5.3998,5.3998,5.3998,0.0,0.0,0.0,0.0,0.0,5.3998,5.3998,5.3998,5.3998,5.3998,5.3998,5.3998,5.3998,5.3998,5.3998,5.3998,5.3998,5.3998,5.3998,5.3998,5.3998,5.3998,5.3998,5.3998,5.3998,5.3998,5.3998,5.3998,5.3998,5.3998,5.4,5.4015,5.4015,5.3976,5.3988,5.3988,5.3989,5.4001,5.399,5.402,5.5532,6.2793,6.7017,6.7176,5.7448,5.4888,5.474,5.4154,5.3998,5.4193,5.4961,5.5234,5.5508,5.625,5.6484,5.6628,5.6628,5.6628,5.6628,5.6628,5.6628,5.6628,5.6628,5.6628,5.6628,5.6628,5.6628,5.6628,5.6628,5.6628,5.6628,5.6628,5.6628,5.6484,5.6211,5.6211,5.6211,5.6211,5.6211,5.6211,5.6211,5.6211,5.6211,5.6211,5.6211,5.6133,3.697,4.0214,4.3184,4.4005,4.6367,4.8571,4.9023,4.918,4.9648,5.1109,5.1012,5.0745,5.1017,5.1951,5.2613,5.2404,5.3258,5.3998,5.3998,5.3998,5.3998,5.3998,5.3998,5.3998,5.3998,5.3998,0.0,0.0,0.0,0.0,0.0,5.3998,5.3998,5.3998,5.3998,5.3998,5.3998,5.436,5.4515,5.4515,5.4544,5.4505,5.4505,5.4154,5.3998,5.3972,5.4026,5.4014,5.4002,5.4002,5.4002,5.4002,5.4002,5.4002,5.4002,5.4002,5.3989,5.4105,5.4779,5.5026,5.5025,5.5025,5.5012,5.4899,5.4186,5.6875,6.1413,6.765,6.6933,6.2976,5.7273,5.5638,5.526,5.4453,5.4388,5.4662,5.5195,5.6278,5.7378,5.8036,5.9078,5.9498,5.8368,5.8197,5.7826,5.6749,5.6628,5.6628,5.6628,5.6628,5.6628,5.6628,5.6628,5.6628,5.6628,5.6628,5.6628,5.6628,5.6628,5.6628,5.6628,5.6628,5.6628,5.6628,5.6628,5.6628,5.6628,5.6628,5.6628,5.6628,5.6628,5.6484,4.506,4.6194,4.6797,5.1055,4.9664,4.7985,5.0835,5.1187,5.1055,5.1421,5.1489,5.1486,5.1563,5.2183,5.275,5.2789,5.3508,5.3998,5.3998,5.3998,5.3998,5.3998,5.3998,5.3998,5.3998,5.3998,0.0,0.0,0.0,0.0,0.0,5.3998,5.3998,5.3998,5.4011,5.4011,5.3998,5.4776,5.5258,5.5426,5.5338,5.5312,5.5273,5.4466,5.4089,5.4013,5.4144,5.4221,5.4231,5.4231,5.4231,5.4231,5.4231,5.4231,5.4231,5.4231,5.4243,5.4477,5.6071,5.6595,5.6569,5.6569,5.6609,5.6467,5.5905,6.2132,6.9497,6.9894,6.3652,5.6882,5.7138,5.6528,5.5665,5.4974,5.5039,5.5391,5.5665,5.7984,6.0213,6.0841,6.3007,6.3847,6.1054,6.0588,5.9692,5.6989,5.6628,5.6628,5.6628,5.6628,5.6628,5.6628,5.6628,5.6628,5.6628,5.6628,5.6628,5.6628,5.6628,5.6628,5.6628,5.6628,5.6628,5.6628,5.6628,5.6628,5.6628,5.6628,5.6628,5.6628,5.6628,5.6367,3.832,4.248,4.6814,4.75,4.8828,5.0312,5.1641,5.1875,5.1914,5.2344,5.2177,5.2103,5.2716,5.2963,5.3222,5.3662,5.3869,5.3998,5.3998,5.3998,5.3998,5.3998,5.3998,5.3998,5.3998,5.3998,0.0,0.0,0.0,0.0,5.3998,5.3998,5.3998,5.3998,5.3976,5.4014,5.3998,5.4183,5.4974,0.0,5.5821,5.5482,5.5312,5.5117,5.4675,5.4078,5.543,5.6031,5.6057,5.6057,5.6057,5.6057,5.6057,5.6057,5.6057,5.6057,5.6058,5.607,5.6478,5.6596,5.658,5.658,5.6608,5.8119,6.623,6.9037,7.012,7.3668,6.6952,5.9119,6.1172,5.9398,5.6813,5.5859,5.5442,5.5952,5.8464,5.9515,6.0735,6.3327,6.4303,6.3847,6.1054,6.0588,5.9692,5.6989,5.6628,5.6628,5.6628,5.6628,5.6628,5.6628,5.6628,5.6628,5.6628,5.6628,5.6628,5.6628,5.6628,5.6628,5.6628,5.6628,5.6628,5.6628,5.6628,5.6628,5.6628,5.6628,5.6628,5.6628,5.6628,5.6523,4.043,4.3729,4.6423,4.8258,4.9898,5.1289,5.1938,5.2095,5.229,5.2915,5.2826,5.2762,5.3141,5.344,5.3674,5.3959,5.3998,5.3998,5.3998,5.3998,5.3998,5.3998,5.3998,5.3998,5.3998,5.3998,0.0,0.0,0.0,5.4,5.3972,5.4028,5.4002,5.4001,5.4002,5.4403,5.5244,5.4426,5.488,5.6594,5.6281,5.6043,5.5898,5.5364,5.4946,5.4656,5.514,5.5821,5.6596,5.6596,5.6596,5.6596,5.6596,5.6596,5.662,5.662,5.6603,5.6609,5.6609,5.6618,5.6603,5.6593,5.6607,5.8594,6.9447,7.2664,7.3125,7.5423,6.9009,6.1758,6.3117,6.0379,5.7513,5.8304,5.8136,5.8228,5.9702,6.2162,6.4623,6.6313,6.7646,6.7671,6.4938,6.2342,5.9692,5.6989,5.6628,5.6628,5.6628,5.6628,5.6628,5.6628,5.6628,5.6628,5.6628,5.6628,5.6628,5.6628,5.6628,5.6628,5.6628,5.6628,5.6628,5.6628,5.6628,5.6628,5.6628,5.6628,5.6628,5.6628,5.6628,5.6628,4.3437,4.543,4.6228,5.0484,5.146,5.1538,5.207,5.2187,5.2447,5.3228,5.3295,5.3284,5.3336,5.3699,5.3998,5.3998,5.3998,5.3998,5.3998,5.3998,5.3998,5.3998,5.3998,5.3998,5.3998,5.3998,0.0,0.0,0.0,5.4131,5.4423,5.4183,5.4025,5.4015,5.4284,5.5129,5.6594,5.519,5.5186,5.6609,5.6605,5.6628,5.6562,5.5597,5.5309,5.5475,5.4765,5.5273,5.6628,5.6628,5.6628,5.6628,5.6628,5.6624,5.6642,5.692,5.7045,5.706,5.7056,5.7022,5.7049,5.7058,5.8391,6.1623,7.0584,7.4622,7.6099,7.6078,7.0277,6.4138,6.4363,6.1316,5.8693,6.0915,6.1806,6.2034,6.1613,6.5292,6.8822,6.9308,7.0806,7.1141,6.8361,6.3834,5.9692,5.6989,5.6628,5.6628,5.6628,5.6628,5.6628,5.6628,5.6628,5.6628,5.6628,5.6628,5.6628,5.6628,5.6628,5.6628,5.6628,5.6628,5.6628,5.6628,5.6628,5.6628,5.6628,5.6628,5.6628,5.6628,5.6628,5.6628,3.7209,4.1758,4.707,5.1016,5.1719,5.1616,5.2461,5.2617,5.2773,5.3267,5.3384,5.3476,5.3842,5.3959,5.3998,5.3998,5.3998,5.3998,5.3998,5.3998,5.3998,5.3998,5.3998,5.3998,5.3998,5.3998,0.0,0.0,5.4002,5.4648,5.6165,5.4818,5.3997,5.3985,5.5454,5.636,5.6594,5.6384,5.6381,5.6609,5.6605,5.6628,5.6562,5.6419,5.6419,5.6431,5.6312,5.6377,5.6628,5.6628,5.6628,5.6628,5.6628,5.6601,5.6772,5.8302,5.885,5.8849,5.8855,5.8837,5.8852,5.8844,6.5493,7.3745,7.5235,7.5867,7.6098,7.6085,7.0592,6.4986,6.6251,6.4268,6.1964,6.2015,6.5212,6.8186,6.7671,6.8164,6.9405,7.1716,7.0589,6.8216,6.502,6.2295,5.9692,5.6989,5.6628,5.6628,5.6628,5.6628,5.6628,5.6628,5.6628,5.6628,5.6628,5.6628,5.6628,5.6628,5.6628,5.6628,5.6628,5.6628,5.6628,5.6628,5.6628,5.6628,5.6628,5.6628,5.6628,5.6628,5.6628,5.6628,3.8419,4.3026,4.7438,5.0835,5.1538,5.1616,5.25,5.2695,5.2891,5.3594,5.375,5.3789,5.3959,5.3998,5.3998,5.3998,5.3998,5.3998,5.3998,5.3998,5.3998,5.3998,5.3998,5.3998,5.3998,5.3998,0.0,0.0,5.4015,5.4753,5.6486,5.5861,5.5438,5.5467,5.6173,5.6581,5.6596,5.6605,5.6603,5.658,5.6603,5.6628,5.6628,5.6628,5.6628,5.6628,5.6628,5.6628,5.6628,5.6628,5.6628,5.6628,5.6628,5.6599,5.6699,5.7449,5.8365,5.9202,5.9201,5.9202,6.0053,6.5123,7.0978,7.6083,7.6098,7.6113,7.6113,7.6098,7.2521,6.8852,6.9521,6.7421,6.5426,6.677,6.8561,7.0336,7.1639,7.1661,7.1778,7.3003,7.1962,7.001,6.7048,6.5778,6.4233,6.1519,5.9823,5.8842,5.8842,5.7508,5.6628,5.6628,5.6628,5.6628,5.6628,5.6628,5.6628,5.6628,5.6628,5.6628,5.6628,5.6628,5.6628,5.6628,5.6628,5.6628,5.6628,5.6628,5.6445,5.6184,5.6484,5.6445,3.92,4.2909,4.572,4.9625,5.0679,5.1133,5.2539,5.2773,5.2969,5.3803,5.3998,5.3998,5.3998,5.3998,5.3998,5.3998,5.3998,5.3998,5.3998,5.3998,5.3998,5.3998,5.3998,5.3998,5.3998,5.3999,0.0,0.0,5.4427,5.5246,5.653,5.6608,5.6618,5.6621,5.6578,5.6628,5.6628,5.6628,5.6628,5.6628,5.6628,5.6628,5.6628,5.6628,5.6628,5.6628,5.6628,5.6614,5.6611,5.6611,5.6597,5.6621,5.6585,5.6594,5.6611,5.6623,5.7714,5.9616,6.251,6.3116,6.3838,7.119,7.4514,7.5709,7.6017,7.6113,7.6098,7.6078,7.4012,7.1789,7.1789,7.0025,6.8743,7.0715,7.1416,7.21,7.4011,7.4121,7.377,7.3619,7.3268,7.2058,6.9186,6.87,6.7794,6.5109,6.2956,6.139,6.0666,5.8842,5.7362,5.6643,5.6628,5.6628,5.6628,5.6628,5.6628,5.6628,5.6628,5.6628,5.6628,5.6628,5.6628,5.6628,5.6628,5.6628,5.6628,5.6628,5.6406,5.6067,5.6445,5.6406,3.6211,3.8299,4.0527,4.6797,4.8695,4.9813,5.2706,5.3033,5.2969,5.3803,5.3998,5.3998,5.3998,5.3998,5.3998,5.3998,5.3998,5.3998,5.3998,5.3998,5.3998,5.3998,5.3998,5.3998,5.3998,5.3989,0.0,0.0,5.5521,5.6504,5.6623,5.6593,5.6589,5.6616,5.6589,5.6628,5.6628,5.6628,5.6628,5.6628,5.6628,5.6628,5.6628,5.6628,5.6628,5.6628,5.6628,5.6597,5.66,5.66,5.6604,5.6617,5.6581,5.6573,5.6576,5.6609,5.7717,6.0756,7.1487,7.3783,7.2459,7.5053,7.526,7.4714,7.5798,7.6074,7.6104,7.6079,7.4012,7.1789,7.1789,7.1713,7.1588,7.1716,7.3397,7.483,7.4475,7.4348,7.4222,7.3669,7.3569,7.2528,6.9234,6.87,6.7794,6.5109,6.458,6.3568,6.0925,6.05,5.9404,5.6856,5.6628,5.6628,5.6628,5.6628,5.6628,5.6628,5.6628,5.6628,5.6628,5.6628,5.6628,5.6628,5.6628,5.6628,5.6628,5.6628,5.6589,5.6562,5.6589,5.6589,3.5078,3.7322,3.9667,4.418,4.6875,4.8968,5.0883,5.229,5.3281,5.3881,5.3998,5.3998,5.3998,5.3998,5.3998,5.3998,5.3998,5.3998,5.3998,5.3998,5.3998,5.3998,5.3998,5.3998,5.3998,5.5008,0.0,0.0,0.0,5.6609,5.6593,5.6603,5.6628,5.6628,5.6628,5.6628,5.6628,5.6628,5.6628,5.6628,5.6628,5.6628,5.6628,5.6628,5.6628,5.6601,5.6582,5.6603,5.6665,5.7816,5.8271,5.8281,5.8298,5.7599,5.6583,5.6596,6.1393,6.8467,7.2487,7.4328,7.5012,7.5829,7.5853,7.5482,7.5526,7.5776,7.6079,7.6079,7.5385,7.4538,7.4538,7.4538,7.4538,7.4538,7.5161,7.5753,7.5552,7.5176,7.485,7.4649,7.4348,7.3732,7.2564,7.2049,7.1514,7.0568,6.7162,6.4353,6.3364,6.0188,5.7641,5.6669,5.6628,5.6484,5.6172,5.6145,5.6145,5.6145,5.6145,5.6289,5.6589,5.6628,5.6628,5.6628,5.6328,5.6145,5.6145,5.6145,5.6015,5.5781,5.6055,5.6015,3.3476,3.5564,3.8065,4.207,4.4375,4.6562,5.0195,5.1704,5.272,5.4154,5.431,5.4232,5.4232,5.4115,5.3998,5.3998,5.3998,5.3998,5.3998,5.3998,5.3998,5.3998,5.3998,5.3986,5.4,5.5581,0.0,0.0,0.0,0.0,5.6589,5.6628,5.6628,5.6628,5.6628,5.6628,5.6628,5.6628,5.6628,5.6628,5.6628,5.6628,5.6628,5.6628,5.6587,5.6624,5.6599,5.6606,5.6712,5.8475,5.9188,5.9121,5.8573,5.7639,5.7031,6.0698,6.7045,7.3845,7.3844,7.4814,7.6075,7.609,7.5822,7.5505,7.5278,7.5377,7.5552,7.5753,7.5803,7.5853,7.6079,7.6079,7.6079,7.6079,7.6079,7.6079,7.6079,7.5803,7.5527,7.5527,7.5051,7.4649,7.4649,7.4198,7.387,7.387,7.0468,6.7244,6.5253,6.1853,5.8779,5.658,5.7151,5.7479,5.7039,5.6999,5.7079,5.7199,5.6373,5.6106,5.6562,5.6628,5.655,5.6367,5.6067,5.5755,5.5481,5.5638,5.5638,5.5481,5.5638,5.594,0.0,0.0,0.0,4.0312,4.0996,4.2519,5.0523,5.1211,5.1118,5.4492,5.4922,5.4674,5.4713,5.4336,5.4037,5.4037,5.3998,5.3998,5.3998,5.3998,5.3998,5.3998,5.3998,5.3987,5.4028,5.556,0.0,0.0,5.6593,5.6628,5.6628,5.6628,5.6628,5.6628,5.6628,5.6628,5.6628,5.6628,5.6628,5.6628,5.6628,5.6628,5.6628,5.6628,5.6624,5.6615,5.6662,5.6843,5.729,5.8651,5.9404,5.9538,5.7754,5.7123,5.8438,6.8951,7.4217,7.6083,7.6099,7.6094,7.6095,7.6127,7.5331,7.4535,7.5029,7.4826,7.4475,7.5027,7.5177,7.5352,7.5954,7.6079,7.6079,7.6079,7.6079,7.6079,7.6079,7.6079,7.6079,7.6079,7.5628,7.5252,7.5252,7.48,7.4398,7.4398,7.435,7.2128,6.6282,6.5506,6.3056,5.6689,5.8332,5.9707,5.9338,5.9245,5.9337,5.9746,5.733,5.6106,5.6562,5.6628,5.6367,5.5911,5.5911,5.5481,5.4713,5.5117,5.5481,5.5872,5.5586,5.6525,3.1094,0.0,0.0,0.0,0.0,0.0,4.3945,4.6875,4.9375,5.1601,5.3178,5.4297,5.4635,5.457,5.4492,5.4492,5.4193,5.3998,5.3998,5.3998,5.3998,5.3998,5.3998,5.3987,5.4028,5.5013,0.0,0.0,5.6328,5.6628,5.6628,5.6628,5.6628,5.6628,5.6628,5.6628,5.6628,5.6628,5.6628,5.6628,5.6628,5.6628,5.6628,5.6628,5.6605,5.6688,5.7917,6.3115,7.0107,6.2374,6.4047,7.1208,6.9092,6.9263,7.1062,7.406,7.5584,7.6125,7.6102,7.6102,7.6077,7.6104,7.5904,7.5506,7.4837,7.4315,7.409,7.4239,7.4708,7.5352,7.5954,7.5803,7.5578,7.6004,7.6079,7.6079,7.6079,7.6079,7.6079,7.6079,7.5954,7.5853,7.5853,7.5377,7.5001,7.5001,7.3011,7.003,6.6028,6.5186,6.3346,5.915,6.075,6.1966,6.1557,5.9795,5.8901,5.9337,5.6915,5.582,5.6589,5.6628,5.6367,5.5911,5.5599,5.5234,5.4713,5.5117,5.5351,5.5495,5.7297,5.8275,0.0,0.0,0.0,0.0,0.0,0.0,4.3047,4.5742,4.8242,5.2148,5.392,5.4896,5.5156,5.5078,5.4961,5.4961,5.4726,5.4466,5.4336,5.4115,5.3986,5.4014,5.3999,5.4155,5.452,5.4999,5.5519,5.6027,5.6412,5.6591,5.6609,5.6587,5.6628,5.6628,5.6628,5.6628,5.6628,5.6628,5.6628,5.6628,5.6628,5.6587,5.6597,5.6593,5.6621,5.6952,6.3435,6.7319,6.8897,6.7047,7.0165,7.5955,7.4648,7.4931,7.608,7.6082,7.6104,7.6118,7.6069,7.6123,7.6101,7.6101,7.6101,7.6001,7.5306,7.4733,7.4285,7.4017,7.471,7.5678,7.6004,7.5853,7.5678,7.6029,7.6079,7.6079,7.6079,7.5904,7.5803,7.6079,7.6079,7.6079,7.6079,7.5803,7.5578,7.5578,7.263,7.017,6.9531,6.6822,6.3765,6.0672,6.2487,6.3435,6.2208,6.1597,6.0796,5.958,5.7039,5.5859,5.6589,5.6578,5.6357,5.5847,5.5469,5.5039,5.4403,5.4649,5.4764,5.4834,5.8055,6.0023,0.0,0.0,0.0,0.0,0.0,0.0,4.4435,4.5725,4.7014,5.3217,5.474,5.4974,5.5052,5.4818,5.4648,5.4531,5.4805,5.4922,5.4752,5.4375,5.4129,5.408,5.4091,5.4441,5.5169,5.5309,5.5737,5.6601,5.67,5.6677,5.66,5.6624,5.6628,5.6628,5.6628,5.6628,5.6628,5.6628,5.6628,5.6628,5.6591,5.6575,5.6618,5.6781,5.7559,5.9401,7.1038,7.0401,6.1878,7.1971,7.6108,7.6104,7.6107,7.6099,7.6117,7.6117,7.5918,7.5744,7.5732,7.5712,7.5771,7.6017,7.6092,7.6118,7.6118,7.554,7.4767,7.4163,7.4883,7.5878,7.6029,7.6079,7.6029,7.6079,7.6079,7.6029,7.6079,7.5578,7.5302,7.5954,7.6079,7.6029,7.6079,7.6079,7.6079,7.6079,7.3208,7.1831,7.407,6.9609,6.5084,6.1995,6.4115,6.4906,6.2735,6.4447,6.416,6.0541,5.7518,5.6067,5.6577,5.6596,5.6294,5.5677,5.5321,5.4801,5.3975,5.3998,5.4023,5.4215,5.8538,6.195,0.0,0.0,0.0,0.0,0.0,0.0,0.0,4.0273,4.3125,4.5156,4.75,4.9297,4.9625,5.0211,5.0406,4.9726,5.1641,5.3555,5.4557,5.4883,5.4935,5.461,5.4831,5.5013,5.4981,5.5385,5.6078,5.7151,5.7226,5.7067,5.6599,5.6575,5.6628,5.6628,5.6628,5.6628,5.6628,5.6628,5.6628,5.6589,5.6623,5.6622,5.6662,5.8046,6.3675,7.2429,7.4987,7.4852,7.2965,7.5208,7.6119,7.608,7.6079,7.6089,7.6103,7.6103,7.4918,7.3346,7.3369,7.3374,7.3673,7.5514,7.6085,7.6118,7.6118,7.5336,7.4482,7.4324,7.4199,7.4397,7.5777,7.5728,7.5527,7.5954,7.5728,7.5527,7.6004,7.5301,7.4875,7.5904,7.5678,7.5527,7.6029,7.6079,7.6079,7.6079,7.5485,7.3893,7.0788,7.1463,7.0422,6.5767,6.7807,6.9036,6.7974,6.8321,6.6842,6.27,5.8001,5.5779,5.6582,5.6619,5.6222,5.5395,5.4649,5.4175,5.4008,5.4011,5.4258,5.487,6.1219,6.4551,0.0,0.0,0.0,3.6389,0.0,0.0,0.0,0.0,4.1641,4.4414,4.5881,4.6897,4.7734,4.8086,4.8219,4.8203,5.0937,5.3211,5.3579,5.4592,5.5312,5.5312,5.5312,5.5325,5.5385,5.5592,5.6229,5.7554,5.7666,5.7349,5.6621,5.6599,5.6628,5.6628,5.6628,5.6628,5.6628,5.6628,5.658,5.6583,5.6595,5.9449,6.4681,6.673,7.074,7.6167,7.7276,7.7737,7.7736,7.7762,7.7083,7.6005,7.4836,7.4388,7.4381,7.44,7.3687,7.2683,7.2679,7.268,7.3075,7.5358,7.5338,7.4604,7.577,7.5717,7.5244,7.5249,7.505,7.505,7.5878,7.5904,7.5728,7.6029,7.5628,7.5302,7.5578,7.4774,7.4171,7.4849,7.4875,7.5075,7.5954,7.6079,7.6079,7.6079,7.6079,7.5285,7.2998,7.1809,7.0785,6.9617,7.0094,7.0176,6.9452,6.7937,6.4772,5.9477,5.8485,5.7513,5.6209,5.6042,5.7971,6.2236,6.1876,5.9153,5.4022,5.9203,6.0506,5.845,6.4508,6.6595,0.0,0.0,0.0,0.0,0.0,3.7578,0.0,0.0,0.0,0.0,4.4648,4.463,4.5686,4.5944,4.6199,4.6773,5.0196,5.2643,5.204,5.3705,0.0,5.5803,5.5716,5.5665,5.6005,5.5546,5.5943,5.7687,5.7928,5.7571,5.663,5.6609,5.6587,5.6628,5.6628,5.6628,5.6628,5.6628,5.6609,5.6643,5.8722,6.4497,7.3395,7.5277,7.608,7.6198,7.7986,7.8757,7.8758,7.877,7.7455,7.5265,7.3453,7.2986,7.3349,7.3368,7.3072,7.268,7.2696,7.2988,7.3604,7.496,7.4523,7.3715,7.5543,7.5997,7.5879,7.5904,7.5904,7.5954,7.6079,7.6079,7.6079,7.6079,7.5578,7.5077,7.5202,7.4248,7.3569,7.4045,7.4272,7.4774,7.5904,7.6079,7.6029,7.5828,7.5978,7.5928,7.5502,7.1834,7.0204,7.2494,7.1649,6.9862,6.7153,6.4578,6.1407,5.7267,5.9551,6.0239,5.8414,5.814,6.1587,6.9256,6.9427,6.5324,5.6981,6.533,6.6737,6.183,6.7143,6.8448,0.0,0.0,0.0,0.0,3.9862,0.0,0.0,0.0,0.0,0.0,0.0,0.0,0.0,0.0,0.0,0.0,0.0,0.0,4.9708,5.2148,5.4491,5.5649,5.62,5.6425,0.0,5.4743,5.4738,5.7266,5.7974,5.7757,5.6655,5.6606,5.6606,5.6601,5.6628,5.6628,5.6628,5.6628,5.6581,5.6727,6.6314,7.257,7.5727,7.5981,7.608,7.6083,7.6358,7.6483,7.6457,7.6481,7.5132,7.3058,7.281,7.3947,7.5703,7.5697,7.4402,7.2695,7.2669,7.4051,7.542,7.364,7.4282,7.5768,7.603,7.5641,7.5154,7.5278,7.5302,7.5402,7.5954,7.6079,7.6079,7.6079,7.5301,7.4599,7.5101,7.3947,7.3244,7.475,7.47,7.4774,7.5904,7.6079,7.5753,7.4774,7.5451,7.5351,7.3344,7.2581,7.2323,7.2657,7.2541,6.8513,5.884,5.7742,5.9155,6.3016,6.223,6.3486,6.768,6.7821,6.829,6.9366,6.9377,6.8809,6.7671,6.8826,6.6737,6.183,6.7698,7.0373,0.0,0.0,0.0,0.0,0.0,0.0,0.0,0.0,3.7439,0.0,0.0,0.0,0.0,0.0,0.0,0.0,0.0,0.0,0.0,0.0,5.2687,5.4895,0.0,0.0,0.0,0.0,0.0,0.0,5.7455,5.7693,5.7582,5.6968,5.6582,5.6606,5.6599,5.6607,5.661,5.661,5.6616,5.6736,6.8893,7.516,7.6106,7.6103,7.6128,7.6107,7.6107,7.6082,7.6106,7.6121,7.4753,7.2712,7.2685,7.4117,7.5932,7.4618,7.3502,7.2873,7.4194,7.5307,7.5933,7.5015,7.5317,7.6092,7.6087,7.587,7.5653,7.5728,7.5728,7.5803,7.6029,7.6079,7.6079,7.6079,7.5251,7.4449,7.47,7.3645,7.2993,7.4047,7.4121,7.4171,7.4975,7.5301,7.5325,7.4849,7.4798,7.4296,7.2892,7.2692,7.2686,7.2716,7.2404,7.0551,6.6322,6.4039,6.3467,6.485,6.3853,6.5103,6.9204,6.941,6.942,6.9406,6.9393,6.9734,7.0377,6.9734,6.8521,6.6882,6.8925,6.9319,4.418,0.0,0.0,0.0,0.0,0.0,0.0,0.0,0.0,0.0,0.0,0.0,0.0,0.0,0.0,0.0,0.0,0.0,0.0,4.8193,0.0,0.0,0.0,0.0,0.0,0.0,0.0,0.0,0.0,5.6937,5.7988,5.743,5.6911,5.6611,5.6821,5.6819,5.6605,5.9516,6.0999,6.1138,7.1277,7.6107,7.6072,7.6079,7.608,7.6079,7.6079,7.6102,7.6046,7.5439,7.4179,7.276,7.3369,7.464,7.5814,7.3532,7.2731,7.3005,7.5314,7.6107,7.6109,7.6109,7.609,7.6097,7.6097,7.6101,7.6079,7.6079,7.6079,7.6079,7.6079,7.6079,7.6079,7.6079,7.5327,7.4599,7.4449,7.3645,7.3093,7.372,7.372,7.382,7.4499,7.4824,7.4923,7.4648,7.4045,7.3368,7.2792,7.2692,7.2692,7.2692,7.234,7.1902,7.1297,6.9079,6.724,6.5954,6.5755,6.69,6.9584,6.9529,6.9556,6.988,6.9752,7.009,7.0917,7.009,6.9898,7.0195,6.9825,6.8727,0.0,0.0,0.0,4.2851,0.0,0.0,0.0,0.0,3.8906,0.0,0.0,0.0,0.0,0.0,0.0,0.0,0.0,0.0,0.0,0.0,0.0,0.0,0.0,0.0,0.0,0.0,0.0,0.0,0.0,0.0,5.7317,5.7961,5.7738,5.6611,5.7428,5.7425,5.6636,6.695,7.2155,7.2244,7.4854,7.6083,7.6079,7.6108,7.6082,7.6079,7.6079,7.6079,7.5929,7.3693,7.2761,7.2936,7.5116,7.6032,7.582,7.3525,7.2691,7.301,7.5325,7.6098,7.6104,7.6104,7.6104,7.6079,7.6079,7.6079,7.6079,7.6079,7.6079,7.6079,7.6079,7.6079,7.6079,7.6079,7.5628,7.5051,7.4499,7.3971,7.372,7.4248,7.3971,7.392,7.5001,7.5075,7.4698,7.377,7.3143,7.2742,7.2692,7.2692,7.2692,7.2692,7.2692,7.131,6.7841,6.8258,6.8175,6.7105,6.8395,6.9611,7.0442,6.9775,6.993,7.1031,7.0648,7.0465,7.0515,7.0465,7.0094,6.9456,7.0026,6.9908,0.0,0.0,5.0874,4.6016,0.0,0.0,0.0,0.0,0.0,0.0,0.0,0.0,0.0,0.0,0.0,0.0,0.0,0.0,0.0,0.0,0.0,0.0,0.0,0.0,0.0,0.0,0.0,0.0,0.0,0.0,0.0,5.7859,5.7625,5.7481,6.0666,6.2106,6.1443,7.0413,7.4958,7.4987,7.5732,7.6104,7.6129,7.6106,7.6903,7.8201,7.6752,7.5233,7.3896,7.4632,7.498,7.5009,7.5825,7.6104,7.6033,7.5226,7.4953,7.5059,7.5803,7.6103,7.6004,7.5528,7.5704,7.6029,7.5628,7.5803,7.6079,7.6079,7.6079,7.6079,7.6079,7.6079,7.6079,7.6079,7.5377,7.4599,7.4449,7.3645,7.3194,7.377,7.3394,7.3268,7.4021,7.377,7.3519,7.3569,7.3093,7.2692,7.2692,7.2692,7.2692,7.2692,7.2692,7.2218,7.0998,7.0525,7.0001,6.9261,6.9697,6.9926,6.9775,7.0255,7.0556,7.0579,7.0803,7.0926,7.0926,7.0524,7.025,7.0003,6.9803,6.9579,5.1719,5.2748,0.0,4.8555,4.8281,0.0,4.2969,0.0,0.0,0.0,0.0,0.0,0.0,0.0,0.0,0.0,0.0,0.0,0.0,0.0,0.0,0.0,0.0,0.0,0.0,0.0,0.0,0.0,0.0,0.0,0.0,0.0,5.7836,5.8025,6.0475,6.2754,6.4741,7.0668,7.4515,7.6077,7.6077,7.6079,7.6106,7.6106,7.6878,7.8176,7.6752,7.5283,7.402,7.5503,7.6077,7.6181,7.6982,7.7285,7.7283,7.7249,7.677,7.6079,7.6079,7.6079,7.6004,7.5303,7.5528,7.6004,7.5402,7.5628,7.6129,7.633,7.623,7.6129,7.633,7.623,7.6079,7.5853,7.5226,7.4599,7.4222,7.3545,7.3167,7.3519,7.3093,7.2892,7.3468,7.3117,7.2842,7.3217,7.2943,7.2792,7.2993,7.2993,7.2993,7.2993,7.2993,7.2943,7.2742,7.1912,7.1332,7.1182,7.078,7.0556,7.056,7.0907,7.1131,7.1158,7.1131,7.1131,7.1131,7.0529,7.0177,6.9953,6.9579,6.9506]}]]